[[{"header":{"parameterUnit":"m.s-1","parameterCategory":1,"la1":30.6,"la2":29.2853,"lo1":-89.7004,"lo2":-87.6739,"dy":0.0162,"dx":0.0183,"nx":112,"ny":82,"refTime":"2023-07-25T06:00:00:Z","depth":0,"parameterNumber":2,"parameterNumberName":"U-component_of_WINDS"},"data":[0.0,0.0,0.0,0.0,0.0,0.0,0.0,0.0,0.0,0.0,0.0,0.0,0.0,0.0,0.0,0.0,0.0,0.0,0.0,0.0,0.0,0.0,0.0,0.0,0.0,0.0,0.0,0.0,0.0,0.0,0.0,0.0,0.0,0.0,0.0,0.0,0.0,0.0,0.0,0.0,0.0,0.0,0.0,0.0,0.0,0.0,0.0,0.0,0.0,0.0,0.0,0.0,0.0,0.0,0.0,0.0,0.0,0.0,0.0,0.0,0.0,0.0,0.0,0.0,0.0,0.0,0.0,0.0,0.0,0.0,0.0,0.0,0.0,0.0,0.0,0.0,0.0,0.0,0.0,0.0,0.0,0.0,0.0,0.0,0.0,0.0,0.0,0.0,0.0,0.0,0.3204,0.2785,0.2957,0.3152,0.3329,0.4091,0.449,0.438,0.0,0.0,0.0,0.0,0.0,0.0,0.0,0.0,0.0,0.0,0.0,0.0,0.0,0.0,0.0,0.0,0.0,0.0,0.0,0.0,0.0,0.0,0.0,0.0,0.0,0.0,0.0,0.0,0.0,0.0,0.0,0.0,0.0,0.0,0.0,0.0,0.0,0.0,0.0,0.0,0.0,0.0,0.0,0.0,0.0,0.0,0.0,0.0,0.0,0.0,0.0,0.0,0.0,0.0,0.0,0.0,0.0,0.0,0.0,0.0,0.0,0.0,0.0,0.0,0.0,0.0,0.0,0.0,0.0,0.0,0.0,0.0,0.0,0.0,0.0,0.0,0.0,0.0,0.0,0.0,0.0,0.0,0.0,0.0,0.0,0.0,0.0,0.0,0.0,0.0,0.0,0.0,0.0,0.0,0.0,0.0,0.0,0.0,0.0,0.0,0.0,0.0,0.0,0.0,0.3509,0.2915,0.3022,0.3236,0.352,0.3779,0.4262,0.5066,0.0,0.0,0.0,0.0,0.0,0.0,0.0,0.0,0.0,0.0,0.0,0.0,0.0,0.0,0.0,0.0,0.0,0.0,0.0,0.0,0.0,0.0,0.0,0.0,0.0,0.0,0.0,0.0,0.0,0.0,0.0,0.0,0.0,0.0,0.0,0.0,0.0,0.0,0.0,0.0,0.0,0.0,0.0,0.0,0.0,0.0,0.0,0.0,0.0,0.0,0.0,0.0,0.0,0.0,0.0,0.0,0.0,0.0,0.0,0.0,0.0,0.0,0.0,0.0,0.0,0.0,0.0,0.0,0.0,0.0,0.0,0.0,0.0,0.0,0.0,0.0,0.0,0.0,0.0,0.0,0.0,0.0,0.0,0.0,0.0,0.0,0.0,0.0,0.0,0.0,0.0,0.0,0.0,0.0,0.0,0.0,0.0,0.0,0.0,0.0,0.0,0.0,0.0,0.3211,0.3086,0.2819,0.2917,0.3093,0.3314,0.3327,0.3859,0.5095,0.5422,0.0,0.0,0.0,0.0,0.0,0.0,0.0,0.0,0.0,0.0,0.0,0.0,0.0,0.0,0.0,0.0,0.0,0.0,0.0,0.0,0.0,0.0,0.0,0.0,0.0,0.0,0.0,0.0,0.0,0.0,0.0,0.0,0.0,0.0,0.0,0.0,0.0,0.0,0.0,0.0,0.0,0.0,0.0,0.0,0.0,0.0,0.0,0.0,0.0,0.0,0.0,0.0,0.0,0.0,0.0,0.0,0.0,0.0,0.0,0.0,0.0,0.0,0.0,0.0,0.0,0.0,0.0,0.0,0.0,0.0,0.0,0.0,0.0,0.0,0.0,0.0,0.0,0.0,0.0,0.0,0.0,0.0,0.0,0.0,0.0,0.0,0.0,0.0,0.0,0.0,0.0,0.0,0.0,0.0,0.0,0.0,0.0,0.0,0.0,0.0,0.0,0.0,0.2939,0.2618,0.2723,0.2941,0.3074,0.3107,0.328,0.3878,0.5019,0.5159,0.0,0.0,0.0,0.0,0.0,0.0,0.0,0.0,0.0,0.0,0.0,0.0,0.0,0.0,0.0,0.0,0.0,0.0,0.0,0.0,0.0,0.0,0.0,0.0,0.0,0.0,0.0,0.0,0.0,0.0,0.0,0.0,0.0,0.0,0.0,0.0,0.0,0.0,0.0,0.0,0.0,0.0,0.0,0.0,0.0,0.0,0.0,0.0,0.0,0.0,0.0,0.0,0.0,0.0,0.0,0.0,0.0,0.0,0.0,0.0,0.0,0.0,0.0,0.0,0.0,0.0,0.0,0.0,0.0,0.0,0.0,0.0,0.0,0.0,0.0,0.0,0.0,0.0,0.0,0.0,0.0,0.0,0.0,0.0,0.0,0.0,0.0,0.0,0.0,0.0,0.0,0.0,0.0,0.0,0.0,0.0,0.0,0.0,0.0,0.0,0.0,0.0,0.2955,0.2398,0.2849,0.329,0.3432,0.3107,0.4108,0.4859,0.5099,0.573,0.0,0.0,0.0,0.0,0.0,0.0,0.0,0.0,0.0,0.0,0.0,0.0,0.0,0.0,0.0,0.0,0.0,0.0,0.0,0.0,0.0,0.0,0.0,0.0,0.0,0.0,0.0,0.0,0.0,0.0,0.0,0.0,0.0,0.0,0.0,0.0,0.0,0.0,0.0,0.0,0.0,0.0,0.0,0.0,0.0,0.0,0.0,0.0,0.0,0.0,0.0,0.0,0.0,0.0,0.0,0.0,0.0,0.0,0.0,0.0,0.0,0.0,0.0,0.0,0.0,0.0,0.0,0.0,0.0,0.0,0.0,0.0,0.0,0.0,0.0,0.0,0.0,0.0,0.0,0.0,0.0,0.0,0.0,0.0,0.0,0.0,0.0,0.0,0.0,0.0,0.0,0.0,0.0,0.0,0.0,0.0,0.0,0.0,0.0,0.0,0.0,0.0,0.3074,0.2544,0.0,0.3103,0.336,0.3217,0.3913,0.4611,0.5318,0.0,0.0,0.0,0.0,0.0,0.0,0.0,0.0,0.0,0.0,0.0,0.0,0.0,0.0,0.0,0.0,0.0,0.0,0.0,0.0,0.0,0.0,0.0,0.0,0.0,0.0,0.0,0.0,0.0,0.0,0.0,0.0,0.0,0.0,0.0,0.0,0.0,0.0,0.0,0.0,0.0,0.0,0.0,0.0,0.0,0.0,0.0,0.0,0.0,0.0,0.0,0.0,0.0,0.0,0.0,0.0,0.0,0.0,0.0,0.0,0.0,0.0,0.0,0.0,0.0,0.0,0.0,0.0,0.0,0.0,0.0,0.0,0.0,0.0,0.0,0.0,0.0,0.0,0.0,0.0,0.0,0.0,0.0,0.0,0.0,0.0,0.0,0.0,0.0,0.0,0.0,0.0,0.0,0.0,0.0,0.0,0.0,0.0,0.0,0.0,0.0,0.0,0.4062,0.323,0.2712,0.0,0.3319,0.3523,0.3523,0.4081,0.4722,0.5442,0.0,0.0,0.0,0.0,0.0,0.0,0.0,0.0,0.0,0.0,0.0,0.0,0.0,0.0,0.0,0.0,0.0,0.0,0.0,0.0,0.0,0.0,0.0,0.0,0.0,0.0,0.0,0.0,0.0,0.0,0.0,0.0,0.0,0.0,0.0,0.0,0.0,0.0,0.0,0.0,0.0,0.0,0.0,0.0,0.0,0.0,0.0,0.0,0.0,0.0,0.0,0.0,0.0,0.0,0.0,0.0,0.0,0.0,0.0,0.0,0.0,0.0,0.0,0.0,0.0,0.0,0.0,0.0,0.0,0.0,0.0,0.0,0.0,0.0,0.0,0.0,0.0,0.0,0.0,0.0,0.0,0.0,0.0,0.0,0.0,0.0,0.0,0.0,0.0,0.0,0.0,0.0,0.0,0.0,0.0,0.0,0.0,0.0,0.0,0.0,0.0,0.0,0.453,0.3395,0.2908,0.3904,0.3993,0.3993,0.3993,0.4794,0.5359,0.0,0.0,0.0,0.0,0.0,0.0,0.0,0.0,0.0,0.0,0.0,0.0,0.0,0.0,0.0,0.0,0.0,0.0,0.0,0.0,0.0,0.0,0.0,0.0,0.0,0.0,0.0,0.0,0.0,0.0,0.0,0.0,0.0,0.0,0.0,0.0,0.0,0.0,0.0,0.0,0.0,0.0,0.0,0.0,0.0,0.0,0.0,0.0,0.0,0.0,0.0,0.0,0.0,0.0,0.0,0.0,0.0,0.0,0.0,0.0,0.0,0.0,0.0,0.0,0.0,0.0,0.0,0.0,0.0,0.0,0.0,0.0,0.0,0.0,0.0,0.0,0.0,0.0,0.0,0.0,0.0,0.0,0.0,0.0,0.0,0.0,0.0,0.0,0.0,0.0,0.0,0.0,0.0,0.0,0.0,0.0,0.0,0.0,0.0,0.0,0.0,0.0,0.0,0.4605,0.3894,0.3558,0.3968,0.4248,0.4409,0.4409,0.496,0.5498,0.5965,0.0,0.0,0.0,0.0,0.0,0.0,0.0,0.0,0.0,0.0,0.0,0.0,0.0,0.0,0.0,0.0,0.0,0.0,0.0,0.0,0.0,0.0,0.0,0.0,0.0,0.0,0.0,0.0,0.0,0.0,0.0,0.0,0.0,0.0,0.0,0.0,0.0,0.0,0.0,0.0,0.0,0.0,0.0,0.0,0.0,0.0,0.0,0.0,0.0,0.0,0.0,0.0,0.0,0.0,0.0,0.0,0.0,0.0,0.0,0.0,0.0,0.0,0.0,0.0,0.0,0.0,0.0,0.0,0.0,0.0,0.0,0.0,0.0,0.0,0.0,0.0,0.0,0.0,0.0,0.0,0.0,0.0,0.0,0.0,0.0,0.0,0.0,0.0,0.0,0.0,0.0,0.0,0.0,0.0,0.0,0.0,0.0,0.0,0.0,0.0,0.0,0.0,0.5274,0.4443,0.4029,0.4462,0.457,0.4666,0.4858,0.5151,0.5564,0.6156,0.0,0.0,0.0,0.0,0.0,0.0,0.0,0.0,0.0,0.0,0.0,0.0,0.0,0.0,0.0,0.0,0.0,0.0,0.0,0.0,0.0,0.0,0.0,0.0,0.0,0.0,0.0,0.0,0.0,0.0,0.0,0.0,0.0,0.0,0.0,0.0,0.0,0.0,0.0,0.0,0.0,0.0,0.0,0.0,0.0,0.0,0.0,0.0,0.0,0.0,0.0,0.0,0.0,0.0,0.0,0.0,0.0,0.0,0.0,0.0,0.0,0.0,0.0,0.0,0.0,0.0,0.0,0.0,0.0,0.0,0.0,0.0,0.0,0.0,0.0,0.0,0.0,0.0,0.0,0.0,0.0,0.0,0.0,0.0,0.0,0.0,0.0,0.0,0.0,0.0,0.0,0.0,0.0,0.0,0.0,0.0,0.0,0.0,0.0,0.0,0.0,0.0,0.6233,0.5003,0.4409,0.5214,0.4922,0.4826,0.5277,0.5309,0.5551,0.6115,0.0,0.0,0.0,0.0,0.0,0.0,0.0,0.0,0.0,0.0,0.0,0.0,0.0,0.0,0.0,0.0,0.0,0.0,0.0,0.0,0.0,0.0,0.0,0.0,0.0,0.0,0.0,0.0,0.0,0.0,0.0,0.0,0.0,0.0,0.0,0.0,0.0,0.0,0.0,0.0,0.0,0.0,0.0,0.0,0.0,0.0,0.0,0.0,0.0,0.0,0.0,0.0,0.0,0.0,0.0,0.0,0.0,0.0,0.0,0.0,0.7021,0.0,0.0,0.0,0.0,0.0,0.0,0.0,0.0,0.0,0.0,0.0,0.0,0.0,0.0,0.0,0.0,0.0,0.0,0.0,0.0,0.0,0.0,0.0,0.0,0.0,0.0,0.0,0.0,0.0,0.0,0.0,0.0,0.0,0.0,0.0,0.0,0.0,0.0,0.0,0.0,0.0,0.6584,0.5646,0.5087,0.5284,0.5214,0.5182,0.5277,0.5309,0.5431,0.5785,0.5812,0.0,0.0,0.0,0.0,0.0,0.0,0.0,0.0,0.0,0.0,0.0,0.0,0.0,0.0,0.0,0.0,0.0,0.0,0.0,0.0,0.0,0.0,0.0,0.0,0.0,0.0,0.0,0.0,0.0,0.0,0.0,0.0,0.0,0.0,0.0,0.0,0.0,0.0,0.0,0.0,0.0,0.0,0.0,0.0,0.0,0.0,0.0,0.0,0.0,0.0,0.0,0.0,0.0,0.0,0.0,0.0,0.0,0.0,0.0,0.0,0.7235,0.0,0.0,0.0,0.0,0.0,0.0,0.0,0.0,0.0,0.0,0.0,0.0,0.0,0.0,0.0,0.0,0.0,0.0,0.0,0.0,0.0,0.0,0.0,0.0,0.0,0.0,0.0,0.0,0.0,0.0,0.0,0.0,0.0,0.0,0.0,0.0,0.0,0.0,0.0,0.0,0.7136,0.6027,0.5309,0.5309,0.5309,0.5309,0.5309,0.5309,0.5404,0.5691,0.5711,0.0,0.0,0.0,0.0,0.0,0.0,0.0,0.0,0.0,0.0,0.0,0.0,0.0,0.0,0.0,0.0,0.0,0.0,0.0,0.0,0.0,0.0,0.0,0.0,0.0,0.0,0.0,0.0,0.0,0.0,0.0,0.0,0.0,0.0,0.0,0.0,0.0,0.0,0.0,0.0,0.0,0.0,0.0,0.0,0.0,0.0,0.0,0.0,0.0,0.0,0.0,0.0,0.0,0.7442,0.7186,0.7045,0.7835,0.7967,0.7667,0.7873,0.7826,0.7646,0.8421,0.0,0.0,0.0,0.0,0.0,0.0,0.0,0.0,0.0,0.0,0.0,0.0,0.0,0.0,0.0,0.0,0.0,0.0,0.0,0.0,0.0,0.0,0.9512,0.964,0.9243,0.8937,0.9399,0.0,0.0,0.0,0.0,0.0,0.0,0.0,0.0,0.0,0.0,0.0,0.7499,0.6251,0.5357,0.5357,0.5342,0.5309,0.5309,0.5309,0.5384,0.5625,0.5638,0.5965,0.0,0.0,0.0,0.0,0.0,0.0,0.0,0.0,0.0,0.0,0.0,0.0,0.0,0.0,0.0,0.0,0.0,0.0,0.0,0.0,0.0,0.0,0.0,0.0,0.0,0.0,0.0,0.0,0.0,0.0,0.0,0.0,0.44,0.4291,0.0,0.0,0.0,0.0,0.0,0.0,0.0,0.0,0.0,0.0,0.0,0.0,0.0,0.6448,0.6559,0.6997,0.7057,0.6768,0.7156,0.7082,0.666,0.7082,0.7659,0.8279,0.8315,0.0,0.7876,0.7961,0.0,0.0,0.0,0.0,0.0,0.0,0.0,0.0,0.0,0.0,0.0,0.0,0.0,0.0,0.0,0.0,0.0,0.0,0.0,0.0,0.0,0.0,0.9375,0.8799,0.8215,0.7662,0.7179,0.8824,1.0381,1.0381,1.0462,1.0645,0.0,0.0,0.0,0.0,0.0,0.0,0.7203,0.6236,0.5658,0.5658,0.5431,0.5309,0.5309,0.5309,0.5329,0.5337,0.5337,0.5497,0.5855,0.6414,0.0,0.0,0.0,0.0,0.0,0.0,0.0,0.0,0.0,0.0,0.0,0.0,0.0,0.0,0.0,0.0,0.0,0.0,0.0,0.0,0.0,0.0,0.0,0.0,0.0,0.0,0.0,0.0,0.0,0.4719,0.4437,0.4308,0.4392,0.4278,0.0,0.0,0.0,0.0,0.0,0.0,0.0,0.0,0.0,0.4573,0.5525,0.6093,0.6151,0.656,0.6766,0.6646,0.6894,0.6768,0.648,0.7069,0.7476,0.765,0.765,0.7594,0.7566,0.8726,0.9471,0.9801,0.0,0.0,0.0,0.0,1.0498,1.0471,1.0303,1.0109,0.9894,1.0077,0.0,0.0,0.0,0.0,0.0,0.0,0.0,0.9904,0.9904,0.9182,0.8421,0.8304,0.7517,0.6773,0.6616,0.7441,0.8344,0.9032,0.9478,1.0019,1.0697,1.0225,0.0,0.0,0.0,0.7803,0.7648,0.6484,0.5711,0.5711,0.5451,0.5309,0.5309,0.5309,0.5309,0.5309,0.5309,0.5337,0.5464,0.6139,0.6718,0.0,0.0,0.0,0.0,0.0,0.0,0.0,0.0,0.0,0.0,0.0,0.0,0.0,0.0,0.0,0.0,0.0,0.0,0.0,0.0,0.0,0.0,0.0,0.0,0.0,0.0,0.0,0.0,0.4806,0.4396,0.426,0.4548,0.4511,0.0,0.0,0.0,0.0,0.0,0.0,0.4348,0.4291,0.4406,0.4626,0.5348,0.5823,0.5892,0.6172,0.6363,0.6478,0.6527,0.6439,0.6145,0.6715,0.688,0.6669,0.6918,0.7138,0.75,0.8789,0.9247,0.9116,0.968,1.0072,1.0249,0.9829,0.9616,0.9624,0.9568,0.9417,0.9272,0.9089,0.9386,0.9658,0.9275,0.0,0.0,0.0,0.0,0.9269,0.9269,0.8299,0.7357,0.7404,0.6732,0.6006,0.6063,0.6046,0.6421,0.7641,0.823,0.8763,0.9607,0.9048,0.0,0.0,0.0,0.7128,0.7335,0.6265,0.5503,0.5503,0.5221,0.5069,0.5028,0.5021,0.5061,0.5125,0.5119,0.5182,0.5277,0.5863,0.6344,0.6628,0.0,0.0,0.0,0.0,0.0,0.0,0.0,0.0,0.0,0.0,0.0,0.0,0.0,0.0,0.0,0.0,0.0,0.0,0.0,0.0,0.0,0.0,0.0,0.0,0.0,0.0,0.0,0.0,0.0,0.3839,0.4053,0.0,0.0,0.0,0.0,0.4484,0.4488,0.4562,0.487,0.5006,0.5081,0.5098,0.5389,0.5617,0.5624,0.5857,0.5947,0.5748,0.6122,0.6036,0.5459,0.5505,0.5474,0.5501,0.6359,0.7255,0.8078,0.7163,0.7338,0.8144,0.772,0.8158,0.891,0.8342,0.8088,0.8088,0.7828,0.7291,0.6855,0.7229,0.709,0.6897,0.7505,0.7309,0.0,0.0,0.7298,0.6779,0.6779,0.672,0.6499,0.5792,0.5579,0.537,0.4732,0.4625,0.5007,0.6406,0.6493,0.6463,0.6758,0.0,0.6344,0.6211,0.6143,0.5914,0.5484,0.5132,0.4944,0.4944,0.4626,0.4377,0.4272,0.4257,0.4372,0.4614,0.4634,0.4826,0.5284,0.5329,0.555,0.5943,0.6129,0.0,0.0,0.0,0.0,0.0,0.0,0.0,0.0,0.0,0.0,0.0,0.0,0.0,0.0,0.0,0.0,0.0,0.0,0.0,0.0,0.0,0.0,0.0,0.0,0.0,0.0,0.0,0.0,0.4348,0.4555,0.0,0.4602,0.4646,0.4738,0.488,0.4894,0.5026,0.5335,0.5304,0.5372,0.5507,0.5617,0.5653,0.5755,0.6029,0.5451,0.4061,0.4189,0.4139,0.3916,0.3774,0.431,0.5444,0.5696,0.6101,0.6301,0.4733,0.5439,0.7413,0.7249,0.7281,0.737,0.7151,0.7094,0.7069,0.6978,0.6954,0.6853,0.6494,0.5931,0.5634,0.6663,0.6892,0.6814,0.6933,0.6794,0.6588,0.6588,0.6253,0.5814,0.5542,0.5164,0.4787,0.457,0.4519,0.4625,0.5171,0.5398,0.5745,0.6494,0.6226,0.6002,0.6117,0.5891,0.5609,0.545,0.5117,0.4898,0.4898,0.4582,0.4385,0.4345,0.4245,0.4242,0.4332,0.4262,0.4409,0.4826,0.4858,0.5049,0.5491,0.5554,0.6458,0.0,0.0,0.0,0.0,0.0,0.0,0.0,0.0,0.0,0.0,0.0,0.0,0.0,0.0,0.0,0.0,0.0,0.0,0.0,0.0,0.0,0.0,0.0,0.0,0.0,0.0,0.4507,0.4802,0.4928,0.5009,0.5064,0.5067,0.5128,0.5274,0.5203,0.5362,0.5731,0.5587,0.5653,0.5904,0.5179,0.4819,0.4904,0.5857,0.5562,0.418,0.274,0.2029,0.2012,0.1902,0.2469,0.3634,0.425,0.4839,0.5332,0.4081,0.4395,0.5626,0.5624,0.5471,0.5272,0.5154,0.5132,0.5118,0.5133,0.5317,0.5518,0.4858,0.4653,0.4855,0.5734,0.6068,0.6067,0.5936,0.5879,0.5865,0.5914,0.5508,0.5179,0.5179,0.4798,0.4473,0.4473,0.4473,0.4473,0.4525,0.4703,0.5087,0.5801,0.5606,0.5404,0.5517,0.5263,0.5005,0.4921,0.4679,0.4495,0.4475,0.4274,0.409,0.4021,0.4,0.4023,0.4071,0.4042,0.4147,0.4519,0.4547,0.4791,0.5303,0.5445,0.6456,0.837,0.0,0.0,0.0,0.0,0.0,0.0,0.0,0.0,0.0,0.0,0.0,0.0,0.0,0.0,0.0,0.0,0.0,0.0,0.0,0.0,0.0,0.0,0.0,0.4217,0.4521,0.4813,0.5108,0.5148,0.5209,0.5362,0.5446,0.5443,0.5593,0.5464,0.5593,0.5864,0.5817,0.589,0.6267,0.4279,0.3124,0.2968,0.5037,0.6096,0.6029,0.1971,-0.0,-0.0,-0.0,-0.0,0.0073,0.1837,0.3644,0.5418,0.541,0.4325,0.2627,0.261,0.2641,0.2567,0.2243,0.2154,0.2153,0.2153,0.232,0.2557,0.2234,0.3142,0.4393,0.4703,0.4642,0.443,0.4411,0.4429,0.4452,0.4426,0.4442,0.4438,0.4438,0.4438,0.4438,0.4438,0.4438,0.4435,0.4425,0.447,0.4519,0.4519,0.4519,0.4416,0.4224,0.42,0.0,0.3836,0.3795,0.3737,0.3602,0.3588,0.3527,0.3333,0.3497,0.3666,0.3777,0.3902,0.4111,0.439,0.438,0.4683,0.5297,0.5691,0.6619,0.8064,0.0,0.0,0.0,0.0,0.0,0.0,0.0,0.0,0.0,0.0,0.0,0.0,0.0,0.0,0.0,0.0,0.0,0.0,0.0,0.0,0.0,0.0,0.4735,0.4735,0.4894,0.5121,0.5426,0.5555,0.5633,0.5677,0.5779,0.5867,0.5918,0.5989,0.5407,0.3984,0.3832,0.4565,0.6218,0.5698,0.3929,0.0862,0.1412,0.1722,0.1711,0.0544,-0.0,-0.0,-0.0,-0.0,-0.0,0.051,0.25,0.537,0.543,0.3585,0.0741,0.0734,0.0732,0.0731,0.066,0.0584,0.0573,0.0573,0.0695,0.0747,0.0617,0.0874,0.1456,0.2602,0.3063,0.316,0.2881,0.2809,0.2811,0.2845,0.2845,0.285,0.285,0.285,0.285,0.285,0.285,0.2847,0.2847,0.3749,0.448,0.4522,0.4525,0.446,0.4409,0.4314,0.4127,0.3982,0.386,0.3778,0.3737,0.3734,0.3714,0.3673,0.3615,0.354,0.3463,0.3378,0.3551,0.3936,0.397,0.439,0.5297,0.5583,0.6363,0.0,0.0,0.0,0.0,0.0,0.0,0.0,0.0,0.0,0.0,0.0,0.0,0.0,0.0,0.0,0.0,0.0,0.0,0.0,0.0,0.0,0.0,0.4935,0.5094,0.5348,0.5348,0.5437,0.5739,0.5847,0.5945,0.6071,0.6093,0.6153,0.624,0.6311,0.5722,0.4542,0.2782,0.2386,0.3593,0.3638,0.2515,-0.0,-0.0,-0.0,-0.0,-0.0,-0.0,-0.0,-0.0,-0.0,-0.0,-0.0,0.1222,0.3164,0.3148,0.189,-0.0,0.0,0.0,0.0,0.0,-0.0,-0.0,-0.0,-0.0,-0.0,-0.0,-0.0,0.0131,0.1028,0.1423,0.1499,0.1328,0.1288,0.1253,0.1296,0.1273,0.1255,0.1255,0.1255,0.1255,0.1255,0.1298,0.1453,0.2066,0.3423,0.0,0.3627,0.4082,0.4484,0.4525,0.4399,0.4267,0.405,0.3941,0.3839,0.3717,0.3704,0.3727,0.3785,0.3717,0.0,0.0,0.0,0.35,0.3689,0.3923,0.0,0.0,0.0,0.636,0.7237,0.7667,0.0,0.0,0.9951,1.0091,0.0,0.0,0.0,0.0,0.0,0.0,0.0,0.0,0.0,0.0,0.0,0.0,0.0,0.0,0.0,0.0,0.5301,0.5416,0.5952,0.582,0.5766,0.6023,0.6071,0.6179,0.6427,0.6401,0.6421,0.6568,0.6378,0.6074,0.5627,0.0,0.0,0.0,0.0,-0.0,-0.0,-0.0,-0.0,-0.0,-0.0,-0.0,-0.0,-0.0,-0.0,-0.0,-0.0,-0.0,-0.0,-0.0,-0.0,-0.0,-0.0,-0.0,-0.0,-0.0,-0.0,-0.0,-0.0,0.0,0.0,-0.0,-0.0,-0.0,-0.0,-0.0,-0.0,-0.0,-0.0,-0.0,-0.0,-0.0,-0.0,-0.0,-0.0,-0.0,-0.0,-0.0,0.0392,0.168,0.3037,0.3607,0.2402,0.319,0.4095,0.4307,0.4421,0.4375,0.4083,0.4029,0.3921,0.3656,0.3612,0.0,0.3782,0.3792,0.3785,0.3768,0.3768,0.371,0.3585,0.4049,0.4609,0.5173,0.5787,0.6361,0.6947,0.757,0.8073,0.8445,0.8611,0.8758,0.0,0.0,0.0,0.0,0.0,0.0,0.0,0.0,0.0,0.0,0.0,0.0,0.0,0.0,0.0,0.5508,0.5718,0.5895,0.6013,0.6095,0.6162,0.621,0.6254,0.6307,0.6322,0.652,0.6558,0.6373,0.6314,0.4785,0.1424,0.0474,-0.0,-0.0,-0.0,-0.0,-0.0,-0.0,-0.0,-0.0,0.0,0.0,-0.0,-0.0,-0.0,-0.0,-0.0,-0.0,-0.0,-0.0,-0.0,-0.0,-0.0,-0.0,-0.0,-0.0,-0.0,-0.0,-0.0,-0.0,-0.0,-0.0,-0.0,-0.0,-0.0,-0.0,0.0,-0.0,-0.0,-0.0,-0.0,-0.0,-0.0,-0.0,-0.0,-0.0,-0.0,-0.0,0.0112,0.0392,0.0673,0.1178,0.202,0.1455,0.1395,0.3065,0.3965,0.4412,0.4174,0.4043,0.3999,0.3941,0.3826,0.3761,0.3788,0.3792,0.3741,0.3629,0.3622,0.3609,0.3581,0.3707,0.4008,0.4561,0.5173,0.5881,0.6663,0.727,0.7747,0.8023,0.8502,0.9003,0.0,0.0,0.0,0.0,0.0,0.0,0.0,0.0,0.0,0.0,0.0,0.4719,0.0,0.0,0.5525,0.5888,0.5915,0.6009,0.6321,0.6344,0.6318,0.6311,0.6311,0.5857,0.4778,0.5782,0.6592,0.6687,0.4489,0.2227,0.0079,-0.0,-0.0,-0.0,-0.0,-0.0,-0.0,-0.0,-0.0,-0.0,-0.0,-0.0,-0.0,-0.0,-0.0,-0.0,-0.0,-0.0,-0.0,-0.0,-0.0,-0.0,-0.0,-0.0,-0.0,-0.0,-0.0,-0.0,-0.0,-0.0,-0.0,-0.0,-0.0,-0.0,-0.0,-0.0,-0.0,-0.0,-0.0,-0.0,-0.0,-0.0,-0.0,-0.0,-0.0,-0.0,-0.0,-0.0,-0.0,-0.0,-0.0,0.0224,0.0954,0.0504,0.0614,0.2341,0.3691,0.4429,0.4217,0.4063,0.3988,0.3914,0.3775,0.3714,0.3785,0.3792,0.3731,0.3588,0.3581,0.3581,0.3581,0.3581,0.3836,0.4387,0.5,0.5727,0.6606,0.7347,0.7776,0.7888,0.8366,0.8626,0.0,0.0,0.0,0.0,0.0,0.0,0.0,0.0,0.3786,0.424,0.425,0.4176,0.4346,0.4624,0.504,0.5556,0.5536,0.5372,0.5434,0.5202,0.5112,0.5114,0.5781,0.5639,0.3882,0.3771,0.4392,0.5597,0.218,-0.0,-0.0,-0.0,-0.0,-0.0,-0.0,-0.0,-0.0,-0.0,-0.0,-0.0,-0.0,-0.0,-0.0,-0.0,-0.0,-0.0,-0.0,-0.0,-0.0,-0.0,-0.0,-0.0,-0.0,-0.0,-0.0,-0.0,-0.0,-0.0,-0.0,-0.0,-0.0,-0.0,-0.0,-0.0,-0.0,-0.0,-0.0,-0.0,-0.0,-0.0,-0.0,-0.0,-0.0,-0.0,-0.0,-0.0,-0.0,-0.0,-0.0,-0.0,-0.0,-0.0,-0.0,-0.0,0.0504,0.1953,0.3527,0.4436,0.4217,0.409,0.3992,0.3812,0.369,0.3656,0.3744,0.3751,0.37,0.3588,0.3581,0.3581,0.3581,0.3581,0.3836,0.4387,0.5,0.5727,0.6606,0.7495,0.7915,0.8023,0.8323,0.8297,-0.4251,-0.4209,-0.3866,-0.2578,-0.0975,0.0187,0.0,0.0,0.0888,0.2232,0.2707,0.28,0.2571,0.2779,0.3133,0.3421,0.3714,0.313,0.1029,0.0707,0.0711,0.0723,0.4037,0.6207,0.5991,-0.0642,-0.331,0.0474,0.0315,-0.0,-0.0,-0.0,-0.0,-0.0,-0.0,-0.0,-0.0,-0.0,-0.0,-0.0,-0.0,-0.0,-0.0,-0.0,-0.0,-0.0,-0.0,-0.0,-0.0,-0.0,-0.0,-0.0,-0.0,-0.0,-0.0,-0.0,-0.0,-0.0,-0.0,-0.0,-0.0,-0.0,-0.0,-0.0,-0.0,-0.0,-0.0,-0.0,-0.0,-0.0,-0.0,-0.0,-0.0,-0.0,-0.0,-0.0,-0.0,-0.0,-0.0,-0.0,-0.0,-0.0,-0.0,-0.0,0.0504,0.1953,0.3527,0.4436,0.4217,0.418,0.406,0.3822,0.3778,0.3724,0.3612,0.3602,0.3598,0.3581,0.3581,0.3581,0.3581,0.3581,0.3836,0.4387,0.5,0.5727,0.6606,0.7495,0.807,0.8337,0.8624,0.8604,-0.4629,-0.467,0.0,0.0,-0.4172,-0.3684,-0.2703,-0.2425,-0.218,-0.1574,-0.0085,0.1117,0.0945,-0.0942,-0.246,0.0,-0.1164,-0.0664,-0.1628,-0.2731,-0.3328,-0.3191,-0.1723,-0.0316,0.0717,-0.2386,-0.4205,-0.3688,-0.1409,-0.0,-0.0,-0.0,-0.0,-0.0,-0.0,-0.0,-0.0,-0.0,-0.0,-0.0,-0.0,-0.0,-0.0,-0.0,-0.0,-0.0,-0.0,-0.0,-0.0,-0.0,-0.0,-0.0,-0.0,-0.0,-0.0,-0.0,-0.0,-0.0,-0.0,-0.0,-0.0,-0.0,-0.0,-0.0,-0.0,-0.0,-0.0,-0.0,-0.0,-0.0,-0.0,-0.0,-0.0,-0.0,-0.0,-0.0,-0.0,-0.0,-0.0,-0.0,-0.0,-0.0,-0.0,-0.0,0.0784,0.3195,0.4104,0.4477,0.4395,0.4257,0.412,0.3948,0.3924,0.39,0.3839,0.3754,0.3741,0.3829,0.3676,0.3615,0.37,0.3704,0.3927,0.4391,0.5079,0.5821,0.6606,0.7495,0.8083,0.8383,0.8671,0.8744,-0.5042,0.0,0.0,-0.5709,-0.628,-0.6404,-0.5112,-0.5024,-0.5087,-0.4975,-0.335,-0.1707,-0.0888,-0.3213,-0.5524,-0.616,-0.4956,-0.3942,-0.3914,-0.4962,-0.5684,-0.5445,-0.5609,-0.5223,-0.3878,-0.3876,-0.4585,-0.621,-0.3444,-0.1486,-0.086,-0.0314,-0.0,-0.0,-0.0,-0.0,-0.0,-0.0,-0.0,-0.0,-0.0,-0.0,-0.0,-0.0,-0.0,-0.0,-0.0,-0.0,-0.0,-0.0,-0.0,-0.0,-0.0,-0.0,-0.0,-0.0,-0.0,-0.0,-0.0,-0.0,-0.0,-0.0,-0.0,-0.0,-0.0,-0.0,-0.0,-0.0,-0.0,-0.0,-0.0,-0.0,-0.0,-0.0,-0.0,-0.0,-0.0,-0.0,-0.0,-0.0,-0.0,-0.0,-0.0,-0.0,0.0728,0.2921,0.3943,0.4376,0.4146,0.4124,0.4117,0.404,0.4043,0.4019,0.4019,0.3917,0.39,0.4012,0.3819,0.3748,0.3849,0.3856,0.408,0.4546,0.5283,0.5965,0.666,0.7487,0.8083,0.8427,0.8591,0.8731,0.0,0.0,-0.546,-0.5898,-0.6359,-0.6864,-0.6994,-0.7492,-0.7823,-0.754,-0.7137,-0.6028,-0.3143,-0.2758,-0.3546,-0.5943,-0.6247,-0.6109,-0.5937,-0.5795,-0.5646,-0.5623,-0.5474,-0.5443,0.0,-0.5735,-0.6043,-0.6281,-0.6203,-0.5168,-0.3124,-0.1094,-0.0,-0.0,-0.0,-0.0,-0.0,-0.0,-0.0,-0.0,-0.0,-0.0,-0.0,-0.0,-0.0,-0.0,-0.0,-0.0,-0.0,-0.0,-0.0,-0.0,-0.0,-0.0,-0.0,-0.0,-0.0,-0.0,-0.0,-0.0,-0.0,-0.0,-0.0,-0.0,-0.0,-0.0,-0.0,-0.0,-0.0,-0.0,-0.0,-0.0,-0.0,-0.0,-0.0,-0.0,-0.0,-0.0,-0.0,-0.0,-0.0,-0.0,-0.0,-0.0,0.0056,0.0112,0.2639,0.4171,0.3151,0.3604,0.4033,0.4174,0.4056,0.4019,0.4019,0.4016,0.4016,0.4019,0.4012,0.4009,0.4012,0.4012,0.4257,0.489,0.5624,0.6251,0.6817,0.7522,0.8083,0.8427,0.8383,0.8537,0.0,0.0,-0.6088,-0.663,-0.7037,-0.738,-0.7678,-0.7756,-0.7801,-0.7506,-0.7108,-0.6408,-0.5294,-0.4647,-0.4846,-0.6565,-0.627,-0.606,-0.6672,-0.6115,-0.5576,-0.5315,-0.5332,0.0,0.0,0.0,0.0,-0.6101,-0.6204,-0.6013,-0.5243,-0.4555,-0.2904,-0.0078,-0.0,-0.0,-0.0,-0.0,-0.0,-0.0,-0.0,-0.0,-0.0,-0.0,-0.0,-0.0,-0.0,-0.0,-0.0,-0.0,-0.0,-0.0,-0.0,-0.0,-0.0,-0.0,-0.0,-0.0,-0.0,-0.0,-0.0,-0.0,-0.0,-0.0,-0.0,-0.0,-0.0,-0.0,-0.0,-0.0,-0.0,-0.0,-0.0,-0.0,-0.0,-0.0,-0.0,-0.0,-0.0,-0.0,-0.0,-0.0,-0.0,0.1685,0.2983,0.2979,0.2972,0.3231,0.3911,0.4186,0.4334,0.4385,0.426,0.4209,0.4304,0.4039,0.3995,0.4294,0.4033,0.3961,0.411,0.412,0.4375,0.4907,0.5717,0.6355,0.6781,0.7768,0.8277,0.8427,0.8571,0.8711,-0.6249,-0.6342,-0.6692,-0.7183,-0.7533,-0.779,-0.7926,-0.7841,-0.7621,-0.7217,-0.6827,-0.6486,-0.6332,-0.5709,-0.5629,-0.695,-0.6453,-0.6137,-0.6773,-0.6256,-0.5634,-0.523,-0.525,-0.5284,0.0,0.0,0.0,-0.5928,-0.6136,-0.6298,-0.6186,-0.6268,-0.4714,-0.1251,-0.0392,-0.0,-0.0,-0.0,-0.0,-0.0,-0.0,-0.0,-0.0,-0.0,-0.0,-0.0,-0.0,-0.0,-0.0,-0.0,-0.0,-0.0,-0.0,-0.0,-0.0,-0.0,-0.0,-0.0,-0.0,-0.0,-0.0,-0.0,-0.0,-0.0,-0.0,-0.0,-0.0,-0.0,-0.0,-0.0,-0.0,-0.0,-0.0,-0.0,-0.0,-0.0,-0.0,-0.0,-0.0,-0.0,-0.0,0.0336,0.1403,0.321,0.4518,0.4504,0.3638,0.3405,0.4366,0.4525,0.4498,0.4392,0.4304,0.421,0.43,0.409,0.4077,0.4368,0.4161,0.4121,0.4317,0.4324,0.4435,0.4746,0.5779,0.6447,0.6706,0.786,0.843,0.853,0.8611,0.8711,-0.7096,-0.721,-0.7238,-0.7546,-0.7828,-0.7984,-0.7824,-0.7665,-0.7383,-0.686,-0.6493,-0.6318,0.0,0.0,-0.5814,-0.7102,-0.6776,-0.6379,-0.6452,-0.6322,-0.5969,0.0,0.0,0.0,0.0,0.0,0.0,-0.5793,0.0,-0.6186,-0.6051,-0.619,-0.5404,-0.3357,-0.1171,-0.0,-0.0,-0.0,-0.0,-0.0,-0.0,-0.0,-0.0,-0.0,-0.0,-0.0,-0.0,-0.0,-0.0,-0.0,-0.0,-0.0,-0.0,-0.0,-0.0,-0.0,-0.0,-0.0,-0.0,-0.0,-0.0,-0.0,-0.0,-0.0,-0.0,-0.0,-0.0,-0.0,-0.0,-0.0,-0.0,-0.0,-0.0,-0.0,-0.0,-0.0,-0.0,-0.0,-0.0,-0.0,0.0112,0.1122,0.4011,0.4521,0.4504,0.4484,0.448,0.4477,0.4477,0.4525,0.4409,0.422,0.42,0.414,0.4053,0.411,0.419,0.4207,0.4379,0.4508,0.457,0.457,0.457,0.4625,0.5932,0.6642,0.6642,0.7844,0.8537,0.8798,0.8524,0.8544,-0.7026,-0.7197,-0.7553,-0.7851,-0.7899,-0.7801,-0.7543,-0.7197,-0.6923,-0.6829,-0.6538,-0.6335,0.0,0.0,0.0,-0.7794,-0.689,0.0,-0.7251,-0.6414,0.0,-0.5597,0.0,-0.562,-0.5593,-0.5789,0.0,0.0,-0.5979,-0.6122,-0.62,-0.6251,-0.6038,-0.5482,-0.192,-0.0,-0.0,-0.0,-0.0,-0.0,-0.0,-0.0,-0.0,-0.0,-0.0,-0.0,-0.0,-0.0,-0.0,-0.0,-0.0,-0.0,-0.0,-0.0,-0.0,-0.0,-0.0,-0.0,-0.0,-0.0,-0.0,-0.0,-0.0,-0.0,-0.0,-0.0,-0.0,-0.0,-0.0,-0.0,-0.0,-0.0,-0.0,-0.0,-0.0,-0.0,-0.0,-0.0,-0.0,-0.0,0.1826,0.3602,0.4347,0.4501,0.4487,0.448,0.4473,0.4522,0.4522,0.4519,0.4501,0.4412,0.4311,0.422,0.4345,0.4182,0.4172,0.4395,0.4341,0.4563,0.5214,0.5218,0.5492,0.6046,0.6966,0.7402,0.7402,0.8305,0.8738,0.8804,0.8731,0.8738,-0.7204,-0.7502,-0.7831,-0.7997,-0.8164,-0.8179,-0.7348,-0.741,-0.7447,-0.6575,-0.654,0.0,0.0,0.0,0.0,0.0,0.0,0.0,-0.7335,-0.6588,-0.5874,0.0,-0.5813,0.0,-0.5884,-0.6034,-0.6095,0.0,-0.6081,-0.6139,-0.6159,-0.623,-0.6274,-0.6278,-0.4017,-0.1908,-0.0,-0.0,-0.0,-0.0,-0.0,-0.0,-0.0,-0.0,-0.0,-0.0,-0.0,-0.0,-0.0,-0.0,-0.0,-0.0,-0.0,-0.0,-0.0,-0.0,-0.0,-0.0,-0.0,-0.0,-0.0,-0.0,-0.0,-0.0,-0.0,-0.0,-0.0,-0.0,-0.0,-0.0,-0.0,-0.0,-0.0,-0.0,-0.0,0.0369,0.17,0.197,0.1759,0.1096,0.2324,0.3705,0.4386,0.4487,0.4477,0.4473,0.4522,0.4519,0.4519,0.4519,0.4491,0.4375,0.4244,0.42,0.4267,0.4178,0.4192,0.4358,0.4351,0.4696,0.5483,0.5487,0.5873,0.6588,0.7343,0.7723,0.7723,0.8427,0.8804,0.8804,0.8804,0.8804,-0.755,-0.7828,-0.8035,-0.8014,-0.8516,-0.856,-0.7279,-0.7857,-0.8118,-0.6358,0.0,-0.7167,-0.7413,-0.7043,-0.717,-0.8573,0.0,-0.6857,-0.7111,-0.6718,-0.63,-0.5868,-0.5966,-0.6112,-0.6247,-0.6338,-0.6338,-0.6338,-0.6338,-0.6203,-0.6067,-0.6186,-0.6325,-0.63,-0.6012,-0.4006,-0.0075,-0.0,-0.0,-0.0,-0.0,-0.0,-0.0,-0.0,-0.0,-0.0,-0.0,-0.0,-0.0,-0.0,-0.0,-0.0,-0.0,-0.0,-0.0,-0.0,-0.0,-0.0,-0.0,-0.0,-0.0,-0.0,-0.0,-0.0,-0.0,-0.0,-0.0,-0.0,-0.0,-0.0,-0.0,0.0314,0.0618,0.0574,0.044,0.098,0.3657,0.434,0.4097,0.2755,0.2512,0.2903,0.4252,0.448,0.4477,0.4519,0.4519,0.4519,0.4519,0.4519,0.4412,0.4237,0.4224,0.417,0.409,0.4147,0.4224,0.4224,0.4392,0.4787,0.5487,0.5487,0.5869,0.675,0.7396,0.7723,0.783,0.848,0.8804,0.8804,0.8804,0.8804,-0.7729,-0.7902,-0.8011,-0.7882,-0.7986,-0.8021,-0.7342,-0.7267,0.0,0.0,0.0,-0.7448,-0.8094,-0.8324,0.0,-0.8732,0.0,0.0,0.0,0.0,-0.6483,0.0,0.0,0.0,0.0,0.0,0.0,0.0,-0.6338,-0.6247,-0.622,-0.6247,-0.6315,-0.6313,-0.4595,-0.2454,-0.0,-0.0,-0.0,-0.0,-0.0,-0.0,-0.0,-0.0,-0.0,-0.0,-0.0,0.0,-0.0,-0.0,-0.0,-0.0,-0.0,-0.0,-0.0,-0.0,-0.0,-0.0,-0.0,-0.0,-0.0,-0.0,-0.0,-0.0,-0.0,-0.0,-0.0,-0.0,-0.0,-0.0,-0.0,0.1825,0.3724,0.3717,0.2724,0.1965,0.2505,0.3597,0.4445,0.4179,0.4095,0.4206,0.448,0.448,0.4477,0.4519,0.4519,0.4519,0.4519,0.4519,0.4508,0.4429,0.4426,0.4416,0.4443,0.4409,0.4426,0.4426,0.4501,0.4787,0.5487,0.5487,0.614,0.7509,0.7616,0.7996,0.8593,0.8752,0.8804,0.8804,0.8804,0.8804,-0.7773,-0.8405,-0.8958,-0.8607,-0.9101,-0.9337,-0.8151,0.0,0.0,0.0,0.0,-0.7694,-0.7882,0.0,0.0,0.0,0.0,0.0,0.0,0.0,0.0,0.0,0.0,0.0,0.0,0.0,0.0,0.0,-0.6338,-0.6338,-0.6338,-0.6338,-0.6283,-0.6321,-0.4237,-0.2077,-0.0,-0.0,-0.0,-0.0,-0.0,-0.0,-0.0,-0.0,-0.0,-0.0,-0.0,-0.0,-0.0,-0.0,-0.0,-0.0,-0.0,-0.0,-0.0,-0.0,-0.0,-0.0,-0.0,-0.0,-0.0,-0.0,-0.0,-0.0,-0.0,-0.0,0.0372,0.2306,0.1438,0.0365,0.1944,0.3406,0.4508,0.4513,0.392,0.3416,0.353,0.4163,0.4636,0.468,0.4602,0.4399,0.3808,0.4132,0.4525,0.4519,0.4519,0.4519,0.4519,0.4519,0.4519,0.4519,0.4519,0.4519,0.4519,0.4519,0.4519,0.4519,0.4519,0.4787,0.5487,0.5487,0.6032,0.7128,0.7503,0.7883,0.8209,0.8593,0.8804,0.8804,0.8804,0.8804,-0.7672,-0.8594,-0.932,-0.882,-0.9533,-0.9978,-0.8523,-0.8443,0.0,0.0,-0.7433,-0.7756,-0.756,0.0,0.0,0.0,0.0,0.0,0.0,0.0,0.0,0.0,0.0,0.0,0.0,0.0,0.0,0.0,-0.6338,-0.6338,-0.6338,-0.6338,-0.6331,-0.6321,-0.4197,-0.2088,-0.0,-0.0,-0.0,-0.0,-0.0,-0.0,-0.0,-0.0,-0.0,-0.0,-0.0,-0.0,-0.0,-0.0,-0.0,-0.0,-0.0,-0.0,-0.0,-0.0,-0.0,-0.0,-0.0,-0.0,-0.0,-0.0,-0.0,0.013,0.0796,0.0946,0.161,0.4562,0.3326,0.166,0.3916,0.4247,0.4099,0.4439,0.4516,0.4562,0.4697,0.4769,0.4807,0.4714,0.4701,0.4365,0.3452,0.3978,0.4522,0.4519,0.4519,0.4519,0.4519,0.4519,0.4519,0.4519,0.4519,0.4519,0.4519,0.4519,0.4519,0.4519,0.4519,0.4732,0.5273,0.5269,0.5601,0.6367,0.7074,0.7557,0.7723,0.8427,0.8804,0.8804,0.8804,0.8804,-0.7336,-0.7616,-0.7785,-0.7615,-0.7556,-0.7492,-0.7382,0.0,0.0,-0.7387,-0.7508,-0.7547,-0.7513,-0.7722,0.0,0.0,0.0,0.0,0.0,0.0,0.0,0.0,0.0,0.0,0.0,0.0,0.0,-0.6338,-0.6338,-0.6338,-0.6338,-0.6338,-0.628,-0.6307,-0.4234,-0.2087,-0.0,-0.0,-0.0,-0.0,-0.0,-0.0,-0.0,-0.0,-0.0,-0.0,-0.0,-0.0,0.0,-0.0,-0.0,-0.0,-0.0,-0.0,-0.0,-0.0,-0.0,-0.0,-0.0,-0.0,-0.0,-0.0,-0.0,0.0517,0.3245,0.4111,0.4293,0.5135,0.5136,0.4831,0.4598,0.3438,0.2747,0.4141,0.4592,0.4636,0.4567,0.4653,0.475,0.4552,0.4536,0.4474,0.4391,0.4452,0.4473,0.4519,0.4519,0.4519,0.4519,0.4519,0.4519,0.4519,0.4519,0.4519,0.4519,0.4519,0.4519,0.4519,0.4519,0.4515,0.457,0.457,0.4893,0.5597,0.6308,0.702,0.7723,0.8427,0.8804,0.8804,0.8804,0.8804,-0.6861,-0.7827,-0.8485,-0.8124,-0.8159,-0.8246,-0.8135,0.0,0.0,-0.7386,-0.7321,-0.7201,-0.7201,-0.7448,-0.7649,0.0,0.0,0.0,0.0,0.0,0.0,0.0,0.0,0.0,0.0,0.0,0.0,-0.6338,-0.6338,-0.6338,-0.6338,-0.6338,-0.6318,-0.6276,-0.5495,-0.3383,-0.0,-0.0,-0.0,-0.0,-0.0,-0.0,-0.0,-0.0,-0.0,-0.0,-0.0,-0.0,0.0,-0.0,-0.0,-0.0,-0.0,-0.0,-0.0,-0.0,-0.0,-0.0,-0.0,-0.0,-0.0,-0.0,0.1218,0.2956,0.4145,0.4474,0.4586,0.4948,0.4603,0.4095,0.3857,0.3695,0.3724,0.433,0.4567,0.4562,0.4592,0.4772,0.4575,0.3602,0.4118,0.4667,0.4552,0.4518,0.4522,0.4519,0.4519,0.4519,0.4519,0.4519,0.4519,0.4519,0.4519,0.4519,0.4519,0.4519,0.4519,0.4519,0.4519,0.4519,0.4519,0.4519,0.4625,0.4893,0.6041,0.675,0.702,0.8209,0.8804,0.8804,0.8804,0.8804,-0.6251,-0.7316,-0.8187,-0.7777,-0.7795,-0.7869,0.0,0.0,-0.6556,-0.7039,-0.7039,-0.6937,-0.681,-0.7108,-0.7291,0.0,0.0,0.0,0.0,0.0,0.0,0.0,0.0,0.0,0.0,0.0,-0.6338,-0.6338,-0.6338,-0.624,-0.6196,-0.6193,-0.6224,-0.6288,-0.5666,-0.4264,-0.1895,-0.064,-0.0,-0.0,-0.0,-0.0,-0.0,-0.0,-0.0,-0.0,-0.0,-0.0,0.0,-0.0,-0.0,-0.0,-0.0,-0.0,-0.0,-0.0,-0.0,-0.0,-0.0,-0.0,-0.0,-0.0,0.2013,0.4526,0.4502,0.45,0.4545,0.4686,0.4194,0.3627,0.367,0.4089,0.4488,0.449,0.4553,0.4558,0.4667,0.4847,0.4645,0.3635,0.4206,0.48,0.4602,0.4535,0.4519,0.4519,0.4519,0.4519,0.4519,0.4519,0.4519,0.4519,0.4519,0.4519,0.4519,0.4519,0.4519,0.4519,0.4519,0.4519,0.4519,0.4519,0.457,0.4787,0.5987,0.6696,0.6912,0.8209,0.8804,0.8804,0.8804,0.8804,-0.5477,-0.5817,-0.6044,-0.604,-0.5586,-0.5206,0.0,0.0,-0.5626,-0.6108,-0.6647,-0.6852,-0.6307,-0.6647,-0.6816,-0.6313,0.0,0.0,0.0,0.0,0.0,0.0,0.0,0.0,0.0,0.0,-0.6338,-0.6338,-0.6338,0.0,-0.604,-0.603,-0.6108,-0.6271,-0.4206,-0.4112,-0.6248,-0.2063,-0.0,-0.0,-0.0,-0.0,-0.0,-0.0,-0.0,-0.0,-0.0,-0.0,0.0,-0.0,-0.0,-0.0,-0.0,-0.0,-0.0,-0.0,-0.0,-0.0,-0.0,-0.0,-0.0,-0.0,0.2021,0.4518,0.4518,0.4514,0.4511,0.4504,0.449,0.4462,0.4493,0.4472,0.4519,0.4519,0.4579,0.4687,0.4691,0.4928,0.5081,0.5078,0.4905,0.4809,0.4806,0.4612,0.4519,0.4519,0.4519,0.4519,0.4519,0.4519,0.4519,0.4519,0.4519,0.4519,0.4519,0.4519,0.4519,0.4519,0.4519,0.4519,0.4519,0.4519,0.4787,0.5487,0.6204,0.6966,0.767,0.8427,0.8804,0.8804,0.8804,0.8804,-0.4518,-0.4996,-0.5413,-0.5413,-0.5121,-0.491,-0.5135,-0.5076,-0.5079,-0.5484,-0.5739,-0.5776,-0.561,-0.5733,-0.5776,-0.561,-0.532,0.0,0.0,0.0,0.0,0.0,0.0,0.0,0.0,0.0,-0.6217,-0.6112,-0.6101,-0.6037,-0.5881,-0.5874,-0.5985,-0.6293,-0.4217,-0.2716,-0.1991,-0.3115,-0.2456,-0.0,-0.0,-0.0,-0.0,-0.0,-0.0,-0.0,-0.0,-0.0,-0.0,-0.0,-0.0,-0.0,-0.0,-0.0,-0.0,-0.0,-0.0,-0.0,-0.0,-0.0,-0.0,-0.0,0.0673,0.1682,0.3039,0.3479,0.3635,0.4314,0.4484,0.449,0.4482,0.4507,0.4519,0.4519,0.4556,0.4562,0.4667,0.485,0.4962,0.4927,0.4891,0.48,0.4599,0.4535,0.4519,0.4519,0.4519,0.4519,0.4519,0.4519,0.4519,0.4519,0.4519,0.4519,0.4519,0.4519,0.4519,0.4519,0.4519,0.468,0.5164,0.5164,0.5546,0.6258,0.6966,0.745,0.7723,0.8427,0.8804,0.8804,0.8804,0.8804,0.0,-0.4247,-0.466,-0.4666,-0.4572,0.0,0.0,-0.459,-0.4668,-0.4893,-0.513,-0.5221,-0.5,-0.513,-0.5216,-0.5,-0.4652,0.0,0.0,0.0,0.0,0.0,0.0,0.0,0.0,-0.6193,-0.6196,-0.604,-0.603,-0.5939,-0.5732,-0.5722,-0.5782,-0.5965,-0.4323,-0.2611,-0.1051,-0.3239,-0.3603,-0.2018,-0.134,-0.1005,-0.1008,-0.0336,-0.0,-0.0,-0.0,-0.0,0.0,-0.0,-0.0,-0.0,-0.0,-0.0,-0.0,-0.0,-0.0,-0.0,-0.0,-0.0,-0.0,-0.0,-0.0,0.0224,0.1514,0.2687,0.3469,0.2959,0.3633,0.448,0.448,0.4525,0.4519,0.4519,0.4519,0.456,0.4657,0.4809,0.4894,0.4865,0.4901,0.4904,0.4609,0.4555,0.4584,0.4525,0.4519,0.4519,0.4519,0.4519,0.4519,0.4519,0.4519,0.4519,0.4519,0.4519,0.4519,0.4519,0.4519,0.4677,0.5109,0.5378,0.5873,0.6588,0.7343,0.783,0.8103,0.8586,0.8804,0.8804,0.8804,0.8804,0.0,0.0,0.0,0.0,0.0,0.0,0.0,-0.4032,0.0,-0.431,-0.4751,-0.4976,-0.4413,-0.4774,-0.5005,-0.4434,0.0,0.0,0.0,0.0,0.0,0.0,0.0,0.0,-0.5789,-0.6064,-0.6176,-0.601,-0.5996,-0.5874,-0.5589,-0.5576,-0.5515,-0.5382,-0.4496,-0.363,-0.2922,-0.2922,-0.3712,-0.5312,-0.3678,-0.2867,-0.2795,-0.1131,-0.0263,0.0,-0.0064,-0.0,-0.0,-0.0,-0.0,-0.0,-0.0,-0.0,-0.0,-0.0,-0.0,-0.0,-0.0,-0.0,-0.0,-0.0,-0.0,-0.0,-0.0,0.1959,0.3599,0.0894,0.2174,0.4366,0.448,0.4525,0.4519,0.4519,0.4519,0.456,0.4657,0.4809,0.4914,0.4904,0.5016,0.5026,0.4741,0.468,0.4629,0.4553,0.4525,0.4519,0.4519,0.4519,0.4519,0.4519,0.4519,0.4519,0.4519,0.4519,0.4519,0.4519,0.4519,0.4515,0.457,0.5164,0.5869,0.6642,0.7396,0.8103,0.8804,0.8804,0.8804,0.8804,0.8804,0.8804,-0.1507,0.0,-0.3217,-0.3299,-0.3331,0.0,0.0,0.0,0.0,0.0,0.0,0.0,0.0,0.0,0.0,0.0,0.0,0.0,0.0,0.0,0.0,0.0,0.0,0.0,-0.5661,-0.5908,-0.5976,-0.5711,-0.5694,-0.561,-0.5423,-0.5416,-0.5399,-0.5432,-0.5048,-0.4803,-0.4757,-0.4748,-0.4821,-0.5032,-0.4684,-0.4498,-0.4353,-0.3969,-0.3007,-0.1614,-0.0497,-0.0,-0.0,-0.0,-0.0,-0.0,-0.0,-0.0,-0.0,-0.0,-0.0,-0.0,-0.0,-0.0,-0.0,-0.0,-0.0,-0.0,-0.0,0.0504,0.112,0.1563,0.2174,0.3016,0.4206,0.4477,0.4519,0.4473,0.4525,0.456,0.4657,0.4809,0.4884,0.4765,0.4867,0.4911,0.4721,0.4596,0.4545,0.4623,0.4594,0.4519,0.4519,0.4519,0.4519,0.4519,0.4519,0.4519,0.4519,0.4519,0.4519,0.4519,0.4519,0.4732,0.5218,0.5433,0.614,0.7402,0.8156,0.8646,0.8804,0.8804,0.8804,0.8804,0.8804,0.8804,-0.0581,-0.1774,-0.2863,-0.2913,-0.2992,-0.3127,0.0,0.0,0.0,0.0,0.0,0.0,0.0,0.0,0.0,0.0,0.0,0.0,0.0,0.0,0.0,0.0,0.0,-0.5731,0.0,-0.584,-0.5765,-0.5606,-0.5589,-0.5521,-0.5435,-0.5428,-0.5328,-0.5257,-0.5176,-0.5176,-0.5274,-0.5203,-0.5068,-0.4869,-0.4984,-0.4944,-0.4877,-0.488,-0.4345,-0.337,-0.2472,-0.1255,-0.0,-0.0,-0.0,-0.0,-0.0,-0.0,-0.0,-0.0,-0.0,-0.0,-0.0,-0.0,-0.0,-0.0,-0.0,-0.0,-0.0,-0.0,0.0168,0.095,0.1173,0.173,0.3925,0.4141,0.3901,0.4411,0.4522,0.4539,0.4568,0.4707,0.4769,0.4616,0.4819,0.4925,0.4636,0.4633,0.4677,0.4687,0.4562,0.4543,0.4558,0.4563,0.4519,0.4519,0.4519,0.4519,0.4519,0.4519,0.4519,0.4519,0.4519,0.468,0.5003,0.5324,0.6195,0.767,0.8427,0.8804,0.8804,0.8804,0.8804,0.8804,0.8804,0.8804,-0.0271,-0.135,-0.2493,-0.2475,-0.2653,-0.286,0.0,0.0,0.0,0.0,0.0,0.0,0.0,0.0,0.0,0.0,0.0,0.0,0.0,0.0,0.0,0.0,0.0,0.0,-0.5534,-0.558,-0.5604,-0.5501,-0.5488,-0.543,-0.5301,-0.5294,-0.5233,-0.5101,-0.5077,-0.5064,-0.5064,-0.4965,-0.4908,-0.4884,-0.4884,-0.487,-0.485,-0.4797,-0.4733,-0.4731,-0.4574,0.0,-0.0336,-0.0116,-0.0,-0.0,-0.0,-0.0,-0.0,-0.0,-0.0,-0.0,-0.0,-0.0,-0.0,-0.0,-0.0,-0.0,-0.0,-0.0,-0.0,-0.0,-0.0,0.0614,0.3137,0.3522,0.3456,0.4298,0.4519,0.4519,0.4519,0.4582,0.4646,0.4546,0.4789,0.4942,0.4562,0.4711,0.484,0.4711,0.4579,0.4535,0.4643,0.4545,0.4519,0.4519,0.4519,0.4519,0.4519,0.4519,0.4519,0.4519,0.4519,0.4519,0.4519,0.5273,0.6253,0.7503,0.8374,0.8804,0.8804,0.8804,0.8804,0.8804,0.8804,0.8804,-0.1455,-0.1535,-0.1521,-0.1509,-0.1535,-0.1841,0.0,0.0,0.0,0.0,0.0,0.0,0.0,0.0,0.0,0.0,0.0,0.0,0.0,0.0,0.0,0.0,0.0,-0.5039,-0.3619,-0.4683,-0.5318,-0.5043,-0.5023,-0.5009,-0.4989,-0.4986,-0.4975,-0.4952,-0.4826,-0.4758,-0.4758,-0.4863,-0.4853,-0.4724,-0.4724,-0.4657,-0.4587,-0.4535,-0.4521,-0.4556,0.0,-0.3482,-0.1789,-0.0521,-0.0,-0.0,-0.0,-0.0,-0.0,-0.0,-0.0,-0.0,-0.0,-0.0,-0.0,-0.0,-0.0,-0.0,-0.0,-0.0,-0.0,-0.0,-0.0,0.0112,0.056,0.246,0.4311,0.4487,0.4477,0.4519,0.4519,0.4582,0.4646,0.4546,0.4623,0.4735,0.4667,0.4694,0.4718,0.4694,0.467,0.4616,0.4567,0.4532,0.4519,0.4519,0.4519,0.4519,0.4519,0.4519,0.4519,0.4519,0.4519,0.4519,0.4519,0.5769,0.6534,0.675,0.8103,0.8804,0.8804,0.8804,0.8804,0.8804,0.8804,0.8804,-0.2944,-0.2625,-0.2244,-0.2098,-0.1807,-0.1709,0.0,0.0,0.0,0.0,0.0,0.0,0.0,0.0,0.0,0.0,0.0,0.0,0.0,0.0,0.0,0.0,0.0,-0.3854,-0.4014,-0.4672,-0.5008,-0.4928,-0.4918,-0.4918,-0.4918,-0.4918,-0.488,-0.4799,-0.4728,-0.465,-0.4568,-0.4636,-0.4636,-0.4568,-0.4568,-0.4587,-0.4519,-0.4519,-0.4519,-0.4519,0.0,-0.4082,-0.3299,-0.1815,-0.0743,-0.0172,-0.1807,-0.2445,-0.2354,-0.1488,-0.119,-0.1062,-0.028,-0.0,-0.0,-0.0,-0.0,-0.0,-0.0,-0.0,-0.0,-0.0,-0.0,0.0168,0.1006,0.2233,0.3463,0.4307,0.4525,0.4519,0.4519,0.4573,0.4572,0.4582,0.4711,0.4813,0.4813,0.4877,0.4901,0.4826,0.4745,0.4667,0.4596,0.457,0.4519,0.4519,0.4519,0.4519,0.4519,0.4519,0.4519,0.4519,0.4519,0.4519,0.4519,0.5496,0.6199,0.6588,0.767,0.8427,0.8804,0.8804,0.8804,0.8804,0.8804,0.8804,-0.3953,-0.3547,-0.3099,0.0,0.0,0.0,0.0,0.0,0.0,0.0,0.0,0.0,0.0,0.0,0.0,0.0,0.0,0.0,0.0,-0.479,-0.4869,-0.4877,-0.368,-0.3347,-0.4706,-0.4763,-0.48,-0.4816,-0.4813,-0.4813,-0.4813,-0.4813,-0.4758,-0.4643,-0.4636,-0.4565,-0.4412,-0.4412,-0.4429,-0.4519,-0.4519,-0.4519,-0.4519,-0.4519,-0.4519,-0.4519,-0.4525,-0.4477,-0.4421,-0.3239,-0.2065,-0.1228,-0.3198,-0.4166,-0.4337,-0.319,-0.2736,-0.2569,-0.1453,-0.0614,-0.0,-0.0,-0.0,-0.0,-0.0,-0.0,-0.0,-0.0,-0.0,0.028,0.1396,0.2235,0.3019,0.4193,0.4473,0.4525,0.4525,0.4525,0.4504,0.4619,0.4797,0.4876,0.4813,0.4931,0.4979,0.4833,0.4745,0.4677,0.4643,0.4591,0.4519,0.4519,0.4519,0.4519,0.4519,0.4519,0.4519,0.4519,0.4519,0.4519,0.4519,0.5164,0.576,0.6312,0.7235,0.799,0.8533,0.8699,0.8804,0.8804,0.8804,0.8804,-0.3758,-0.3565,-0.3319,-0.3498,0.0,0.0,0.0,0.0,0.0,0.0,0.0,0.0,0.0,0.0,0.0,0.0,0.0,0.0,-0.4731,0.0,-0.4914,-0.4887,-0.4799,-0.4676,-0.451,-0.4663,-0.465,-0.4563,-0.4553,-0.4553,-0.4553,-0.4553,-0.4546,-0.4536,-0.4532,-0.4409,-0.421,-0.421,-0.4331,-0.4519,-0.4519,-0.4519,-0.4519,-0.4519,-0.4519,-0.4519,-0.4519,-0.4525,-0.448,-0.4366,-0.4258,-0.4042,-0.285,-0.3246,-0.4497,-0.4383,-0.4324,-0.4327,-0.4222,-0.2352,-0.0,-0.0,-0.0,-0.0,-0.0,-0.0,-0.0,-0.0,-0.0,-0.0,0.0112,0.2244,0.434,0.4455,0.4501,0.4494,0.4494,0.4494,0.4494,0.4494,0.4675,0.4737,0.4553,0.4623,0.467,0.4573,0.4606,0.464,0.4553,0.4525,0.4519,0.4519,0.4519,0.4519,0.4519,0.4519,0.4519,0.4519,0.4519,0.4519,0.4519,0.5164,0.5542,0.5597,0.6961,0.7723,0.7777,0.848,0.8804,0.8804,0.8804,0.8804,-0.461,-0.4242,-0.3747,-0.3827,0.0,0.0,0.0,0.0,0.0,0.0,0.0,0.0,0.0,0.0,0.0,0.0,0.0,0.0,-0.4738,-0.4745,-0.4785,-0.4872,-0.4766,-0.4619,-0.4519,-0.4558,-0.458,-0.4522,-0.4519,-0.4519,-0.4519,-0.4519,-0.4423,-0.4331,-0.4328,-0.4256,-0.4056,-0.4056,-0.4131,-0.4189,-0.4189,-0.4236,-0.4328,-0.4328,-0.4379,-0.4519,-0.4519,-0.4519,-0.4525,-0.4525,-0.4477,-0.4428,-0.3858,-0.3971,-0.4484,-0.4477,-0.4477,-0.4477,-0.4487,-0.313,-0.1228,-0.028,-0.0,-0.0,-0.0,-0.0,-0.0,-0.0,-0.0,-0.0,-0.0,0.0838,0.1958,0.2854,0.3077,0.3074,0.3074,0.3074,0.3093,0.3097,0.3926,0.466,0.4752,0.4816,0.4799,0.4697,0.4725,0.47,0.4539,0.4519,0.4519,0.4519,0.4519,0.4519,0.4519,0.4519,0.4519,0.4519,0.4519,0.4519,0.4519,0.4732,0.5277,0.6145,0.6745,0.745,0.8374,0.8646,0.8804,0.8804,0.8804,0.8804,-0.4977,-0.4511,-0.3866,0.0,0.0,0.0,0.0,0.0,0.0,0.0,0.0,0.0,0.0,0.0,0.0,0.0,0.0,-0.4556,-0.4673,-0.4683,-0.4683,-0.4761,-0.4556,-0.4399,-0.4409,-0.4358,-0.4321,-0.4321,-0.4321,-0.4321,-0.4321,-0.4321,-0.4277,-0.4127,-0.4123,-0.4053,-0.3948,-0.3948,-0.3924,-0.388,-0.388,-0.3985,-0.4127,-0.4174,-0.43,-0.4399,-0.4498,-0.4519,-0.4519,-0.4519,-0.4522,-0.4473,-0.4473,-0.4473,-0.4473,-0.4522,-0.4519,-0.4519,-0.4477,-0.3802,-0.2625,-0.0614,-0.0,-0.0,-0.0,-0.0,-0.0,-0.0,-0.0,-0.0,-0.0,-0.0,0.028,0.1284,0.1507,0.1507,0.1507,0.1507,0.1518,0.1494,0.2369,0.3266,0.394,0.4076,0.4104,0.4237,0.4518,0.4652,0.4532,0.4519,0.4519,0.4519,0.4519,0.4519,0.4519,0.4519,0.4519,0.4519,0.4519,0.4519,0.4519,0.4519,0.5062,0.6258,0.6475,0.7235,0.848,0.8699,0.8804,0.8804,0.8804,0.8804,-0.4655,-0.4147,0.0,0.0,0.0,0.0,0.0,0.0,0.0,0.0,0.0,0.0,0.0,0.0,0.0,-0.4465,-0.4473,-0.4512,-0.4515,-0.4515,-0.4519,-0.4473,-0.4338,-0.4197,-0.421,-0.4066,-0.4019,-0.4019,-0.4019,-0.4019,-0.4019,-0.4019,-0.4019,-0.4019,-0.4016,-0.3944,-0.3839,-0.3788,-0.3721,-0.3626,-0.3581,-0.3734,-0.4022,-0.4123,-0.419,-0.4204,-0.4399,-0.4515,-0.4519,-0.4519,-0.4519,-0.4519,-0.4519,-0.4519,-0.4519,-0.4519,-0.4519,-0.4519,-0.4477,-0.4487,-0.3984,-0.1005,-0.0,-0.0,-0.0,-0.0,-0.0,-0.0,-0.0,-0.0,-0.0,-0.0,-0.0,-0.0,-0.0,-0.0,-0.0,-0.0,-0.0,-0.0,-0.0,0.0447,0.1952,0.2174,0.2341,0.2952,0.3852,0.4477,0.4519,0.4519,0.4519,0.4519,0.4519,0.4519,0.4519,0.4519,0.4519,0.4519,0.4519,0.4519,0.4519,0.4519,0.4842,0.5487,0.6258,0.6966,0.7723,0.8427,0.8804,0.8804,0.8804,0.8804,-0.4273,0.0,0.0,0.0,0.0,0.0,0.0,0.0,0.0,0.0,0.0,0.0,0.0,0.0,0.0,-0.4011,-0.4014,-0.4082,-0.4254,-0.4209,-0.4155,-0.4062,-0.407,-0.4036,-0.404,-0.4046,-0.4019,-0.4019,-0.4019,-0.4019,-0.4019,-0.4412,-0.4605,-0.4479,-0.4849,-0.4991,-0.4874,-0.443,-0.4184,-0.4176,-0.3796,-0.368,-0.386,-0.3907,-0.4043,-0.4197,-0.4241,-0.4368,-0.4519,-0.4519,-0.4519,-0.4519,-0.4519,-0.4519,-0.4519,-0.4519,-0.4519,-0.4519,-0.4522,-0.4473,-0.42,-0.2176,-0.0837,-0.0,-0.0,-0.0,-0.0,-0.0,-0.0,-0.0,-0.0,-0.0,-0.0,-0.0,-0.0,-0.0,-0.0,-0.0,-0.0,-0.0,-0.0,0.0112,0.0559,0.0671,0.1455,0.3705,0.4324,0.4484,0.4519,0.4519,0.4519,0.4519,0.4519,0.4519,0.4519,0.4519,0.4519,0.4519,0.4948,0.5003,0.4515,0.4948,0.5546,0.6258,0.7015,0.7723,0.848,0.8699,0.8804,0.8804,0.8804,0.8804,-0.3923,0.0,0.0,0.0,0.0,0.0,0.0,0.0,0.0,0.0,0.0,0.0,0.0,0.0,0.0,-0.3792,-0.3843,-0.3877,-0.3955,-0.4,-0.3929,-0.3819,-0.3849,-0.3907,-0.3849,-0.3846,-0.3846,-0.3846,-0.4029,-0.4168,-0.4168,-0.473,-0.5005,-0.4929,-0.524,-0.54,-0.5308,-0.4957,-0.4652,-0.4387,-0.4092,-0.3842,-0.3707,-0.3765,-0.3924,-0.411,-0.417,-0.4263,-0.429,-0.4351,-0.4375,-0.4385,-0.4494,-0.4519,-0.4519,-0.4519,-0.4519,-0.4519,-0.4519,-0.4525,-0.4366,-0.3411,-0.1675,-0.0,-0.0,-0.0,-0.0,-0.0,-0.0,-0.0,-0.0,-0.0,-0.0,-0.0,-0.0,-0.0,-0.0,-0.0,-0.0,-0.0,-0.0,-0.0,-0.0,0.0505,0.1514,0.3309,0.4092,0.4477,0.4519,0.4519,0.4519,0.4519,0.4519,0.4519,0.4519,0.4519,0.4625,0.4897,0.5273,0.5437,0.5336,0.571,0.6308,0.702,0.745,0.8049,0.8804,0.8804,0.8804,0.8804,0.8804,0.8804,0.0,0.0,0.0,0.0,0.0,0.0,0.0,0.0,0.0,0.0,0.0,0.0,0.0,0.0,-0.3748,-0.3734,-0.3894,-0.389,-0.3667,-0.3861,-0.3931,-0.37,-0.3799,-0.3837,-0.3748,-0.3744,-0.3751,-0.3751,-0.4224,-0.4474,-0.4474,-0.5043,-0.5384,-0.532,-0.5401,-0.5391,-0.5375,-0.5353,-0.5057,-0.4448,-0.4426,-0.4136,-0.3585,-0.3714,-0.3856,-0.4009,-0.411,-0.4097,-0.4029,-0.4117,-0.4174,-0.419,-0.4385,-0.4498,-0.4498,-0.4512,-0.4519,-0.4519,-0.4519,-0.4525,-0.448,-0.4494,-0.2571,-0.0168,-0.0056,-0.0,-0.0,-0.0,-0.0,-0.0,-0.0,-0.0,-0.0,-0.0,-0.0,-0.0,-0.0,-0.0,-0.0,-0.0,-0.0,-0.0,-0.0,0.1347,0.2413,0.24,0.3624,0.4519,0.4519,0.4519,0.4519,0.4519,0.4519,0.4519,0.4519,0.4519,0.4787,0.5378,0.5542,0.5928,0.6588,0.6642,0.702,0.767,0.7777,0.8156,0.8804,0.8804,0.8804,0.8804,0.8804,0.8791,0.0,0.0,0.0,0.0,0.0,0.0,0.0,0.0,0.0,0.0,0.0,0.0,0.0,-0.3548,-0.3363,-0.3283,-0.3578,-0.3825,-0.3751,-0.4079,-0.4298,-0.4253,-0.4496,-0.4642,-0.4642,-0.4824,-0.4918,-0.4918,-0.5048,-0.5087,-0.5087,-0.5701,-0.5874,-0.5634,-0.607,-0.6211,-0.5996,-0.5733,-0.5337,-0.4803,-0.4534,-0.4136,-0.3581,-0.3612,-0.3704,-0.3849,-0.4002,-0.405,-0.4022,-0.4056,-0.402,-0.4083,-0.4184,-0.4241,-0.4307,-0.4423,-0.4519,-0.4519,-0.4519,-0.4519,-0.4525,-0.449,-0.3246,-0.1506,-0.0336,-0.0,-0.0,-0.0,-0.0,-0.0,-0.0,-0.0,-0.0,-0.0,-0.0,-0.0,-0.0,-0.0,-0.0,-0.0,-0.0,-0.0,-0.0,0.2249,0.4005,0.3987,0.4311,0.4473,0.4519,0.4519,0.4519,0.4519,0.4519,0.4519,0.4519,0.4519,0.457,0.468,0.5769,0.6421,0.6588,0.7182,0.7557,0.7723,0.8262,0.8646,0.8804,0.8804,0.8804,0.8804,0.8804,0.8684,0.0,0.0,0.0,0.0,0.0,0.0,0.0,0.0,0.0,0.0,0.0,0.0,-0.3723,-0.3781,-0.3774,-0.363,-0.3901,-0.4056,-0.3904,-0.4183,-0.4341,-0.4215,-0.447,-0.47,-0.4734,-0.4838,-0.4953,-0.5099,-0.5219,-0.5278,-0.5278,-0.5889,-0.6107,-0.5963,-0.6226,-0.6344,-0.6196,-0.6041,-0.5589,-0.4898,-0.4716,-0.4273,-0.3581,-0.3649,-0.3683,-0.3697,-0.3846,-0.3873,-0.3816,-0.3883,-0.391,-0.3924,-0.403,-0.4086,-0.4107,-0.4304,-0.4362,-0.4368,-0.4494,-0.4522,-0.4473,-0.449,-0.3928,-0.2914,-0.0672,-0.0,-0.0,-0.0,-0.0,-0.0,-0.0,-0.0,-0.0,-0.0,-0.0,-0.0,-0.0,-0.0,-0.0,-0.0,-0.0,0.0449,0.1909,0.2865,0.3649,0.4376,0.448,0.4525,0.4519,0.4519,0.4519,0.4519,0.4519,0.4519,0.4519,0.4519,0.4625,0.4948,0.5655,0.6258,0.6588,0.7289,0.7883,0.8209,0.8586,0.8804,0.8804,0.8804,0.8804,0.8804,0.8804,0.8731,0.0,0.0,0.0,0.0,0.0,0.0,0.0,0.0,0.0,0.0,0.0,0.0,-0.3872,-0.4117,-0.4286,-0.4177,-0.43,-0.4367,-0.4143,-0.4372,-0.4464,-0.4263,-0.4448,-0.466,-0.4766,-0.4728,-0.4837,-0.5108,-0.5335,-0.5447,-0.5447,-0.5931,-0.6169,-0.6122,-0.6115,-0.6095,-0.6041,-0.6088,-0.5707,-0.4903,-0.4778,-0.4332,-0.3544,-0.369,-0.369,-0.3588,-0.3704,-0.369,-0.3588,-0.3707,-0.3754,-0.3771,-0.3921,-0.3982,-0.4002,-0.413,-0.4197,-0.4217,-0.4412,-0.4525,-0.4477,-0.4206,-0.4101,-0.3599,-0.0841,-0.0,-0.0,-0.0,-0.0,-0.0,-0.0,-0.0,-0.0,-0.0,-0.0,-0.0,-0.0,-0.0,-0.0,-0.0,0.0449,0.157,0.4067,0.3423,0.3014,0.4311,0.4525,0.4519,0.4519,0.4519,0.4519,0.4519,0.4519,0.4519,0.4519,0.4519,0.4732,0.5269,0.5433,0.576,0.6367,0.7128,0.783,0.8593,0.8752,0.8804,0.8804,0.8804,0.8784,0.8731,0.8731,0.8704,0.0,0.0,0.0,0.0,0.0,0.0,0.0,0.0,0.0,0.0,0.0,-0.4173,-0.4144,-0.4103,-0.4036,-0.4039,-0.4318,-0.4547,-0.4511,-0.4887,-0.5171,-0.5125,-0.5364,-0.5522,-0.5557,-0.5819,-0.5981,-0.6019,-0.6068,-0.6085,-0.6085,-0.6152,-0.6075,-0.5778,-0.5772,-0.5651,-0.543,-0.5645,-0.5465,-0.4897,-0.4357,-0.3847,-0.3343,-0.3537,-0.3598,-0.3581,-0.3598,-0.3598,-0.3581,-0.3602,-0.3609,-0.3622,-0.3768,-0.3822,-0.3856,-0.409,-0.4197,-0.4217,-0.4412,-0.4519,-0.4294,-0.2956,-0.2512,-0.2178,-0.0504,-0.0,-0.0,-0.0,-0.0,-0.0,-0.0,-0.0,-0.0,-0.0,-0.0,-0.0,-0.0,-0.0,-0.0,-0.0,0.2132,0.3999,0.4458,0.4324,0.4252,0.4477,0.4525,0.4519,0.4519,0.4519,0.4519,0.4519,0.4519,0.4519,0.4519,0.4519,0.4519,0.4625,0.5164,0.5542,0.5651,0.6367,0.7074,0.783,0.848,0.8804,0.8804,0.8804,0.8677,0.843,0.843,0.8297,0.0,0.0,0.0,0.0,0.0,0.0,0.0,0.0,0.0,0.0,-0.4591,-0.4732,-0.446,-0.458,-0.4736,-0.4736,-0.4864,-0.4992,-0.4992,-0.5182,-0.5309,-0.5309,-0.5391,-0.5531,-0.5698,-0.5685,-0.5766,-0.5892,-0.5793,-0.5699,-0.5699,-0.5699,-0.5638,-0.5478,-0.5471,-0.5411,-0.5309,-0.5404,-0.5278,-0.4906,-0.429,-0.3873,-0.3678,-0.3637,-0.3581,-0.3581,-0.3581,-0.3581,-0.3581,-0.3581,-0.3581,-0.3588,-0.3649,-0.3673,-0.3707,-0.4009,-0.407,-0.409,-0.429,-0.4399,-0.4391,-0.3696,-0.2329,-0.0834,-0.0219,-0.0,-0.0,-0.0,-0.0,-0.0,-0.0,-0.0,-0.0,-0.0,-0.0,-0.0,-0.0,-0.0,0.0505,0.2188,0.3602,0.4511,0.4497,0.4487,0.4477,0.4525,0.4522,0.4519,0.4519,0.4519,0.4519,0.4519,0.4519,0.4519,0.4519,0.4519,0.4519,0.4519,0.4787,0.4948,0.4948,0.5601,0.6308,0.7074,0.783,0.8374,0.8804,0.8804,0.8744,0.8611,0.845,0.839,0.0,0.0,0.0,0.0,0.0,0.0,0.0,0.0,0.0,0.0,-0.4777,-0.4955,-0.4616,-0.4973,-0.5309,-0.5309,-0.5309,-0.5309,-0.5309,-0.5309,-0.5309,-0.5309,-0.5309,-0.5364,-0.5585,-0.5404,-0.5371,-0.5585,-0.5404,-0.5309,-0.5309,-0.5309,-0.5309,-0.5309,-0.5309,-0.5309,-0.5309,-0.5309,-0.5158,-0.4814,-0.4314,-0.3981,-0.391,-0.3727,-0.3634,-0.3641,-0.3635,-0.3581,-0.3581,-0.3581,-0.3581,-0.3581,-0.3581,-0.3581,-0.3615,-0.391,-0.3995,-0.3988,-0.413,-0.4297,-0.4381,-0.4434,-0.2717,-0.0596,-0.0159,-0.0,-0.0,-0.0,-0.0,-0.0,-0.0,-0.0,-0.0,-0.0,-0.0,-0.0,-0.0,0.0617,0.1794,0.4058,0.4511,0.4504,0.4484,0.448,0.4477,0.4519,0.4519,0.4519,0.4519,0.4519,0.4519,0.4519,0.4519,0.4519,0.4519,0.4519,0.4519,0.4519,0.4519,0.4519,0.4519,0.5003,0.5601,0.6312,0.7074,0.7883,0.8804,0.8804,0.8731,0.8577,0.8363,0.8337,0.0,0.0,0.0,0.0,0.0,0.0,0.0,0.0,0.0,0.0,-0.4255,-0.4448,-0.4421,-0.49,-0.5309,-0.5309,-0.5309,-0.5309,-0.5309,-0.5309,-0.5309,-0.5309,-0.5309,-0.5316,-0.5336,-0.5322,-0.5322,-0.5336,-0.5322,-0.5309,-0.5309,-0.5309,-0.5309,-0.5309,-0.5309,-0.5309,-0.5309,-0.5309,-0.5062,-0.4619,-0.4334,-0.3992,-0.3612,-0.3725,-0.3772,-0.3793,-0.3666,-0.3581,-0.3581,-0.3581,-0.3581,-0.3581,-0.3581,-0.3581,-0.3615,-0.391,-0.3927,-0.3846,-0.4093,-0.4107,-0.4043,-0.4193,-0.3483,-0.222,-0.0505,-0.0,-0.0,-0.0,-0.0,-0.0,-0.0,-0.0,-0.0,-0.0,-0.0,-0.0,-0.0,0.2244,0.4284,0.4458,0.4504,0.4494,0.448,0.448,0.4477,0.4519,0.4519,0.4519,0.4519,0.4519,0.4519,0.4519,0.4519,0.4519,0.4519,0.4519,0.4519,0.4519,0.4519,0.4519,0.4519,0.4515,0.4897,0.5542,0.6253,0.7343,0.8804,0.8804,0.8524,0.7928,0.7915,0.7802,0.0,0.0,0.0,0.0,0.0,0.0,0.0,0.0,0.0,-0.3943,-0.3939,-0.3936,-0.4339,-0.471,-0.4967,-0.4967,-0.4967,-0.4967,-0.4967,-0.4967,-0.5063,-0.5289,-0.5309,-0.5309,-0.5309,-0.5309,-0.5309,-0.5309,-0.5309,-0.5309,-0.5309,-0.5309,-0.5309,-0.5309,-0.5309,-0.5309,-0.5309,-0.5309,-0.5214,-0.5055,-0.4779,-0.4587,-0.4422,-0.4248,-0.4195,-0.4166,-0.4152,-0.4033,-0.3856,-0.4046,-0.3921,-0.3581,-0.3581,-0.3581,-0.3605,-0.3799,-0.3839,-0.3809,-0.3917,-0.3982,-0.3988,-0.3852,-0.3678,-0.3307,-0.2545,-0.1226,-0.0,-0.0,-0.0,-0.0,-0.0,-0.0,-0.0,-0.0,-0.0,-0.0,-0.0,0.0841,0.2188,0.4113,0.4511,0.4274,0.363,0.4079,0.4477,0.4519,0.4519,0.468,0.5109,0.4787,0.468,0.5109,0.5164,0.5164,0.5164,0.555,0.566,0.5164,0.5164,0.4948,0.4515,0.4897,0.5492,0.6199,0.6907,0.7563,0.8103,0.8586,0.8697,0.8484,0.8054,0.7976,0.0,0.0,0.0,0.0,0.0,0.0,0.0,0.0,0.0,-0.346,-0.3518,-0.3599,-0.3897,-0.4276,-0.4548,-0.4648,-0.4661,-0.4661,-0.4661,-0.4746,-0.494,-0.5296,-0.5429,-0.5564,-0.5696,-0.5585,-0.5491,-0.5491,-0.5372,-0.5309,-0.5309,-0.5309,-0.5309,-0.5309,-0.5309,-0.5309,-0.5309,-0.5309,-0.5309,-0.5284,-0.497,-0.4813,-0.4785,-0.4565,-0.4459,-0.4464,-0.4718,-0.4505,-0.4004,-0.4206,-0.3999,-0.3581,-0.3581,-0.3581,-0.3598,-0.3737,-0.3761,-0.3727,-0.3775,-0.3826,-0.3839,-0.3643,-0.3671,-0.3767,-0.3628,-0.2494,-0.105,-0.0245,-0.0,-0.0,-0.0,-0.0,-0.0,-0.0,-0.0,-0.0,-0.0,-0.0,0.0616,0.2579,0.3825,0.4163,0.3178,0.3855,0.448,0.4519,0.4519,0.468,0.5109,0.4787,0.4732,0.5433,0.5487,0.5487,0.5487,0.6204,0.6312,0.5542,0.5706,0.5655,0.5226,0.5655,0.6091,0.6588,0.7343,0.7723,0.7723,0.8427,0.8758,0.8651,0.8263,0.8076,0.0,0.0,0.0,0.0,0.0,0.0,0.0,0.0,0.0,-0.2572,-0.2988,-0.339,-0.3152,-0.3585,-0.4048,-0.4335,-0.4389,-0.4389,-0.4389,-0.4618,-0.4943,-0.5352,-0.57,-0.6071,-0.6455,-0.616,-0.5913,-0.5913,-0.5554,-0.534,-0.534,-0.5309,-0.5309,-0.5309,-0.5316,-0.5309,-0.5309,-0.5309,-0.5309,-0.5277,-0.4826,-0.4628,-0.4628,-0.4628,-0.4628,-0.4646,-0.5383,-0.5072,-0.4029,-0.4033,-0.3856,-0.3622,-0.3626,-0.3581,-0.3595,-0.3734,-0.3697,-0.3598,-0.3737,-0.3693,-0.3581,-0.3581,-0.3581,-0.3581,-0.3581,-0.3589,-0.313,-0.0759,-0.0049,-0.0,-0.0,-0.0,-0.0,-0.0,-0.0,-0.0,-0.0,-0.0,-0.0,-0.0,0.241,0.4163,0.3178,0.3805,0.4487,0.4522,0.4519,0.4519,0.4574,0.4515,0.4787,0.5487,0.5542,0.5542,0.5542,0.6253,0.6367,0.5597,0.6253,0.6642,0.6588,0.6642,0.6642,0.6642,0.7343,0.7723,0.7723,0.8427,0.8664,0.8434,0.8427,0.8104,-0.6027,0.0,0.0,0.0,0.0,0.0,0.0,0.0,0.0,-0.3181,-0.2939,-0.2853,-0.3299,-0.3201,-0.3307,-0.4053,-0.413,-0.4113,-0.4113,-0.4349,-0.4743,-0.5322,-0.57,-0.6071,-0.6455,-0.6397,-0.6336,0.0,-0.6244,-0.616,-0.616,-0.5882,-0.5734,-0.5734,-0.546,-0.5309,-0.5309,-0.5309,-0.5309,-0.5309,-0.5182,-0.5119,-0.5119,-0.5119,-0.5119,-0.5132,-0.5518,-0.5419,-0.4912,-0.4713,-0.4479,-0.4136,-0.3751,-0.3581,-0.3585,-0.3626,-0.3612,-0.3585,-0.3626,-0.3612,-0.3581,-0.3581,-0.3581,-0.3581,-0.3581,-0.3609,-0.3462,-0.2778,-0.1358,-0.0,-0.0,-0.0,-0.0,-0.0,-0.0,-0.0,-0.0,-0.0,-0.0,-0.0,0.2411,0.4051,0.2679,0.3577,0.448,0.4519,0.4519,0.4846,0.5882,0.5117,0.5171,0.6907,0.6637,0.6529,0.7069,0.7771,0.7883,0.7122,0.7289,0.7182,0.6642,0.7128,0.7396,0.7396,0.8103,0.848,0.848,0.8699,0.8764,0.8684,0.847,0.817,0.0,0.0,0.0,0.0,0.0,0.0,-0.3522,-0.3323,-0.3217,0.0,-0.2369,-0.1609,-0.2285,-0.2359,-0.2505,-0.3053,-0.3776,-0.4223,-0.4134,-0.4267,-0.461,-0.5329,-0.5813,-0.6277,-0.6703,-0.6763,-0.6751,-0.6751,-0.6601,-0.6488,-0.6488,-0.6109,-0.5891,-0.5913,-0.5672,-0.5467,-0.5309,-0.5309,-0.5309,-0.5309,-0.5309,-0.5309,-0.5309,-0.5309,-0.5309,-0.5322,-0.5458,-0.5592,-0.5645,-0.522,-0.4815,-0.4391,-0.4312,-0.4016,-0.3622,-0.3836,-0.3796,-0.3581,-0.3581,-0.3581,-0.3581,-0.3581,-0.3581,-0.3581,-0.3581,-0.3581,-0.3581,-0.3588,-0.1865,-0.0,-0.0,-0.0,-0.0,-0.0,-0.0,-0.0,-0.0,-0.0,-0.0,-0.0,0.2413,0.4222,0.3302,0.3916,0.4477,0.4519,0.4519,0.4791,0.5605,0.5007,0.5226,0.7074,0.6858,0.6912,0.7616,0.8374,0.848,0.7723,0.7996,0.7943,0.7557,0.7943,0.8156,0.8156,0.8593,0.8804,0.8804,0.8804,0.8646,0.8315,0.8088,0.7666,0.0,0.0,0.0,0.0,0.0,0.0,-0.3583,-0.3419,-0.3379,-0.3557,-0.1874,-0.0538,-0.1067,-0.1601,-0.2038,-0.2239,-0.3613,-0.4564,-0.4252,-0.4305,-0.4673,-0.5404,-0.6059,-0.6661,-0.7173,-0.7196,-0.7178,-0.7178,-0.6785,-0.658,-0.658,-0.6182,-0.5957,-0.5968,-0.5921,-0.5734,-0.5372,-0.5309,-0.5309,-0.5309,-0.5309,-0.5309,-0.5309,-0.5309,-0.5277,-0.5221,-0.5311,-0.5645,-0.6079,-0.5596,-0.5068,-0.4652,-0.513,-0.4661,-0.3751,-0.422,-0.4092,-0.3667,-0.3622,-0.3622,-0.3667,-0.3622,-0.3581,-0.3581,-0.3581,-0.3581,-0.3581,-0.3581,-0.1875,-0.0,-0.0,-0.0,-0.0,-0.0,-0.0,-0.0,-0.0,-0.0,0.0112,0.0448,0.2525,0.4281,0.4497,0.4487,0.4473,0.4519,0.4519,0.4515,0.4625,0.4574,0.5062,0.6583,0.6642,0.6912,0.7777,0.8427,0.8533,0.7883,0.8427,0.8804,0.8804,0.8804,0.8804,0.8804,0.8804,0.8804,0.8804,0.8699,0.8321,0.7717,0.7385,0.6859,0.0,0.0,0.0,0.0,0.0,0.0,-0.3136,-0.286,-0.2655,0.0,-0.3403,-0.2756,-0.282,-0.2926,-0.3502,-0.5019,-0.511,-0.4688,-0.3786,-0.4389,-0.5213,-0.5962,-0.6434,-0.7081,-0.7969,-0.7782,-0.7569,-0.7569,-0.7206,-0.6988,-0.6988,-0.6584,-0.6373,-0.6397,-0.6071,-0.5859,-0.5797,-0.546,-0.5309,-0.5309,-0.5309,-0.5309,-0.5309,-0.5309,-0.5087,-0.4774,-0.5359,-0.5615,-0.5664,-0.5931,-0.5945,-0.583,-0.5437,-0.487,-0.426,-0.4347,-0.4347,-0.4176,-0.3751,-0.388,-0.418,-0.3751,-0.3581,-0.3581,-0.3581,-0.3581,-0.3581,-0.3592,-0.1882,-0.0,-0.0,-0.0,-0.0,-0.0,-0.0,-0.0,-0.0,-0.0,0.0705,0.313,0.3084,0.3021,0.4268,0.448,0.4522,0.4519,0.4519,0.4677,0.5218,0.4842,0.5281,0.7289,0.6966,0.7128,0.848,0.8699,0.8752,0.8593,0.8699,0.8804,0.8804,0.8804,0.8804,0.8804,0.8804,0.8804,0.8804,0.8209,0.783,0.767,0.7031,0.6684,0.0,0.0,0.0,-0.2408,0.0,0.0,0.0,-0.2165,-0.3038,-0.4088,-0.4483,-0.4709,-0.4904,-0.5111,-0.5555,-0.6497,-0.6171,-0.5308,-0.3896,-0.3558,-0.411,-0.5852,-0.6706,-0.7258,-0.7562,-0.7899,-0.797,-0.7663,-0.7098,-0.6855,-0.709,-0.6673,-0.6545,-0.6782,-0.6419,-0.6098,-0.5913,-0.5491,-0.5309,-0.5309,-0.5309,-0.5309,-0.5277,-0.5055,-0.4953,-0.496,-0.5104,-0.5318,-0.5611,-0.5861,-0.6044,-0.6169,-0.5679,-0.4968,-0.4223,-0.4353,-0.4387,-0.4303,-0.3796,-0.3965,-0.4303,-0.3796,-0.3581,-0.3581,-0.3581,-0.3581,-0.349,-0.2865,-0.2241,-0.1528,-0.0314,-0.0,-0.0,-0.0,-0.0,-0.0,-0.0,-0.0,0.0888,0.3906,0.3856,0.3613,0.4353,0.4473,0.4519,0.4519,0.4519,0.4625,0.4948,0.4736,0.5062,0.647,0.6583,0.7074,0.8156,0.8262,0.8262,0.8262,0.7883,0.7723,0.7723,0.7723,0.7883,0.8262,0.8262,0.8262,0.8262,0.7503,0.7128,0.7128,0.675,0.6209,0.0,0.0,0.0,0.0,0.0,-0.1708,0.0,0.0,0.0,-0.4379,-0.5224,0.0,0.0,0.0,0.0,0.0,0.0,0.0,0.0,-0.3436,0.0,-0.6046,-0.6533,-0.6813,-0.7118,-0.7898,-0.8198,-0.7665,-0.6875,-0.6568,-0.6875,-0.6533,-0.6445,-0.6756,-0.6444,-0.6137,-0.5823,-0.5401,-0.5224,-0.5309,-0.5309,-0.5309,-0.5277,-0.4826,-0.4794,-0.5151,-0.4762,-0.4979,-0.5574,-0.5516,-0.5694,-0.5996,-0.5909,-0.5176,-0.4226,-0.4624,-0.4609,-0.4347,-0.3924,-0.4052,-0.4303,-0.3796,-0.3581,-0.3581,-0.3581,-0.3581,-0.3357,-0.2142,-0.233,-0.2476,-0.0494,-0.0,-0.0,-0.0,-0.0,-0.0,-0.0,-0.0,0.0704,0.3176,0.4097,0.4521,0.4511,0.4488,0.4491,0.4519,0.4522,0.4519,0.4519,0.4519,0.4732,0.5433,0.6036,0.6691,0.745,0.7509,0.7509,0.7509,0.6912,0.6588,0.6588,0.6588,0.6858,0.745,0.7509,0.7509,0.7509,0.6912,0.6529,0.6367,0.6263,0.5609,0.0,0.0,0.0,0.0,-0.3022,0.0,0.0,0.0,-0.3372,-0.5103,0.0,0.0,0.0,0.0,0.0,0.0,0.0,0.0,-0.4977,-0.6136,-0.7367,-0.7806,-0.5444,-0.4889,-0.7691,-0.8081,-0.8024,-0.7703,-0.6935,-0.6393,-0.6146,-0.6074,-0.5911,-0.5598,-0.554,-0.55,-0.547,-0.5051,-0.5017,-0.5309,-0.5309,-0.5309,-0.5277,-0.4826,-0.4634,-0.4666,-0.4628,-0.4814,-0.5142,-0.4835,-0.4928,-0.5321,-0.6181,-0.5779,-0.4882,-0.5699,-0.5308,-0.4387,-0.4347,-0.4347,-0.4303,-0.3796,-0.3581,-0.3581,-0.3581,-0.3588,-0.3366,-0.2144,-0.1119,-0.0359,-0.009,-0.0,-0.0,-0.0,-0.0,-0.0,-0.0,-0.0,0.0098,0.0469,0.2689,0.4492,0.4499,0.4517,0.4499,0.4515,0.4477,0.4473,0.4519,0.4519,0.4732,0.5433,0.5597,0.5923,0.6642,0.675,0.675,0.675,0.6642,0.6588,0.6588,0.6588,0.6642,0.6696,0.675,0.675,0.675,0.6642,0.6258,0.5597,0.5007,0.4625,0.0,0.0,0.0,0.0,0.0,0.0,-0.3584,0.0,-0.4785,0.0,0.0,0.0,0.0,0.0,0.0,0.0,-0.788,0.0,0.0,0.0,-0.7256,0.0,0.0,0.0,-0.8025,-0.6979,-0.6696,-0.7947,-0.7098,-0.5775,-0.4117,-0.4942,-0.5466,-0.5452,-0.543,-0.5396,-0.541,-0.5003,-0.4953,-0.5309,-0.5309,-0.5309,-0.5277,-0.4826,-0.4762,-0.4992,-0.473,-0.4828,-0.5189,-0.4778,-0.4861,-0.5233,-0.5598,-0.5126,-0.4306,-0.4834,-0.4985,-0.487,-0.4517,-0.4652,-0.4783,-0.3884,-0.3581,-0.3581,-0.3581,-0.3588,-0.3506,-0.2965,-0.1481,-0.0,-0.0,-0.0,-0.0,-0.0,-0.0,-0.0,-0.0,-0.0,-0.0,-0.0,0.1038,0.2148,0.3016,0.314,0.3189,0.3176,0.3913,0.4477,0.4473,0.4522,0.4625,0.4893,0.5273,0.5651,0.5928,0.5982,0.5982,0.5982,0.5605,0.5391,0.5391,0.5391,0.555,0.5928,0.5982,0.5982,0.5982,0.5982,0.5601,0.4948,0.5058,0.4897,-0.6739,0.0,0.0,0.0,0.0,0.0,0.0,0.0,0.0,0.0,0.0,0.0,0.0,0.0,0.0,0.0,0.0,-0.8592,0.0,-0.8272,0.0,0.0,0.0,0.0,0.0,-0.6064,-0.6079,-0.7713,-0.6452,-0.453,-0.2025,-0.335,-0.4511,-0.5232,-0.5165,-0.5132,-0.5116,-0.4904,-0.4953,-0.5309,-0.5309,-0.5309,-0.5277,-0.4826,-0.4858,-0.5277,-0.4794,-0.4858,-0.5277,-0.4794,-0.4794,-0.5074,-0.4879,-0.4434,-0.3994,-0.4635,-0.4993,-0.5137,-0.476,-0.4739,-0.4705,-0.3884,-0.3581,-0.3581,-0.3581,-0.336,-0.3188,-0.3519,-0.1842,-0.0,-0.0,-0.0,-0.0,-0.0,-0.0,-0.0,-0.0,-0.0,-0.0,-0.0,-0.0,0.0345,0.1407,0.1618,0.1707,0.2036,0.3109,0.4012,0.4365,0.4443,0.4519,0.4522,0.4956,0.5226,0.523,0.523,0.5226,0.5222,0.4791,0.4519,0.4519,0.4519,0.4732,0.5218,0.5218,0.5218,0.5218,0.5218,0.4948,0.4519,0.5003,0.4948,0.0,0.0,0.0,-0.6403,0.0,0.0,0.0,0.0,-0.5954,0.0,0.0,0.0,0.0,0.0,0.0,0.0,0.0,0.0,0.0,0.0,0.0,0.0,0.0,0.0,0.0,-0.5791,-0.6861,-0.6666,-0.4633,-0.2429,-0.0203,-0.1239,-0.2739,-0.4567,-0.4492,-0.4434,-0.4442,-0.4668,-0.4953,-0.5309,-0.5309,-0.5309,-0.5277,-0.4826,-0.4858,-0.5277,-0.4794,-0.4858,-0.5277,-0.4794,-0.4602,-0.457,-0.4194,-0.4096,-0.4373,-0.5945,-0.5825,-0.4938,-0.5189,-0.4574,-0.367,-0.3626,-0.3581,-0.3581,-0.3581,-0.2771,-0.2101,-0.3289,-0.1842,-0.0,-0.0,-0.0,-0.0,-0.0,-0.0,-0.0,-0.0,-0.0,-0.0,-0.0,-0.0,-0.0,0.0051,0.0052,0.0479,0.165,0.2077,0.2756,0.4058,0.4375,0.4522,0.4477,0.4532,0.4539,0.4549,0.4549,0.4546,0.4536,0.4522,0.4519,0.4519,0.4519,0.4519,0.4515,0.4515,0.4515,0.4515,0.4515,0.4515,0.4519,0.4515,0.4515,-0.7817,-0.805,-0.7688,-0.7608,0.0,0.0,0.0,0.0,0.0,0.0,0.0,0.0,0.0,0.0,0.0,0.0,0.0,0.0,0.0,0.0,0.0,0.0,0.0,0.0,0.0,0.0,-0.6996,-0.6633,-0.5898,-0.3879,-0.0201,-0.0383,-0.1799,-0.4388,-0.452,-0.4578,-0.4655,-0.4754,-0.4953,-0.5309,-0.5309,-0.5309,-0.5277,-0.5151,-0.5151,-0.5277,-0.5119,-0.5151,-0.5277,-0.4794,-0.4794,-0.5017,-0.457,-0.472,-0.5266,-0.5702,-0.5683,-0.5422,-0.5317,-0.4783,-0.4092,-0.3711,-0.3581,-0.3581,-0.3581,-0.2768,-0.1741,-0.1343,-0.0628,-0.0,-0.0,-0.0,-0.0,-0.0,-0.0,-0.0,-0.0,-0.0,-0.0,-0.0,-0.0,-0.0,-0.0,0.1328,0.2526,0.2939,0.3243,0.3594,0.4118,0.4379,0.4522,0.4477,0.448,0.4086,0.3072,0.3294,0.3796,0.4467,0.4519,0.4519,0.4519,0.4519,0.4519,0.4519,0.4519,0.4519,0.4519,0.4519,0.4519,0.4519,0.4519,0.4519,-0.7347,-0.805,-0.8462,-0.8336,-0.8437,-0.8374,-0.7568,0.0,-0.6833,0.0,0.0,0.0,0.0,0.0,0.0,0.0,0.0,0.0,0.0,-1.1006,0.0,0.0,0.0,0.0,0.0,-0.799,-0.7656,-0.7101,-0.6044,-0.3842,0.0,-0.059,-0.1706,-0.3427,-0.4169,-0.4557,-0.4648,-0.4754,-0.4953,-0.5309,-0.5309,-0.5309,-0.5309,-0.5309,-0.5309,-0.5309,-0.5309,-0.5309,-0.5284,-0.4985,-0.5023,-0.5246,-0.4794,-0.4897,-0.5329,-0.5638,-0.5659,-0.549,-0.5124,-0.4609,-0.4049,-0.3711,-0.3581,-0.3581,-0.3581,-0.304,-0.2097,-0.0447,-0.0,-0.0,-0.0,-0.0,-0.0,-0.0,-0.0,-0.0,-0.0,-0.0,-0.0,-0.0,-0.0,0.0288,0.1115,0.2589,0.3435,0.3032,0.3545,0.4021,0.414,0.4304,0.4416,0.448,0.449,0.4095,0.3079,0.3352,0.3799,0.4467,0.4519,0.4519,0.4519,0.4519,0.4519,0.4519,0.4519,0.4519,0.4519,0.4519,0.4519,0.4519,0.4519,0.4519]},{"header":{"parameterUnit":"m.s-1","parameterCategory":1,"la1":30.6,"la2":29.2853,"lo1":-89.7004,"lo2":-87.6739,"dy":0.0162,"dx":0.0183,"nx":112,"ny":82,"refTime":"2023-07-25T06:00:00:Z","depth":0,"parameterNumber":3,"parameterNumberName":"V-component_of_WINDS"},"data":[0.0,0.0,0.0,0.0,0.0,0.0,0.0,0.0,0.0,0.0,0.0,0.0,0.0,0.0,0.0,0.0,0.0,0.0,0.0,0.0,0.0,0.0,0.0,0.0,0.0,0.0,0.0,0.0,0.0,0.0,0.0,0.0,0.0,0.0,0.0,0.0,0.0,0.0,0.0,0.0,0.0,0.0,0.0,0.0,0.0,0.0,0.0,0.0,0.0,0.0,0.0,0.0,0.0,0.0,0.0,0.0,0.0,0.0,0.0,0.0,0.0,0.0,0.0,0.0,0.0,0.0,0.0,0.0,0.0,0.0,0.0,0.0,0.0,0.0,0.0,0.0,0.0,0.0,0.0,0.0,0.0,0.0,0.0,0.0,0.0,0.0,0.0,0.0,0.0,0.0,-1.7502,-1.5593,-1.6772,-1.8107,-1.9126,-1.9457,-1.9449,-1.8974,0.0,0.0,0.0,0.0,0.0,0.0,0.0,0.0,0.0,0.0,0.0,0.0,0.0,0.0,0.0,0.0,0.0,0.0,0.0,0.0,0.0,0.0,0.0,0.0,0.0,0.0,0.0,0.0,0.0,0.0,0.0,0.0,0.0,0.0,0.0,0.0,0.0,0.0,0.0,0.0,0.0,0.0,0.0,0.0,0.0,0.0,0.0,0.0,0.0,0.0,0.0,0.0,0.0,0.0,0.0,0.0,0.0,0.0,0.0,0.0,0.0,0.0,0.0,0.0,0.0,0.0,0.0,0.0,0.0,0.0,0.0,0.0,0.0,0.0,0.0,0.0,0.0,0.0,0.0,0.0,0.0,0.0,0.0,0.0,0.0,0.0,0.0,0.0,0.0,0.0,0.0,0.0,0.0,0.0,0.0,0.0,0.0,0.0,0.0,0.0,0.0,0.0,0.0,0.0,-1.6506,-1.6324,-1.7138,-1.835,-1.9965,-1.8784,-1.846,-1.959,0.0,0.0,0.0,0.0,0.0,0.0,0.0,0.0,0.0,0.0,0.0,0.0,0.0,0.0,0.0,0.0,0.0,0.0,0.0,0.0,0.0,0.0,0.0,0.0,0.0,0.0,0.0,0.0,0.0,0.0,0.0,0.0,0.0,0.0,0.0,0.0,0.0,0.0,0.0,0.0,0.0,0.0,0.0,0.0,0.0,0.0,0.0,0.0,0.0,0.0,0.0,0.0,0.0,0.0,0.0,0.0,0.0,0.0,0.0,0.0,0.0,0.0,0.0,0.0,0.0,0.0,0.0,0.0,0.0,0.0,0.0,0.0,0.0,0.0,0.0,0.0,0.0,0.0,0.0,0.0,0.0,0.0,0.0,0.0,0.0,0.0,0.0,0.0,0.0,0.0,0.0,0.0,0.0,0.0,0.0,0.0,0.0,0.0,0.0,0.0,0.0,0.0,0.0,-1.5611,-1.5695,-1.5785,-1.6542,-1.7542,-1.8792,-1.7737,-1.7589,-1.9017,-1.8601,0.0,0.0,0.0,0.0,0.0,0.0,0.0,0.0,0.0,0.0,0.0,0.0,0.0,0.0,0.0,0.0,0.0,0.0,0.0,0.0,0.0,0.0,0.0,0.0,0.0,0.0,0.0,0.0,0.0,0.0,0.0,0.0,0.0,0.0,0.0,0.0,0.0,0.0,0.0,0.0,0.0,0.0,0.0,0.0,0.0,0.0,0.0,0.0,0.0,0.0,0.0,0.0,0.0,0.0,0.0,0.0,0.0,0.0,0.0,0.0,0.0,0.0,0.0,0.0,0.0,0.0,0.0,0.0,0.0,0.0,0.0,0.0,0.0,0.0,0.0,0.0,0.0,0.0,0.0,0.0,0.0,0.0,0.0,0.0,0.0,0.0,0.0,0.0,0.0,0.0,0.0,0.0,0.0,0.0,0.0,0.0,0.0,0.0,0.0,0.0,0.0,0.0,-1.461,-1.4849,-1.5445,-1.6061,-1.6791,-1.7619,-1.6872,-1.6965,-1.841,-1.7701,0.0,0.0,0.0,0.0,0.0,0.0,0.0,0.0,0.0,0.0,0.0,0.0,0.0,0.0,0.0,0.0,0.0,0.0,0.0,0.0,0.0,0.0,0.0,0.0,0.0,0.0,0.0,0.0,0.0,0.0,0.0,0.0,0.0,0.0,0.0,0.0,0.0,0.0,0.0,0.0,0.0,0.0,0.0,0.0,0.0,0.0,0.0,0.0,0.0,0.0,0.0,0.0,0.0,0.0,0.0,0.0,0.0,0.0,0.0,0.0,0.0,0.0,0.0,0.0,0.0,0.0,0.0,0.0,0.0,0.0,0.0,0.0,0.0,0.0,0.0,0.0,0.0,0.0,0.0,0.0,0.0,0.0,0.0,0.0,0.0,0.0,0.0,0.0,0.0,0.0,0.0,0.0,0.0,0.0,0.0,0.0,0.0,0.0,0.0,0.0,0.0,0.0,-1.4686,-1.3777,-1.6157,-1.6352,-1.6682,-1.7619,-1.6629,-1.667,-1.8388,-1.7504,0.0,0.0,0.0,0.0,0.0,0.0,0.0,0.0,0.0,0.0,0.0,0.0,0.0,0.0,0.0,0.0,0.0,0.0,0.0,0.0,0.0,0.0,0.0,0.0,0.0,0.0,0.0,0.0,0.0,0.0,0.0,0.0,0.0,0.0,0.0,0.0,0.0,0.0,0.0,0.0,0.0,0.0,0.0,0.0,0.0,0.0,0.0,0.0,0.0,0.0,0.0,0.0,0.0,0.0,0.0,0.0,0.0,0.0,0.0,0.0,0.0,0.0,0.0,0.0,0.0,0.0,0.0,0.0,0.0,0.0,0.0,0.0,0.0,0.0,0.0,0.0,0.0,0.0,0.0,0.0,0.0,0.0,0.0,0.0,0.0,0.0,0.0,0.0,0.0,0.0,0.0,0.0,0.0,0.0,0.0,0.0,0.0,0.0,0.0,0.0,0.0,0.0,-1.528,-1.4426,0.0,-1.5254,-1.5639,-1.5988,-1.555,-1.5948,-1.7531,0.0,0.0,0.0,0.0,0.0,0.0,0.0,0.0,0.0,0.0,0.0,0.0,0.0,0.0,0.0,0.0,0.0,0.0,0.0,0.0,0.0,0.0,0.0,0.0,0.0,0.0,0.0,0.0,0.0,0.0,0.0,0.0,0.0,0.0,0.0,0.0,0.0,0.0,0.0,0.0,0.0,0.0,0.0,0.0,0.0,0.0,0.0,0.0,0.0,0.0,0.0,0.0,0.0,0.0,0.0,0.0,0.0,0.0,0.0,0.0,0.0,0.0,0.0,0.0,0.0,0.0,0.0,0.0,0.0,0.0,0.0,0.0,0.0,0.0,0.0,0.0,0.0,0.0,0.0,0.0,0.0,0.0,0.0,0.0,0.0,0.0,0.0,0.0,0.0,0.0,0.0,0.0,0.0,0.0,0.0,0.0,0.0,0.0,0.0,0.0,0.0,0.0,-1.66,-1.5527,-1.4634,0.0,-1.4668,-1.4962,-1.4962,-1.484,-1.5447,-1.7002,0.0,0.0,0.0,0.0,0.0,0.0,0.0,0.0,0.0,0.0,0.0,0.0,0.0,0.0,0.0,0.0,0.0,0.0,0.0,0.0,0.0,0.0,0.0,0.0,0.0,0.0,0.0,0.0,0.0,0.0,0.0,0.0,0.0,0.0,0.0,0.0,0.0,0.0,0.0,0.0,0.0,0.0,0.0,0.0,0.0,0.0,0.0,0.0,0.0,0.0,0.0,0.0,0.0,0.0,0.0,0.0,0.0,0.0,0.0,0.0,0.0,0.0,0.0,0.0,0.0,0.0,0.0,0.0,0.0,0.0,0.0,0.0,0.0,0.0,0.0,0.0,0.0,0.0,0.0,0.0,0.0,0.0,0.0,0.0,0.0,0.0,0.0,0.0,0.0,0.0,0.0,0.0,0.0,0.0,0.0,0.0,0.0,0.0,0.0,0.0,0.0,0.0,-1.7207,-1.5312,-1.4137,-1.4827,-1.4904,-1.4904,-1.4904,-1.4645,-1.5238,0.0,0.0,0.0,0.0,0.0,0.0,0.0,0.0,0.0,0.0,0.0,0.0,0.0,0.0,0.0,0.0,0.0,0.0,0.0,0.0,0.0,0.0,0.0,0.0,0.0,0.0,0.0,0.0,0.0,0.0,0.0,0.0,0.0,0.0,0.0,0.0,0.0,0.0,0.0,0.0,0.0,0.0,0.0,0.0,0.0,0.0,0.0,0.0,0.0,0.0,0.0,0.0,0.0,0.0,0.0,0.0,0.0,0.0,0.0,0.0,0.0,0.0,0.0,0.0,0.0,0.0,0.0,0.0,0.0,0.0,0.0,0.0,0.0,0.0,0.0,0.0,0.0,0.0,0.0,0.0,0.0,0.0,0.0,0.0,0.0,0.0,0.0,0.0,0.0,0.0,0.0,0.0,0.0,0.0,0.0,0.0,0.0,0.0,0.0,0.0,0.0,0.0,0.0,-1.7187,-1.5193,-1.4008,-1.481,-1.4813,-1.4766,-1.4766,-1.4611,-1.5209,-1.6846,0.0,0.0,0.0,0.0,0.0,0.0,0.0,0.0,0.0,0.0,0.0,0.0,0.0,0.0,0.0,0.0,0.0,0.0,0.0,0.0,0.0,0.0,0.0,0.0,0.0,0.0,0.0,0.0,0.0,0.0,0.0,0.0,0.0,0.0,0.0,0.0,0.0,0.0,0.0,0.0,0.0,0.0,0.0,0.0,0.0,0.0,0.0,0.0,0.0,0.0,0.0,0.0,0.0,0.0,0.0,0.0,0.0,0.0,0.0,0.0,0.0,0.0,0.0,0.0,0.0,0.0,0.0,0.0,0.0,0.0,0.0,0.0,0.0,0.0,0.0,0.0,0.0,0.0,0.0,0.0,0.0,0.0,0.0,0.0,0.0,0.0,0.0,0.0,0.0,0.0,0.0,0.0,0.0,0.0,0.0,0.0,0.0,0.0,0.0,0.0,0.0,0.0,-1.7116,-1.5367,-1.4286,-1.4709,-1.4717,-1.4687,-1.4624,-1.4545,-1.5184,-1.6798,0.0,0.0,0.0,0.0,0.0,0.0,0.0,0.0,0.0,0.0,0.0,0.0,0.0,0.0,0.0,0.0,0.0,0.0,0.0,0.0,0.0,0.0,0.0,0.0,0.0,0.0,0.0,0.0,0.0,0.0,0.0,0.0,0.0,0.0,0.0,0.0,0.0,0.0,0.0,0.0,0.0,0.0,0.0,0.0,0.0,0.0,0.0,0.0,0.0,0.0,0.0,0.0,0.0,0.0,0.0,0.0,0.0,0.0,0.0,0.0,0.0,0.0,0.0,0.0,0.0,0.0,0.0,0.0,0.0,0.0,0.0,0.0,0.0,0.0,0.0,0.0,0.0,0.0,0.0,0.0,0.0,0.0,0.0,0.0,0.0,0.0,0.0,0.0,0.0,0.0,0.0,0.0,0.0,0.0,0.0,0.0,0.0,0.0,0.0,0.0,0.0,0.0,-1.7124,-1.5748,-1.4766,-1.4522,-1.4603,-1.4635,-1.4499,-1.4488,-1.5148,-1.6688,0.0,0.0,0.0,0.0,0.0,0.0,0.0,0.0,0.0,0.0,0.0,0.0,0.0,0.0,0.0,0.0,0.0,0.0,0.0,0.0,0.0,0.0,0.0,0.0,0.0,0.0,0.0,0.0,0.0,0.0,0.0,0.0,0.0,0.0,0.0,0.0,0.0,0.0,0.0,0.0,0.0,0.0,0.0,0.0,0.0,0.0,0.0,0.0,0.0,0.0,0.0,0.0,0.0,0.0,0.0,0.0,0.0,0.0,0.0,0.0,-1.9289,0.0,0.0,0.0,0.0,0.0,0.0,0.0,0.0,0.0,0.0,0.0,0.0,0.0,0.0,0.0,0.0,0.0,0.0,0.0,0.0,0.0,0.0,0.0,0.0,0.0,0.0,0.0,0.0,0.0,0.0,0.0,0.0,0.0,0.0,0.0,0.0,0.0,0.0,0.0,0.0,0.0,-1.7848,-1.5944,-1.4567,-1.4517,-1.4522,-1.4533,-1.4499,-1.4488,-1.4921,-1.5894,-1.5967,0.0,0.0,0.0,0.0,0.0,0.0,0.0,0.0,0.0,0.0,0.0,0.0,0.0,0.0,0.0,0.0,0.0,0.0,0.0,0.0,0.0,0.0,0.0,0.0,0.0,0.0,0.0,0.0,0.0,0.0,0.0,0.0,0.0,0.0,0.0,0.0,0.0,0.0,0.0,0.0,0.0,0.0,0.0,0.0,0.0,0.0,0.0,0.0,0.0,0.0,0.0,0.0,0.0,0.0,0.0,0.0,0.0,0.0,0.0,0.0,-1.9877,0.0,0.0,0.0,0.0,0.0,0.0,0.0,0.0,0.0,0.0,0.0,0.0,0.0,0.0,0.0,0.0,0.0,0.0,0.0,0.0,0.0,0.0,0.0,0.0,0.0,0.0,0.0,0.0,0.0,0.0,0.0,0.0,0.0,0.0,0.0,0.0,0.0,0.0,0.0,0.0,-1.7887,-1.5908,-1.4488,-1.4488,-1.4488,-1.4488,-1.4488,-1.4488,-1.4848,-1.5637,-1.5692,0.0,0.0,0.0,0.0,0.0,0.0,0.0,0.0,0.0,0.0,0.0,0.0,0.0,0.0,0.0,0.0,0.0,0.0,0.0,0.0,0.0,0.0,0.0,0.0,0.0,0.0,0.0,0.0,0.0,0.0,0.0,0.0,0.0,0.0,0.0,0.0,0.0,0.0,0.0,0.0,0.0,0.0,0.0,0.0,0.0,0.0,0.0,0.0,0.0,0.0,0.0,0.0,0.0,-2.3969,-2.4067,-2.3783,-2.3761,-2.2974,-2.1651,-2.2387,-2.1947,-2.0724,-2.0843,0.0,0.0,0.0,0.0,0.0,0.0,0.0,0.0,0.0,0.0,0.0,0.0,0.0,0.0,0.0,0.0,0.0,0.0,0.0,0.0,0.0,0.0,-1.8871,-1.9549,-1.9934,-2.0073,-1.9817,0.0,0.0,0.0,0.0,0.0,0.0,0.0,0.0,0.0,0.0,0.0,-1.7992,-1.6073,-1.4719,-1.4719,-1.4579,-1.4488,-1.4488,-1.4488,-1.4793,-1.5454,-1.549,-1.5744,0.0,0.0,0.0,0.0,0.0,0.0,0.0,0.0,0.0,0.0,0.0,0.0,0.0,0.0,0.0,0.0,0.0,0.0,0.0,0.0,0.0,0.0,0.0,0.0,0.0,0.0,0.0,0.0,0.0,0.0,0.0,0.0,-1.8869,-1.8774,0.0,0.0,0.0,0.0,0.0,0.0,0.0,0.0,0.0,0.0,0.0,0.0,0.0,-2.4275,-2.4266,-2.6575,-2.7044,-2.5706,-2.7179,-2.7138,-2.5754,-2.6431,-2.6493,-2.606,-2.6172,0.0,-2.1493,-1.9955,0.0,0.0,0.0,0.0,0.0,0.0,0.0,0.0,0.0,0.0,0.0,0.0,0.0,0.0,0.0,0.0,0.0,0.0,0.0,0.0,0.0,0.0,-2.069,-2.0984,-2.1261,-2.1487,-2.1612,-2.1839,-2.2011,-2.2011,-2.2059,-2.2318,0.0,0.0,0.0,0.0,0.0,0.0,-1.9139,-1.7018,-1.5545,-1.5545,-1.4921,-1.4488,-1.4488,-1.4488,-1.4543,-1.4664,-1.4664,-1.5001,-1.5764,-1.5777,0.0,0.0,0.0,0.0,0.0,0.0,0.0,0.0,0.0,0.0,0.0,0.0,0.0,0.0,0.0,0.0,0.0,0.0,0.0,0.0,0.0,0.0,0.0,0.0,0.0,0.0,0.0,0.0,0.0,-2.0439,-2.0222,-2.027,-2.135,-2.201,0.0,0.0,0.0,0.0,0.0,0.0,0.0,0.0,0.0,-2.3524,-2.4922,-2.5874,-2.6382,-2.8413,-2.9307,-2.9074,-2.9277,-2.9026,-2.8351,-2.8089,-2.766,-2.7125,-2.7125,-2.6268,-2.4748,-2.3031,-2.2311,-2.2275,0.0,0.0,0.0,0.0,-2.0714,-2.0662,-2.0331,-2.0276,-2.0512,-2.1247,0.0,0.0,0.0,0.0,0.0,0.0,0.0,-2.1608,-2.1608,-2.15,-2.1516,-2.2063,-2.2467,-2.2866,-2.346,-2.3601,-2.3401,-2.264,-2.2329,-2.2371,-2.307,-2.1803,0.0,0.0,0.0,-1.8838,-1.9049,-1.7114,-1.5692,-1.5692,-1.4976,-1.4488,-1.4488,-1.4488,-1.4488,-1.4488,-1.4488,-1.4664,-1.5013,-1.5193,-1.5267,0.0,0.0,0.0,0.0,0.0,0.0,0.0,0.0,0.0,0.0,0.0,0.0,0.0,0.0,0.0,0.0,0.0,0.0,0.0,0.0,0.0,0.0,0.0,0.0,0.0,0.0,0.0,0.0,-2.1681,-2.1369,-2.1416,-2.2354,-2.294,0.0,0.0,0.0,0.0,0.0,0.0,-2.4976,-2.4649,-2.4986,-2.6236,-2.7194,-2.7995,-2.8638,-3.0335,-3.1273,-3.1489,-3.104,-3.0619,-3.0202,-2.9379,-2.8658,-2.8046,-2.8006,-2.785,-2.7511,-2.5893,-2.4567,-2.3593,-2.3515,-2.3584,-2.3571,-2.2604,-2.2249,-2.2267,-2.227,-2.2186,-2.2247,-2.3373,-2.3676,-2.3608,-2.3699,0.0,0.0,0.0,0.0,-2.2797,-2.2797,-2.2648,-2.2643,-2.3305,-2.3671,-2.4087,-2.4777,-2.4942,-2.4606,-2.3516,-2.2923,-2.2829,-2.3482,-2.198,0.0,0.0,0.0,-1.8937,-1.9109,-1.7569,-1.6447,-1.6447,-1.5718,-1.5151,-1.4918,-1.4899,-1.4803,-1.4574,-1.4556,-1.4533,-1.4499,-1.4883,-1.513,-1.5243,0.0,0.0,0.0,0.0,0.0,0.0,0.0,0.0,0.0,0.0,0.0,0.0,0.0,0.0,0.0,0.0,0.0,0.0,0.0,0.0,0.0,0.0,0.0,0.0,0.0,0.0,0.0,0.0,0.0,-2.1496,-2.2985,0.0,0.0,0.0,0.0,-2.5111,-2.513,-2.587,-2.7621,-2.839,-2.8813,-2.8909,-3.0564,-3.1455,-3.1494,-3.3218,-3.3301,-3.1789,-3.2634,-3.2173,-3.0571,-3.0444,-3.0271,-3.0047,-2.9917,-2.9371,-2.8405,-2.6733,-2.6239,-2.643,-2.4864,-2.4559,-2.4816,-2.3235,-2.2683,-2.2683,-2.2733,-2.2439,-2.2249,-2.383,-2.4523,-2.4659,-2.4358,-2.4479,0.0,0.0,-2.4441,-2.4651,-2.4651,-2.4647,-2.4686,-2.4841,-2.491,-2.4996,-2.5224,-2.5264,-2.5171,-2.4771,-2.4021,-2.3705,-2.4576,0.0,-2.3069,-2.2397,-2.2152,-2.1506,-1.9943,-1.8987,-1.8451,-1.8451,-1.7727,-1.6924,-1.6083,-1.6026,-1.5631,-1.4744,-1.4697,-1.4635,-1.4517,-1.4543,-1.446,-1.426,-1.4181,0.0,0.0,0.0,0.0,0.0,0.0,0.0,0.0,0.0,0.0,0.0,0.0,0.0,0.0,0.0,0.0,0.0,0.0,0.0,0.0,0.0,0.0,0.0,0.0,0.0,0.0,0.0,0.0,-2.4659,-2.5832,0.0,-2.6101,-2.6351,-2.6871,-2.7678,-2.7755,-2.8506,-3.0256,-3.0083,-3.0467,-3.1634,-3.2269,-3.2897,-3.3493,-3.4635,-3.4909,-3.4311,-3.4119,-3.3712,-3.3089,-3.2496,-3.2193,-3.21,-3.1501,-3.1027,-3.0628,-2.9466,-2.831,-2.7191,-2.6588,-2.6478,-2.6575,-2.6007,-2.58,-2.5706,-2.5163,-2.4866,-2.4712,-2.4667,-2.519,-2.5678,-2.4865,-2.5066,-2.5431,-2.4791,-2.4708,-2.4804,-2.4804,-2.485,-2.4937,-2.4998,-2.5099,-2.5214,-2.5274,-2.5303,-2.5264,-2.5138,-2.435,-2.3929,-2.4667,-2.3647,-2.2797,-2.303,-2.218,-2.1305,-2.0701,-1.9435,-1.8604,-1.8604,-1.7879,-1.7264,-1.6952,-1.6413,-1.597,-1.5621,-1.5114,-1.4766,-1.4635,-1.4624,-1.456,-1.4399,-1.4375,-1.4677,0.0,0.0,0.0,0.0,0.0,0.0,0.0,0.0,0.0,0.0,0.0,0.0,0.0,0.0,0.0,0.0,0.0,0.0,0.0,0.0,0.0,0.0,0.0,0.0,0.0,0.0,-2.5563,-2.7236,-2.7948,-2.8409,-2.8717,-2.8736,-2.9083,-2.991,-3.0279,-3.1203,-3.2923,-3.2512,-3.2897,-3.436,-3.4141,-3.4292,-3.4891,-3.5477,-3.5623,-3.532,-3.4814,-3.4413,-3.412,-3.3501,-3.3229,-3.318,-3.228,-3.1901,-3.1862,-3.1002,-2.9854,-2.8612,-2.8274,-2.8145,-2.8103,-2.7808,-2.7692,-2.7616,-2.7037,-2.7041,-2.712,-2.6214,-2.639,-2.685,-2.6136,-2.6281,-2.6542,-2.571,-2.5463,-2.5406,-2.5114,-2.5106,-2.5176,-2.5176,-2.5271,-2.537,-2.537,-2.537,-2.537,-2.5341,-2.4772,-2.4457,-2.4879,-2.4043,-2.3408,-2.3662,-2.2799,-2.1896,-2.1314,-2.0268,-1.9468,-1.9192,-1.8697,-1.8258,-1.7954,-1.7678,-1.7252,-1.6638,-1.6364,-1.6035,-1.5629,-1.5601,-1.5548,-1.5402,-1.5165,-1.5781,-1.7257,0.0,0.0,0.0,0.0,0.0,0.0,0.0,0.0,0.0,0.0,0.0,0.0,0.0,0.0,0.0,0.0,0.0,0.0,0.0,0.0,0.0,0.0,0.0,-2.4225,-2.564,-2.7294,-2.8967,-2.9198,-2.9544,-3.041,-3.0494,-3.0871,-3.1718,-3.2651,-3.3877,-3.5515,-3.5721,-3.6164,-3.6953,-3.6154,-3.5703,-3.5717,-3.5839,-3.5476,-3.4635,-3.471,-3.4297,-3.3476,-3.3418,-3.3379,-3.3281,-3.235,-3.1981,-3.1946,-3.1076,-3.0772,-3.0806,-2.9827,-2.9452,-2.9341,-2.8506,-2.816,-2.814,-2.814,-2.8676,-2.9224,-2.8389,-2.8126,-2.8136,-2.8105,-2.8115,-2.7972,-2.7085,-2.6824,-2.6603,-2.5755,-2.5515,-2.5495,-2.5495,-2.5495,-2.5495,-2.5495,-2.5495,-2.5476,-2.5418,-2.5351,-2.5303,-2.5303,-2.5303,-2.5043,-2.4264,-2.4129,0.0,-2.1754,-2.1523,-2.1196,-2.0427,-2.035,-2.0004,-1.9146,-1.9831,-1.9542,-1.7767,-1.8359,-1.8354,-1.7444,-1.7406,-1.7327,-1.7191,-1.6528,-1.702,-1.8771,0.0,0.0,0.0,0.0,0.0,0.0,0.0,0.0,0.0,0.0,0.0,0.0,0.0,0.0,0.0,0.0,0.0,0.0,0.0,0.0,0.0,0.0,-2.6851,-2.6851,-2.7755,-2.9044,-3.0775,-3.1506,-3.1948,-3.2199,-3.2776,-3.3276,-3.3564,-3.4404,-3.5133,-3.5657,-3.5713,-3.5883,-3.6188,-3.5977,-3.5879,-3.5927,-3.5949,-3.5857,-3.5623,-3.5621,-3.5527,-3.5273,-3.5273,-3.4902,-3.4277,-3.3375,-3.2678,-3.2093,-3.1191,-3.0867,-3.087,-3.0597,-3.0499,-3.046,-3.0227,-2.9721,-2.9194,-2.9194,-2.8937,-2.8545,-2.8274,-2.86,-2.8987,-2.8318,-2.8547,-2.8851,-2.7997,-2.7297,-2.6747,-2.6508,-2.5977,-2.5505,-2.5505,-2.5505,-2.5505,-2.5505,-2.5505,-2.5486,-2.5486,-2.5468,-2.5409,-2.5322,-2.5341,-2.5293,-2.5005,-2.4466,-2.3706,-2.2581,-2.1889,-2.1427,-2.1196,-2.1177,-2.1062,-2.0831,-2.0504,-1.9823,-1.8686,-1.8225,-1.7853,-1.7572,-1.7545,-1.7444,-1.7191,-1.7572,-1.7845,0.0,0.0,0.0,0.0,0.0,0.0,0.0,0.0,0.0,0.0,0.0,0.0,0.0,0.0,0.0,0.0,0.0,0.0,0.0,0.0,0.0,0.0,-2.7986,-2.889,-3.0333,-3.0333,-3.0833,-3.2545,-3.316,-3.3718,-3.443,-3.5001,-3.5347,-3.5391,-3.6252,-3.6646,-3.6338,-3.6359,-3.6406,-3.6484,-3.6126,-3.5967,-3.5996,-3.5996,-3.5996,-3.5996,-3.5996,-3.5996,-3.5996,-3.5996,-3.5527,-3.4648,-3.3789,-3.2946,-3.213,-3.1268,-3.0899,-3.0898,0.0,0.0,0.0,0.0,-3.0586,-3.0137,-3.0137,-2.9805,-2.9375,-2.9336,-2.9668,-2.998,-2.9435,-2.9634,-2.9845,-2.8973,-2.8095,-2.7335,-2.6981,-2.6512,-2.6122,-2.6122,-2.6122,-2.6122,-2.6122,-2.5846,-2.5584,-2.5541,-2.5573,0.0,-2.5406,-2.5416,-2.5428,-2.5341,-2.4947,-2.4197,-2.2966,-2.235,-2.1773,-2.1081,-2.1004,-2.1139,-2.1466,-2.1081,0.0,0.0,0.0,-1.9116,-1.8762,-1.8654,0.0,0.0,0.0,-1.8735,-1.8372,-1.9588,0.0,0.0,-1.9217,-1.8879,0.0,0.0,0.0,0.0,0.0,0.0,0.0,0.0,0.0,0.0,0.0,0.0,0.0,0.0,0.0,0.0,-3.0063,-3.0717,-3.3757,-3.3006,-3.2699,-3.416,-3.443,-3.5045,-3.6449,-3.6771,-3.6887,-3.6781,-3.7607,-3.7816,-3.7095,0.0,0.0,0.0,0.0,-3.5996,-3.5996,-3.5996,-3.5996,-3.5996,-3.5996,-3.5996,-3.5996,-3.5898,-3.5371,-3.4512,-3.3633,-3.2793,-3.1992,-3.1211,-3.0898,-3.0898,-3.0898,-3.0898,-3.0898,-3.0898,-3.0898,-3.0898,-3.0898,0.0,0.0,-3.0898,-3.0898,-3.0898,-3.0898,-3.0898,-3.0742,-2.9961,-2.9043,-2.8144,-2.7461,-2.707,-2.6875,-2.6973,-2.6914,-2.6855,-2.6855,-2.625,-2.5681,-2.5629,-2.5661,-2.5666,-2.5532,-2.5524,-2.5493,-2.5399,-2.5399,-2.4812,-2.3158,-2.2851,-2.2235,-2.0735,-2.0485,0.0,-2.1446,-2.1504,-2.1466,-2.137,-2.137,-2.1043,-2.0331,-2.0124,-1.9963,-1.9824,-1.9695,-1.9578,-1.9482,-2.0939,-2.1169,-2.0264,-1.9341,-1.8889,0.0,0.0,0.0,0.0,0.0,0.0,0.0,0.0,0.0,0.0,0.0,0.0,0.0,0.0,0.0,-3.1237,-3.2429,-3.343,-3.4103,-3.4564,-3.4949,-3.5218,-3.5925,-3.6232,-3.5853,-3.6512,-3.6724,-3.6142,-3.6271,-3.6346,-3.6241,-3.6247,-3.625,-3.625,-3.6094,-3.5996,-3.5996,-3.5996,-3.5996,-3.5996,0.0,0.0,-3.5976,-3.5273,-3.4473,-3.3613,-3.2793,-3.1934,-3.1133,-3.0976,-3.0898,-3.0898,-3.0898,-3.0898,-3.0898,-3.0898,-3.0898,-3.0898,-3.0898,-3.0898,-3.0898,-3.0898,-3.0898,-3.0898,-3.0898,-3.0898,0.0,-3.0703,-2.9512,-2.8418,-2.8965,-2.7539,-2.6133,-2.6836,-2.6465,-2.5957,-2.5957,-2.582,-2.5703,-2.5681,-2.5694,-2.5696,-2.5663,-2.5623,-2.5548,-2.5421,-2.5395,-2.5024,-2.3975,-2.3225,-2.2677,-2.235,-2.1696,-2.1331,-2.1485,-2.1504,-2.1216,-2.0581,-2.0542,-2.0465,-2.0312,-2.0249,-2.0152,-1.9954,-1.9824,-2.0013,-2.0507,-2.0673,-2.0999,-2.1459,-2.1043,-2.0705,0.0,0.0,0.0,0.0,0.0,0.0,0.0,0.0,0.0,0.0,0.0,-3.022,0.0,0.0,-3.3017,-3.4719,-3.5348,-3.5907,-3.6785,-3.692,-3.6766,-3.6252,-3.6252,-3.6466,-3.6919,-3.7032,-3.6916,-3.6522,-3.6561,-3.6416,-3.6015,-3.5996,-3.5996,-3.5996,-3.5996,-3.5996,-3.5996,-3.5996,-3.5996,-3.5996,-3.5996,-3.5996,-3.5976,-3.5098,-3.4219,-3.3359,-3.2559,-3.1719,-3.0898,-3.0898,-3.0898,-3.0898,-3.0898,-3.0898,-3.0898,-3.0898,-3.0898,-3.0898,-3.0898,-3.0898,-3.0898,-3.0898,-3.0898,-3.0898,-3.0898,-3.0898,-3.0898,-3.0898,-2.9648,-2.8398,-2.8848,-2.7656,-2.6465,-2.6894,-2.668,-2.6348,-2.6348,-2.6016,-2.5703,-2.5703,-2.5703,-2.5702,-2.5705,-2.5679,-2.5598,-2.5479,-2.5456,-2.512,-2.4225,-2.334,-2.262,-2.2197,-2.1408,-2.1062,-2.1466,-2.1504,-2.1158,-2.035,-2.0312,-2.0312,-2.0312,-2.0312,-2.0205,-1.9993,-1.9869,-2.0139,-2.0792,-2.1039,-2.1363,-2.1821,-2.2082,-2.1897,0.0,0.0,0.0,0.0,0.0,0.0,0.0,0.0,-2.976,-3.1158,-3.228,-3.3412,-3.4768,-3.5126,-3.5858,-3.7738,-3.7602,-3.7626,-3.8663,-3.8222,-3.7564,-3.6972,-3.6498,-3.6639,-3.773,-3.7447,-3.7104,-3.6902,-3.6967,-3.6738,-3.6035,-3.5996,-3.5996,-3.5996,-3.5996,-3.5996,-3.5996,-3.5996,-3.5996,-3.5996,-3.5996,-3.5918,-3.5723,-3.4844,-3.3984,-3.3125,-3.2305,-3.1543,-3.0898,-3.0898,-3.0898,-3.0898,-3.0898,-3.0898,-3.0898,-3.0898,-3.0898,-3.0898,-3.0898,-3.0898,-3.0898,-3.0898,-3.0898,-3.0898,-3.0898,-3.0898,-3.0898,-3.0898,-2.9648,-2.834,-2.8516,-2.7656,-2.6836,-2.7168,-2.6992,-2.6797,-2.6953,-2.6328,-2.5703,-2.5703,-2.5703,-2.5703,-2.5703,-2.5703,-2.5659,-2.5531,-2.5499,-2.5159,-2.4225,-2.3494,-2.2639,-2.162,-2.0927,-2.0735,-2.1235,-2.1273,-2.0985,-2.035,-2.0312,-2.0312,-2.0312,-2.0312,-2.0205,-1.9993,-1.9869,-2.0139,-2.0792,-2.1463,-2.1894,-2.2042,-2.2868,-2.2795,-2.5745,-2.5495,-2.5865,-2.7398,-2.7913,-2.8613,0.0,0.0,-3.3914,-3.4048,-3.5385,-3.6592,-3.6766,-3.7397,-3.7702,-3.7226,-3.7708,-3.7663,-3.6255,-3.6009,-3.6223,-3.6829,-3.7616,-3.7596,-3.6286,-3.6791,-3.6903,-3.6188,-3.6073,-3.6035,-3.5996,-3.5996,-3.5996,-3.5996,-3.5996,-3.5996,-3.5996,-3.5996,-3.5996,-3.5996,-3.5996,-3.5586,-3.4824,-3.3945,-3.3105,-3.2285,-3.1426,-3.0996,-3.0898,-3.0898,-3.0898,-3.0898,-3.0898,-3.0898,-3.0898,-3.0898,-3.0898,-3.0898,-3.0898,-3.0898,-3.0898,-3.0898,-3.0898,-3.0898,-3.0898,-3.0898,-3.0898,-3.0898,-2.9648,-2.8476,-2.9258,-2.7656,-2.623,-2.7793,-2.6973,-2.6055,-2.6836,-2.6328,-2.5703,-2.5703,-2.5703,-2.5703,-2.5703,-2.5703,-2.5659,-2.5531,-2.5499,-2.5159,-2.4225,-2.4014,-2.3321,-2.1677,-2.1427,-2.1119,-2.0485,-2.0427,-2.0408,-2.0312,-2.0312,-2.0312,-2.0312,-2.0312,-2.0205,-1.9993,-1.9869,-2.0139,-2.0792,-2.1463,-2.2171,-2.2905,-2.3694,-2.3639,-2.56,-2.6486,0.0,0.0,-3.0655,-3.233,-3.4347,-3.5797,-3.6967,-3.7956,-3.8808,-3.9379,-3.9364,-3.9227,-3.8828,0.0,-3.8088,-3.8041,-3.7289,-3.6754,-3.6215,-3.558,-3.5877,-3.6249,-3.6516,-3.6406,-3.6202,-3.5846,-3.5871,-3.5918,-3.5937,-3.5976,-3.5996,-3.5996,-3.5996,-3.5996,-3.5996,-3.5996,-3.5996,-3.5996,-3.5488,-3.5059,-3.4648,-3.3301,-3.2246,-3.1426,-3.1055,-3.0898,-3.0898,-3.0898,-3.0898,-3.0898,-3.0898,-3.0898,-3.0898,-3.0898,-3.0898,-3.0898,-3.0898,-3.0898,-3.0898,-3.0898,-3.0898,-3.0898,-3.0898,-3.0898,-3.0898,-3.0898,-2.9648,-2.8496,-2.9375,-2.7656,-2.6016,-2.7246,-2.6602,-2.5801,-2.6152,-2.5957,-2.5703,-2.5703,-2.5703,-2.5703,-2.5703,-2.5703,-2.5672,-2.5563,-2.5551,-2.539,-2.4928,-2.4456,-2.3667,-2.2389,-2.2254,-2.212,-2.1773,-2.1293,-2.1216,-2.1716,-2.085,-2.0504,-2.0985,-2.1004,-2.0685,-2.0012,-2.0372,-2.064,-2.0792,-2.1463,-2.2208,-2.3033,-2.3823,-2.4025,-2.594,0.0,0.0,-3.1181,-3.3478,-3.5858,-3.7564,-3.8817,-3.999,-4.1264,-4.1408,-4.1156,-4.0693,-3.9714,-3.869,-3.7822,-3.7644,-3.7508,-3.7236,-3.6461,-3.5386,-3.3901,-3.3518,-3.3936,-3.5413,-3.5394,-3.5427,-3.5674,-3.5772,-3.5828,-3.5849,-3.5936,-3.5976,-3.5976,-3.5996,-3.5996,-3.5996,-3.5762,-3.5762,-3.5996,-3.5117,-3.457,-3.4277,-3.2617,-3.1504,-3.0898,-3.0898,-3.0898,-3.0898,-3.0898,-3.0898,-3.0898,-3.0898,-3.0742,-3.0566,-3.0801,-3.0898,-3.0898,-3.0898,-3.0898,-3.0898,-3.0898,-3.0898,-3.0898,-3.0898,-3.0723,-3.0586,-3.082,-2.9648,-2.8457,-2.9082,-2.7656,-2.6211,-2.6855,-2.6328,-2.5762,-2.6016,-2.5879,-2.5703,-2.5703,-2.5703,-2.5703,-2.5703,-2.5703,-2.5673,-2.5635,-2.5616,-2.5467,-2.5109,-2.4321,-2.3648,-2.3206,-2.2928,-2.2793,-2.2793,-2.2216,-2.212,-2.2754,-2.1658,-2.1254,-2.1831,-2.187,-2.1491,-2.0718,-2.1187,-2.133,-2.1123,-2.159,-2.2208,-2.2997,-2.3602,-2.3988,0.0,0.0,-3.0968,-3.3449,-3.6065,-3.8435,-4.0177,-4.1953,-4.3263,-4.3313,-4.2649,-4.1577,-3.9935,-3.824,-3.6822,-3.5997,-3.5886,-3.5553,-3.4552,-3.3724,-3.2858,-3.1891,-3.1044,-3.0871,0.0,-3.3378,-3.4712,-3.5622,-3.5636,-3.5643,-3.5703,-3.5823,-3.5898,-3.5898,-3.5976,-3.5996,-3.5996,-3.5156,-3.5156,-3.5996,-3.5117,-3.4258,-3.3379,-3.1699,-3.0937,-3.0898,-3.0898,-3.0898,-3.0898,-3.0898,-3.0898,-3.0898,-3.0898,-3.0371,-2.9746,-3.0586,-3.0898,-3.0898,-3.0898,-3.0898,-3.0898,-3.0898,-3.0898,-3.0898,-3.0898,-3.0312,-2.9824,-3.0664,-2.9648,-2.8301,-2.832,-2.7656,-2.6973,-2.6992,-2.6328,-2.5937,-2.6777,-2.6309,-2.5703,-2.5703,-2.5703,-2.5703,-2.5703,-2.5703,-2.5703,-2.5703,-2.5646,-2.5263,-2.4348,-2.3416,-2.3167,-2.3975,-2.3302,-2.2793,-2.2793,-2.2774,-2.2774,-2.2793,-2.2754,-2.2735,-2.2754,-2.2754,-2.269,-2.2522,-2.235,-2.2163,-2.1954,-2.1847,-2.2208,-2.2997,-2.3033,-2.3456,0.0,0.0,-3.4526,-3.7603,-3.9912,-4.1854,-4.3547,-4.3989,-4.3684,-4.2566,-4.0831,-3.881,-3.6513,-3.471,-3.342,-3.3006,-3.3023,-3.3102,-3.3164,-3.2595,-3.1621,-3.014,-3.0237,0.0,0.0,0.0,0.0,-3.4603,-3.4743,-3.4995,-3.5612,-3.5805,-3.5898,-3.5898,-3.5976,-3.5996,-3.5996,-3.5703,-3.5703,-3.5976,-3.4531,-3.3105,-3.1719,-3.1152,-3.0898,-3.0898,-3.0898,-3.0898,-3.0898,-3.0898,-3.0898,-3.0898,-3.0898,-3.0723,-3.043,-3.0137,-3.0391,-3.0898,-3.0898,-3.0898,-3.0898,-3.0898,-3.0898,-3.0898,-3.0898,-3.0703,-3.0527,-3.082,-2.9648,-2.8437,-2.9004,-2.7656,-2.6289,-2.6855,-2.6328,-2.5781,-2.6074,-2.5918,-2.5703,-2.5703,-2.5703,-2.5703,-2.5703,-2.5707,-2.5687,-2.5648,-2.559,-2.5401,-2.5048,-2.4687,-2.4582,-2.487,-2.4159,-2.387,-2.4409,-2.2908,-2.2658,-2.4351,-2.287,-2.2466,-2.361,-2.3667,-2.3324,-2.2598,-2.2931,-2.2722,-2.2006,-2.2402,-2.274,-2.2997,-2.3547,-2.3933,-3.1416,-3.4639,-3.795,-4.0739,-4.272,-4.4182,-4.4951,-4.447,-4.322,-4.0931,-3.8719,-3.632,-3.335,-3.1181,-3.0004,-3.0407,-3.0037,-3.0163,-3.1527,-3.1096,-3.04,-2.966,-2.9775,-2.9967,0.0,0.0,0.0,-3.3622,-3.4359,-3.4826,-3.5084,-3.5545,-3.5804,-3.5837,-3.5916,-3.5976,-3.5996,-3.5684,-3.5371,-3.5059,-3.3633,-3.2402,-3.1348,-3.1035,-3.0898,-3.0898,-3.0898,-3.0898,-3.0898,-3.0898,-3.0898,-3.0898,-3.0898,-3.0703,-3.0371,-2.9805,-2.9941,-3.0449,-3.0449,-3.0644,-3.0898,-3.0898,-3.0898,-3.0898,-3.0898,-3.0684,-3.0508,-3.0801,-2.9648,-2.8496,-2.9375,-2.8125,-2.6777,-2.7324,-2.7031,-2.6543,-2.623,-2.6152,-2.6074,-2.5762,-2.5703,-2.5701,-2.5704,-2.5679,-2.562,-2.5543,-2.5484,-2.5437,-2.5409,-2.5341,-2.5187,-2.4909,-2.4409,-2.4187,-2.4389,-2.3197,-2.312,-2.4774,-2.3601,-2.337,-2.4485,-2.4524,-2.4226,-2.359,-2.3841,-2.3649,-2.3007,-2.299,-2.3162,-2.3437,-2.3657,-2.3933,-3.4492,-3.7974,-4.1046,-4.2797,-4.4393,-4.5278,-4.4374,-4.347,-4.1873,-3.8416,-3.6358,-3.4087,0.0,0.0,-2.6778,-2.8222,-2.7176,-2.7091,-2.9718,-2.9426,-2.934,0.0,0.0,0.0,0.0,0.0,0.0,-3.2852,0.0,-3.5084,-3.4314,-3.5103,-3.5628,-3.5682,-3.5782,-3.5859,-3.5937,-3.5078,-3.4199,-3.332,-3.2559,-3.2187,-3.2109,-3.1289,-3.0898,-3.0898,-3.0898,-3.0898,-3.0898,-3.0898,-3.0898,-3.0898,-3.0898,-3.0371,-2.959,-2.9551,-2.9551,-2.959,-2.9551,-3.0137,-3.0898,-3.0898,-3.0898,-3.0898,-3.0898,-3.0312,-2.9824,-3.0605,-2.9609,-2.8496,-2.9316,-2.8887,-2.8242,-2.8281,-2.8301,-2.8066,-2.7246,-2.7031,-2.6758,-2.5937,-2.5722,-2.5698,-2.5685,-2.564,-2.5543,-2.5428,-2.5409,-2.539,-2.539,-2.5341,-2.5005,-2.4245,-2.4129,-2.3783,-2.2985,-2.361,-2.4072,-2.4168,-2.4832,-2.5245,-2.5274,-2.5274,-2.5274,-2.5264,-2.4949,-2.479,-2.479,-2.3614,-2.3456,-2.4171,-2.3419,-2.3474,-3.7452,-4.03,-4.2835,-4.4528,-4.4797,-4.4239,-4.2777,-4.0816,-3.8285,-3.4726,-3.2135,-2.9803,0.0,0.0,0.0,-2.6311,-2.6885,0.0,-2.9633,-3.0505,0.0,-3.134,0.0,-3.1872,-3.1718,-3.2833,0.0,0.0,-3.391,-3.4718,-3.5161,-3.5449,-3.5605,-3.5616,-3.5162,-3.4941,-3.4961,-3.4141,-3.332,-3.25,-3.2305,-3.1855,-3.1211,-3.0996,-3.0898,-3.0898,-3.0898,-3.0898,-3.0898,-3.0898,-3.0898,-3.0898,-3.0898,-3.0371,-2.9512,-2.8867,-2.9043,-2.9512,-2.8867,-2.9629,-3.0898,-3.0898,-3.0898,-3.0898,-3.0898,-3.0742,-3.0488,-3.0059,-2.9141,-2.8359,-2.8574,-2.7988,-2.75,-2.8144,-2.8301,-2.8242,-2.8027,-2.7461,-2.6934,-2.6719,-2.6108,-2.5627,-2.563,-2.5524,-2.5447,-2.5409,-2.537,-2.5322,-2.5322,-2.5303,-2.5207,-2.5024,-2.4447,-2.4245,-2.4639,-2.3716,-2.3658,-2.4928,-2.462,-2.462,-2.5069,-2.5088,-2.503,-2.4942,-2.47,-2.4594,-2.4594,-2.4118,-2.4006,-2.419,-2.3988,-2.4006,-4.0338,-4.2547,-4.4412,-4.5355,-4.4591,-4.3078,-4.1146,-3.8572,-3.5417,-3.1269,-2.9198,0.0,0.0,0.0,0.0,0.0,0.0,0.0,-2.8364,-3.0028,-3.1309,0.0,-3.2968,0.0,-3.3372,-3.4218,-3.4564,0.0,-3.4487,-3.4814,-3.493,-3.5334,-3.5584,-3.5603,-3.526,-3.4948,-3.4648,-3.3828,-3.3008,-3.2207,-3.1816,-3.1367,-3.0898,-3.0898,-3.0898,-3.0898,-3.0898,-3.0898,-3.0898,-3.0898,-3.0898,-3.0898,-3.0898,-3.0371,-2.9492,-2.8613,-2.8613,-2.8965,-2.8476,-2.9199,-3.0391,-3.0781,-3.0898,-3.0898,-3.0898,-3.0625,-3.0234,-2.9746,-2.8965,-2.8398,-2.8769,-2.8223,-2.7793,-2.8652,-2.8574,-2.8201,-2.78,-2.7312,-2.6837,-2.6423,-2.5912,-2.5553,-2.5524,-2.5447,-2.539,-2.537,-2.5322,-2.5303,-2.5303,-2.5303,-2.5149,-2.4812,-2.4379,-2.4129,-2.4197,-2.3697,-2.3774,-2.4716,-2.4678,-2.4734,-2.4991,-2.501,-2.4943,-2.4804,-2.4591,-2.4495,-2.4495,-2.4303,-2.419,-2.419,-2.419,-2.419,-4.2816,-4.4393,-4.5566,-4.5451,-4.3809,-4.1609,-3.9272,-3.6188,-3.2558,-2.8098,0.0,-2.6064,-2.3691,-2.217,-2.1903,-2.3879,0.0,-2.3716,-2.7009,-2.9098,-3.0967,-3.2859,-3.3833,-3.4661,-3.543,-3.5493,-3.5493,-3.5493,-3.5493,-3.518,-3.441,-3.5084,-3.5416,-3.5282,-3.5451,-3.5163,-3.4375,-3.3613,-3.2891,-3.2187,-3.1328,-3.0898,-3.0898,-3.0898,-3.0898,-3.0898,-3.0898,-3.0898,-3.0898,-3.0898,-3.0898,-3.0898,-3.0898,-3.0371,-2.9512,-2.875,-2.8398,-2.8301,-2.8301,-2.8867,-2.9746,-3.0625,-3.0898,-3.0898,-3.0898,-3.0293,-2.9609,-2.9609,-2.8887,-2.832,-2.9199,-2.8768,-2.8333,-2.9213,-2.8825,-2.8069,-2.7315,-2.7017,-2.662,-2.5673,-2.5502,-2.548,-2.5408,-2.5409,-2.539,-2.5303,-2.5303,-2.5303,-2.5303,-2.5303,-2.5024,-2.4341,-2.4264,-2.3956,-2.3197,-2.3821,-2.4264,-2.4264,-2.4909,-2.5214,-2.501,-2.501,-2.4924,-2.476,-2.4575,-2.4495,-2.4461,-2.4284,-2.419,-2.419,-2.419,-2.419,-4.3835,-4.4816,-4.5432,-4.4701,-4.2061,-3.8988,-3.6495,-3.2118,0.0,0.0,0.0,-2.3803,-2.3178,-2.3345,0.0,-2.4154,0.0,0.0,0.0,0.0,-3.1867,0.0,0.0,0.0,0.0,0.0,0.0,0.0,-3.5493,-3.543,-3.5276,-3.543,-3.4922,-3.3651,-3.4323,-3.4033,-3.2656,-3.248,-3.2344,-3.2187,-3.1328,-3.0898,-3.0898,-3.0898,-3.0898,-3.0898,-3.0898,0.0,-3.0898,-3.0898,-3.0898,-3.0898,-3.0898,-3.0371,-2.957,-2.9434,-2.8926,-2.8301,-2.8301,-2.8867,-2.9746,-3.0625,-3.0898,-3.0898,-3.0898,-3.0293,-2.9609,-2.9609,-2.8457,-2.7422,-2.8301,-2.785,-2.7365,-2.8233,-2.8287,-2.8095,-2.7935,-2.7323,-2.6564,-2.5658,-2.5493,-2.5475,-2.5409,-2.5409,-2.539,-2.5303,-2.5303,-2.5303,-2.5303,-2.5303,-2.5245,-2.512,-2.5101,-2.5043,-2.488,-2.5005,-2.5101,-2.5101,-2.5207,-2.5214,-2.501,-2.501,-2.4858,-2.4561,-2.4528,-2.4428,-2.4266,-2.4209,-2.419,-2.419,-2.419,-2.419,-4.4085,-4.4804,-4.5036,-4.3771,-4.0634,-3.7105,-3.4279,0.0,0.0,0.0,0.0,-2.2345,-2.1803,0.0,0.0,0.0,0.0,0.0,0.0,0.0,0.0,0.0,0.0,0.0,0.0,0.0,0.0,0.0,-3.5493,-3.5493,-3.5493,-3.5493,-3.5185,-3.4524,-3.4506,-3.396,-3.2832,-3.2812,-3.2383,-3.1523,-3.1562,-3.1348,-3.0898,-3.0898,-3.0898,-3.0898,-3.0898,-3.0898,-3.0898,-3.0898,-3.0898,-3.0898,-3.0898,-3.0371,-2.9551,-2.9082,-2.8379,-2.7695,-2.8144,-2.8574,-2.9141,-3.0469,-3.0586,-3.0312,-3.0762,-2.9668,-2.8435,-2.9304,-2.8636,-2.7869,-2.8704,-2.8252,-2.7682,-2.8097,-2.7456,-2.6854,-2.7272,-2.7045,-2.6631,-2.6206,-2.6101,-2.5938,-2.5479,-2.5369,-2.5341,-2.5303,-2.5303,-2.5303,-2.5303,-2.5303,-2.5303,-2.5303,-2.5303,-2.5303,-2.5303,-2.5303,-2.5303,-2.5303,-2.5303,-2.5214,-2.501,-2.501,-2.4885,-2.4654,-2.4543,-2.4444,-2.4357,-2.4266,-2.419,-2.419,-2.419,-2.419,-4.3508,-4.4211,-4.4324,-4.2872,-3.933,-3.5378,-3.2373,-2.8054,0.0,0.0,-2.1588,-2.1308,-2.0631,0.0,0.0,0.0,0.0,0.0,0.0,0.0,0.0,0.0,0.0,0.0,0.0,0.0,0.0,0.0,-3.5493,-3.5493,-3.5493,-3.5493,-3.5455,-3.5397,-3.4806,-3.4135,-3.3398,-3.3223,-3.2578,-3.1445,-3.1777,-3.166,-3.1172,-3.0996,-3.0898,-3.0898,-3.0898,-3.0898,-3.0898,-3.0898,-3.0898,-3.0898,-3.0898,-3.0371,-2.9512,-2.8828,-2.791,-2.7109,-2.7773,-2.8027,-2.8242,-2.9629,-2.9844,-2.9726,-3.04,-2.891,-2.7296,-2.8801,-2.8636,-2.8154,-2.8778,-2.8415,-2.7844,-2.7634,-2.6631,-2.587,-2.6303,-2.6706,-2.6918,-2.6736,-2.6659,-2.6439,-2.5786,-2.5473,-2.5322,-2.5303,-2.5303,-2.5303,-2.5303,-2.5303,-2.5303,-2.5303,-2.5303,-2.5303,-2.5303,-2.5303,-2.5303,-2.5303,-2.5303,-2.5224,-2.5077,-2.5057,-2.5005,-2.4842,-2.467,-2.4526,-2.4495,-2.4303,-2.419,-2.419,-2.419,-2.419,-4.1604,-4.2646,-4.3052,-4.211,-3.7986,-3.3448,-3.0747,0.0,0.0,-2.086,-2.0629,-2.0594,-2.0503,-2.1216,0.0,0.0,0.0,0.0,0.0,0.0,0.0,0.0,0.0,0.0,0.0,0.0,0.0,-3.5493,-3.5493,-3.5493,-3.5493,-3.5493,-3.5166,-3.4447,-3.4487,-3.4116,-3.332,-3.2637,-3.2598,-3.3144,-3.1719,-3.1387,-3.2051,-3.1269,-3.0898,-3.0898,-3.0898,-3.0898,0.0,-3.0898,-3.0898,-3.0898,-3.0898,-3.0371,-2.959,-2.9512,-2.8437,-2.7012,-2.709,-2.7129,-2.7148,-2.7305,-2.8379,-2.9605,-2.9627,-2.8356,-2.7103,-2.8049,-2.7712,-2.7052,-2.7113,-2.7028,-2.6695,-2.5783,-2.6043,-2.6294,-2.5572,-2.6727,-2.7642,-2.6843,-2.6747,-2.6738,-2.6593,-2.5909,-2.537,-2.5303,-2.5303,-2.5303,-2.5303,-2.5303,-2.5303,-2.5303,-2.5303,-2.5303,-2.5303,-2.5303,-2.5303,-2.5303,-2.5303,-2.5284,-2.5274,-2.5274,-2.5173,-2.4986,-2.4836,-2.4685,-2.4495,-2.4303,-2.419,-2.419,-2.419,-2.419,-3.8911,-4.0739,-4.1704,-4.0382,-3.6802,-3.2767,-2.9585,0.0,0.0,-2.0715,-2.0115,-1.9785,-1.9785,-2.0464,-2.1015,0.0,0.0,0.0,0.0,0.0,0.0,0.0,0.0,0.0,0.0,0.0,0.0,-3.5493,-3.5493,-3.5493,-3.5493,-3.5493,-3.5378,-3.5147,-3.421,-3.36,-3.3359,-3.2598,-3.2109,-3.1894,-3.1758,-3.1582,-3.1406,-3.1055,-3.0898,-3.0898,-3.0898,-3.0898,0.0,-3.0898,-3.0898,-3.0898,-3.0898,-3.0684,-3.0254,-2.9199,-2.8379,-2.7715,-2.7187,-2.6992,-2.709,-2.7617,-2.7903,-2.8126,-2.8588,-2.747,-2.6342,-2.7706,-2.7508,-2.6996,-2.7445,-2.7152,-2.6497,-2.5534,-2.5572,-2.587,-2.6043,-2.7063,-2.7711,-2.6908,-2.715,-2.716,-2.615,-2.562,-2.5322,-2.5303,-2.5303,-2.5303,-2.5303,-2.5303,-2.5303,-2.5303,-2.5303,-2.5303,-2.5303,-2.5303,-2.5303,-2.5303,-2.5303,-2.5303,-2.5303,-2.5303,-2.5264,-2.5173,-2.4923,-2.476,-2.4685,-2.4357,-2.419,-2.419,-2.419,-2.419,-3.5449,-3.7635,-3.8934,-3.7802,-3.4802,-3.1271,0.0,0.0,-2.1442,-2.0443,-1.974,-1.932,-1.9365,-1.9798,-2.0168,0.0,0.0,0.0,0.0,0.0,0.0,0.0,0.0,0.0,0.0,0.0,-3.5493,-3.5493,-3.5493,-3.5391,-3.5141,-3.5122,-3.5295,-3.5661,-3.432,-3.3519,-3.3364,-3.2591,-3.1894,-3.1289,-3.1641,-3.1621,-3.1289,-3.1016,-3.0898,-3.0898,-3.0898,-3.0898,0.0,-3.0898,-3.0898,-3.0898,-3.0898,-3.0742,-3.0332,-2.8848,-2.8144,-2.7793,-2.6914,-2.6621,-2.6719,-2.7324,-2.7093,-2.6689,-2.7268,-2.6535,-2.5774,-2.6919,-2.6862,-2.6649,-2.7412,-2.6957,-2.6121,-2.5466,-2.5495,-2.5851,-2.6467,-2.7486,-2.8135,-2.7613,-2.773,-2.7574,-2.6438,-2.5717,-2.5303,-2.5303,-2.5303,-2.5303,-2.5303,-2.5303,-2.5303,-2.5303,-2.5303,-2.5303,-2.5303,-2.5303,-2.5303,-2.5303,-2.5303,-2.5303,-2.5303,-2.5303,-2.5274,-2.5214,-2.4936,-2.4775,-2.4716,-2.4357,-2.419,-2.419,-2.419,-2.419,-3.1064,-3.2987,-3.4276,-3.4257,-3.1679,-2.8434,0.0,0.0,-2.0816,-1.9823,-1.9442,-1.935,-1.9555,-1.9442,-1.9383,-1.9574,0.0,0.0,0.0,0.0,0.0,0.0,0.0,0.0,0.0,0.0,-3.5493,-3.5493,-3.5493,0.0,-3.4257,-3.4199,-3.4641,-3.5565,-3.4884,-3.4108,-3.3306,-3.2571,-3.2207,-3.2187,-3.1328,-3.1367,-3.2168,-3.1289,-3.0898,-3.0898,-3.0898,-3.0898,0.0,-3.0898,-3.0898,-3.0898,-3.0898,-3.0371,-2.9512,-2.8613,-2.7754,-2.6894,-2.6016,-2.5703,-2.5723,-2.5723,-2.5682,-2.562,-2.562,-2.5601,-2.5582,-2.5543,-2.5466,-2.563,-2.6497,-2.6025,-2.5303,-2.5303,-2.5967,-2.6582,-2.6601,-2.7948,-2.919,-2.9171,-2.8546,-2.7988,-2.7969,-2.6496,-2.5303,-2.5303,-2.5303,-2.5303,-2.5303,-2.5303,-2.5303,-2.5303,-2.5303,-2.5303,-2.5303,-2.5303,-2.5303,-2.5303,-2.5303,-2.5303,-2.5303,-2.5303,-2.5214,-2.501,-2.4883,-2.47,-2.4512,-2.4303,-2.419,-2.419,-2.419,-2.419,-2.774,-2.9462,-3.0698,-3.0698,-2.9044,-2.682,-2.4686,-2.2661,-2.0956,-1.9943,-1.9688,-1.9657,-1.9726,-1.967,-1.9657,-1.9726,-2.0028,0.0,0.0,0.0,0.0,0.0,0.0,0.0,0.0,0.0,-3.5257,-3.4661,-3.4603,-3.4237,-3.3353,-3.3314,-3.3513,-3.3953,-3.3151,-3.268,-3.2556,-3.1624,-3.1212,-3.1309,-3.0937,-3.0957,-3.1309,-3.1035,-3.0898,-3.0898,-3.0898,-3.0898,-3.0898,-3.0898,-3.0898,-3.0898,-3.0898,-3.0723,-3.0312,-2.8848,-2.8125,-2.7676,-2.6211,-2.5703,-2.5703,-2.5703,-2.5694,-2.5668,-2.568,-2.5565,-2.5464,-2.5438,-2.5428,-2.5466,-2.5746,-2.5563,-2.5303,-2.5303,-2.5514,-2.587,-2.6467,-2.7505,-2.814,-2.7591,-2.7736,-2.7574,-2.6419,-2.5717,-2.5303,-2.5303,-2.5303,-2.5303,-2.5303,-2.5303,-2.5303,-2.5303,-2.5303,-2.5303,-2.5303,-2.5303,-2.5303,-2.5303,-2.5303,-2.5253,-2.5099,-2.5099,-2.5018,-2.4869,-2.47,-2.4559,-2.4495,-2.4303,-2.419,-2.419,-2.419,-2.419,0.0,-2.5726,-2.7122,-2.6804,-2.5928,0.0,0.0,-2.1827,-2.0631,-1.9996,-1.9836,-1.9832,-1.9869,-1.9836,-1.9813,-1.9869,-1.9953,0.0,0.0,0.0,0.0,0.0,0.0,0.0,0.0,-3.5122,-3.5141,-3.4257,-3.4199,-3.368,-3.2506,-3.2449,-3.2378,-3.2186,-3.229,-3.2277,-3.2092,-3.1474,-3.1022,-3.0793,-3.0693,-3.0706,-3.0784,-3.0818,-3.0664,-3.0371,-3.0391,-3.0215,0.0,-3.0273,-3.041,-3.0449,-3.0762,-3.0898,-3.0684,-2.8945,-2.8301,-2.8047,-2.6309,-2.5703,-2.5703,-2.5703,-2.5703,-2.5702,-2.5678,-2.5562,-2.5488,-2.5473,-2.5445,-2.5409,-2.5409,-2.5341,-2.5303,-2.5303,-2.5303,-2.5534,-2.6409,-2.7274,-2.7755,-2.7245,-2.7794,-2.7813,-2.614,-2.5832,-2.5668,-2.5341,-2.5303,-2.5303,-2.5303,-2.5303,-2.5303,-2.5303,-2.5303,-2.5303,-2.5303,-2.5303,-2.5303,-2.5303,-2.5303,-2.5234,-2.5111,-2.5034,-2.4943,-2.4804,-2.4591,-2.4461,-2.4393,-2.4247,-2.419,-2.419,-2.419,-2.419,0.0,0.0,0.0,0.0,0.0,0.0,0.0,-2.0506,0.0,-1.985,-1.9789,-1.9774,-1.9907,-1.9884,-1.9888,-2.0003,0.0,0.0,0.0,0.0,0.0,0.0,0.0,0.0,-3.2833,-3.4391,-3.5026,-3.4083,-3.4007,-3.3314,-3.1698,-3.1621,-3.1275,-3.0525,-3.199,-3.2493,-3.18,-3.18,-3.1363,-3.0518,-3.0502,-3.0471,-3.0419,-3.0487,-3.0116,0.0,-2.9473,-2.9043,-2.8359,-2.9238,-2.9609,-2.9687,-3.0566,-3.0859,-3.0605,-2.8926,-2.8262,-2.7969,-2.6289,-2.5703,-2.5703,-2.5703,-2.5703,-2.5684,-2.5625,-2.5609,-2.5608,-2.5609,-2.5493,-2.5409,-2.5409,-2.5341,-2.5303,-2.5303,-2.5303,-2.5534,-2.6409,-2.7274,-2.7871,-2.7813,-2.8448,-2.8506,-2.689,-2.6544,-2.6255,-2.5495,-2.5341,-2.5303,-2.5303,-2.5303,-2.5303,-2.5303,-2.5303,-2.5303,-2.5303,-2.5303,-2.5303,-2.5303,-2.5303,-2.5284,-2.5274,-2.5099,-2.4924,-2.479,-2.4575,-2.4393,-2.419,-2.419,-2.419,-2.419,-2.419,-2.419,-1.6807,0.0,-1.9225,-1.8953,-1.8888,0.0,0.0,0.0,0.0,0.0,0.0,0.0,0.0,0.0,0.0,0.0,0.0,0.0,0.0,0.0,0.0,0.0,0.0,0.0,-3.2102,-3.3506,-3.3891,-3.2391,-3.2295,-3.1814,-3.0756,-3.0717,-3.0621,-3.0417,-3.0166,-3.0325,-3.0906,-3.0848,-3.0441,-2.9674,-2.9573,-2.9226,-2.8695,-2.8692,-2.8612,-2.8431,-2.8492,-2.8418,-2.8301,-2.9219,-2.9609,-2.9687,-3.0566,-3.0488,-2.9785,-2.8691,-2.7871,-2.7148,-2.6074,-2.5703,-2.5703,-2.5703,-2.5703,-2.5703,-2.5684,-2.5679,-2.5659,-2.5558,-2.5493,-2.5486,-2.5475,-2.539,-2.5303,-2.537,-2.5341,-2.5534,-2.6409,-2.7274,-2.7698,-2.7024,-2.7601,-2.7852,-2.6774,-2.6063,-2.5774,-2.6217,-2.5726,-2.5303,-2.5303,-2.5303,-2.5303,-2.5303,-2.5303,-2.5303,-2.5303,-2.5303,-2.5303,-2.5303,-2.5303,-2.5224,-2.5088,-2.5022,-2.4858,-2.4594,-2.4375,-2.4247,-2.419,-2.419,-2.419,-2.419,-2.419,-2.419,-1.5653,-1.688,-1.8332,-1.7889,-1.8371,-1.8943,0.0,0.0,0.0,0.0,0.0,0.0,0.0,0.0,0.0,0.0,0.0,0.0,0.0,0.0,0.0,0.0,0.0,-3.2923,0.0,-3.3122,-3.3115,-3.1795,-3.1698,-3.1314,-3.0436,-3.0398,-3.0217,-2.9813,-2.9352,-2.9352,-2.991,-2.9506,-2.9113,-2.8711,-2.8632,-2.8401,-2.8016,-2.8035,-2.7827,-2.745,-2.7565,-2.7374,-2.707,-2.8027,-2.8418,-2.8496,-2.9375,-2.9414,-2.8906,-2.8027,-2.7402,-2.6875,-2.5996,-2.5703,-2.5703,-2.5703,-2.5703,-2.5703,-2.5703,-2.5703,-2.5683,-2.5607,-2.5579,-2.5547,-2.55,-2.5427,-2.5346,-2.5341,-2.5322,-2.5418,-2.5909,-2.6697,-2.7044,-2.6178,-2.7332,-2.7928,-2.6294,-2.6274,-2.6524,-2.6582,-2.587,-2.5437,-2.5851,-2.5553,-2.5303,-2.5303,-2.5303,-2.5303,-2.5303,-2.5303,-2.5303,-2.5303,-2.5303,-2.5253,-2.5152,-2.5046,-2.4845,-2.4512,-2.4303,-2.419,-2.419,-2.419,-2.419,-2.419,-2.419,-2.419,-1.5544,-1.7154,-1.8623,-1.7896,-1.8877,-2.0031,0.0,0.0,0.0,0.0,0.0,0.0,0.0,0.0,0.0,0.0,0.0,0.0,0.0,0.0,0.0,0.0,0.0,0.0,-3.2204,-3.2473,-3.2192,-3.1198,-3.1121,-3.0794,-3.0063,-3.0025,-2.9679,-2.8929,-2.8794,-2.8717,-2.8717,-2.8159,-2.7832,-2.7698,-2.7698,-2.7621,-2.7505,-2.7554,-2.7189,-2.6495,-2.6622,0.0,-2.5662,-2.6601,-2.6992,-2.709,-2.7969,-2.8223,-2.8008,-2.7266,-2.6914,-2.6699,-2.5957,-2.5703,-2.5703,-2.5703,-2.5703,-2.5703,-2.5703,-2.5703,-2.5703,-2.5703,-2.5644,-2.5598,-2.555,-2.5461,-2.5391,-2.5341,-2.5303,-2.5303,-2.5303,-2.5986,-2.6351,-2.5457,-2.7159,-2.8025,-2.587,-2.6717,-2.7448,-2.6717,-2.5967,-2.5717,-2.6332,-2.5774,-2.5303,-2.5303,-2.5303,-2.5303,-2.5303,-2.5303,-2.5303,-2.5303,-2.5303,-2.5303,-2.5303,-2.5077,-2.485,-2.4543,-2.4321,-2.419,-2.419,-2.419,-2.419,-2.419,-2.419,-2.419,-1.6224,-1.6707,-1.6963,-1.6827,-1.755,-1.8286,0.0,0.0,0.0,0.0,0.0,0.0,0.0,0.0,0.0,0.0,0.0,0.0,0.0,0.0,0.0,0.0,0.0,-3.094,-2.8954,-2.9988,-3.016,-2.8602,-2.8486,-2.8409,-2.8294,-2.8275,-2.8217,-2.8082,-2.7371,-2.6986,-2.6986,-2.7582,-2.7525,-2.6794,-2.6794,-2.6409,-2.5687,-2.5717,-2.564,-2.5514,0.0,-2.5584,-2.5582,-2.6538,-2.6953,-2.709,-2.7969,-2.7851,-2.7187,-2.7051,-2.6523,-2.5879,-2.5742,-2.5703,-2.5703,-2.5703,-2.5703,-2.5703,-2.5703,-2.5703,-2.5703,-2.5703,-2.5644,-2.5605,-2.5658,-2.5546,-2.5418,-2.5447,-2.539,-2.5303,-2.5303,-2.5986,-2.6351,-2.5457,-2.6217,-2.6851,-2.6467,-2.6621,-2.6755,-2.6621,-2.6486,-2.6178,-2.5572,-2.538,-2.5303,-2.5303,-2.5303,-2.5303,-2.5303,-2.5303,-2.5303,-2.5303,-2.5303,-2.5303,-2.5303,-2.4987,-2.4818,-2.476,-2.4393,-2.419,-2.419,-2.419,-2.419,-2.419,-2.419,-2.419,-1.5504,-1.6116,-1.6489,-1.6488,-1.7563,-1.8594,0.0,0.0,0.0,0.0,0.0,0.0,0.0,0.0,0.0,0.0,0.0,0.0,0.0,0.0,0.0,0.0,0.0,-2.8786,-2.8113,-2.8685,-2.8767,-2.7948,-2.789,-2.789,-2.789,-2.789,-2.7678,-2.7217,-2.6813,-2.637,-2.5909,-2.6294,-2.6294,-2.5909,-2.5909,-2.5687,-2.5303,-2.5303,-2.5303,-2.5303,0.0,-2.5416,-2.549,-2.5952,-2.6181,-2.6288,-2.6677,-2.6607,-2.6242,-2.6208,-2.5949,-2.5603,-2.5623,-2.5644,-2.5644,-2.5684,-2.5703,-2.5703,-2.5703,-2.5703,-2.5703,-2.5703,-2.5684,-2.5644,-2.5605,-2.5527,-2.5449,-2.5399,-2.5341,-2.5303,-2.5303,-2.561,-2.5928,-2.5986,-2.6717,-2.7294,-2.7294,-2.7659,-2.7794,-2.7371,-2.6909,-2.6467,-2.6063,-2.5591,-2.5303,-2.5303,-2.5303,-2.5303,-2.5303,-2.5303,-2.5303,-2.5303,-2.5303,-2.5303,-2.5303,-2.5049,-2.4864,-2.4804,-2.4512,-2.4303,-2.419,-2.419,-2.419,-2.419,-2.419,-2.419,-1.4753,-1.5518,-1.6131,0.0,0.0,0.0,0.0,0.0,0.0,0.0,0.0,0.0,0.0,0.0,0.0,0.0,0.0,0.0,0.0,-2.6822,-2.7264,-2.8016,-2.7489,-2.7256,-2.7748,-2.7719,-2.7574,-2.7313,-2.7294,-2.7294,-2.7294,-2.7294,-2.6986,-2.6332,-2.6294,-2.589,-2.5024,-2.5024,-2.512,-2.5303,-2.5303,-2.5303,-2.5303,-2.5303,-2.5303,-2.5303,-2.5341,-2.539,-2.5399,-2.5459,-2.5522,-2.5576,-2.5582,-2.5581,-2.5572,-2.5524,-2.5498,-2.5515,-2.5584,-2.5598,-2.5605,-2.5684,-2.5703,-2.5703,-2.5703,-2.5703,-2.5703,-2.5703,-2.5703,-2.5682,-2.5567,-2.5547,-2.5506,-2.5398,-2.537,-2.5341,-2.5341,-2.5341,-2.5543,-2.6197,-2.686,-2.7302,-2.7294,-2.7967,-2.8236,-2.7409,-2.6909,-2.6524,-2.6332,-2.5707,-2.5303,-2.5303,-2.5303,-2.5303,-2.5303,-2.5303,-2.5303,-2.5303,-2.5303,-2.5303,-2.5303,-2.5099,-2.4949,-2.4855,-2.4623,-2.4409,-2.4266,-2.4228,-2.419,-2.419,-2.419,-2.419,-1.4663,-1.4992,-1.5288,-1.6109,0.0,0.0,0.0,0.0,0.0,0.0,0.0,0.0,0.0,0.0,0.0,0.0,0.0,0.0,-2.6495,0.0,-2.7871,-2.8074,-2.793,-2.7575,-2.6949,-2.6785,-2.637,-2.5553,-2.5495,-2.5495,-2.5495,-2.5495,-2.5457,-2.5399,-2.538,-2.5005,-2.4187,-2.4187,-2.4562,-2.5303,-2.5303,-2.5303,-2.5303,-2.5303,-2.5303,-2.5303,-2.5303,-2.5341,-2.5409,-2.5409,-2.5447,-2.5522,-2.5505,-2.5517,-2.5505,-2.5505,-2.5495,-2.5515,-2.5572,-2.5595,-2.5605,-2.5684,-2.5703,-2.5703,-2.5703,-2.5703,-2.5703,-2.5703,-2.5703,-2.5703,-2.5683,-2.5644,-2.5592,-2.5592,-2.5524,-2.5486,-2.5486,-2.5486,-2.5486,-2.5486,-2.5533,-2.5561,-2.5495,-2.6217,-2.6486,-2.561,-2.612,-2.6313,-2.5495,-2.5341,-2.5303,-2.5303,-2.5303,-2.5303,-2.5303,-2.5303,-2.5303,-2.5303,-2.5303,-2.5303,-2.5303,-2.5099,-2.4998,-2.4986,-2.4682,-2.4495,-2.4478,-2.4284,-2.419,-2.419,-2.419,-2.419,-1.4294,-1.4794,-1.5028,-1.535,0.0,0.0,0.0,0.0,0.0,0.0,0.0,0.0,0.0,0.0,0.0,0.0,0.0,0.0,-2.6533,-2.6909,-2.714,-2.7283,-2.6687,-2.6197,-2.5957,-2.5851,-2.5649,-2.5322,-2.5303,-2.5303,-2.5303,-2.5303,-2.5082,-2.4562,-2.4543,-2.4139,-2.3302,-2.3302,-2.3428,-2.3755,-2.3755,-2.4024,-2.4543,-2.4543,-2.4832,-2.5303,-2.5303,-2.5303,-2.5341,-2.5341,-2.539,-2.5438,-2.5432,-2.5434,-2.5428,-2.539,-2.539,-2.539,-2.5447,-2.5492,-2.5556,-2.5623,-2.5664,-2.5703,-2.5703,-2.5703,-2.5703,-2.5703,-2.5703,-2.5684,-2.5644,-2.5611,-2.5589,-2.5544,-2.5518,-2.5499,-2.5499,-2.5499,-2.5654,-2.6165,-2.6271,-2.6428,-2.6948,-2.7313,-2.7217,-2.6303,-2.6456,-2.6322,-2.5418,-2.5303,-2.5303,-2.5303,-2.5303,-2.5303,-2.5303,-2.5303,-2.5303,-2.5303,-2.5303,-2.5303,-2.5303,-2.5224,-2.5096,-2.4877,-2.4741,-2.4559,-2.4321,-2.4247,-2.419,-2.419,-2.419,-2.419,-1.3673,-1.4306,-1.4554,0.0,0.0,0.0,0.0,0.0,0.0,0.0,0.0,0.0,0.0,0.0,0.0,0.0,0.0,-2.5514,-2.6168,-2.6226,-2.6226,-2.6331,-2.5514,-2.4947,-2.5005,-2.4716,-2.4505,-2.4505,-2.4505,-2.4505,-2.4505,-2.4505,-2.4255,-2.3706,-2.3687,-2.3283,-2.2389,-2.2389,-2.2254,-2.2004,-2.2004,-2.2601,-2.3706,-2.3975,-2.4389,-2.4947,-2.5187,-2.5303,-2.5303,-2.5303,-2.5322,-2.537,-2.537,-2.537,-2.537,-2.5322,-2.5303,-2.5303,-2.539,-2.544,-2.551,-2.5579,-2.5644,-2.5703,-2.5703,-2.5703,-2.5703,-2.5703,-2.5703,-2.5684,-2.5644,-2.5625,-2.5623,-2.5573,-2.5561,-2.5561,-2.5561,-2.5561,-2.5736,-2.6305,-2.6417,-2.6597,-2.7177,-2.7275,-2.7054,-2.6381,-2.6294,-2.6053,-2.538,-2.5303,-2.5303,-2.5303,-2.5303,-2.5303,-2.5303,-2.5303,-2.5303,-2.5303,-2.5303,-2.5303,-2.5303,-2.5303,-2.516,-2.4869,-2.4814,-2.4623,-2.4284,-2.4228,-2.419,-2.419,-2.419,-2.419,-1.2876,-1.3458,0.0,0.0,0.0,0.0,0.0,0.0,0.0,0.0,0.0,0.0,0.0,0.0,0.0,-2.3803,-2.4735,-2.5264,-2.5284,-2.5284,-2.5303,-2.537,-2.4601,-2.411,-2.4187,-2.336,-2.2793,-2.2793,-2.2793,-2.2793,-2.2793,-2.2793,-2.2793,-2.2793,-2.2774,-2.237,-2.1496,-2.1485,-2.11,-2.0304,-2.0312,-2.1177,-2.2812,-2.3687,-2.4072,-2.4149,-2.4947,-2.5284,-2.5303,-2.5303,-2.5303,-2.5303,-2.5303,-2.5303,-2.5303,-2.5303,-2.5303,-2.5303,-2.539,-2.5447,-2.5511,-2.5586,-2.5644,-2.5703,-2.5703,-2.5703,-2.5703,-2.5703,-2.5703,-2.5703,-2.5703,-2.5703,-2.5703,-2.5703,-2.5703,-2.5703,-2.5703,-2.5703,-2.5684,-2.5605,-2.5605,-2.5582,-2.5511,-2.5493,-2.5479,-2.5415,-2.5393,-2.539,-2.5303,-2.5303,-2.5303,-2.5303,-2.5303,-2.5303,-2.5303,-2.5303,-2.5303,-2.5303,-2.5303,-2.5303,-2.5303,-2.5303,-2.5203,-2.501,-2.4869,-2.47,-2.4495,-2.4303,-2.419,-2.419,-2.419,-2.419,-1.3151,0.0,0.0,0.0,0.0,0.0,0.0,0.0,0.0,0.0,0.0,0.0,0.0,0.0,0.0,-2.2179,-2.2476,-2.2861,-2.3525,-2.3572,-2.3562,-2.3638,-2.3379,-2.3186,-2.3206,-2.2947,-2.2793,-2.2793,-2.2793,-2.2793,-2.2793,-2.27,-2.2383,-2.1771,-2.1651,-2.1198,-2.0302,-2.0403,-2.0336,-2.0078,-2.0233,-2.0869,-2.1889,-2.2158,-2.2928,-2.411,-2.436,-2.4774,-2.5303,-2.5303,-2.5303,-2.5303,-2.5303,-2.5303,-2.5303,-2.5303,-2.5303,-2.5303,-2.5322,-2.537,-2.5437,-2.5513,-2.5572,-2.5644,-2.5684,-2.5703,-2.5703,-2.5703,-2.5703,-2.5703,-2.5703,-2.5703,-2.5703,-2.5703,-2.5703,-2.5703,-2.5703,-2.5703,-2.5684,-2.5664,-2.5664,-2.5664,-2.5638,-2.5636,-2.5623,-2.5553,-2.5495,-2.5428,-2.5303,-2.5303,-2.5303,-2.5303,-2.5303,-2.5303,-2.5303,-2.5303,-2.5303,-2.5303,-2.5163,-2.5152,-2.5284,-2.5163,-2.5018,-2.4869,-2.4666,-2.4495,-2.4284,-2.4228,-2.419,-2.419,-2.419,-2.419,-1.3138,0.0,0.0,0.0,0.0,0.0,0.0,0.0,0.0,0.0,0.0,0.0,0.0,0.0,0.0,-2.1504,-2.1793,-2.1985,-2.1872,-2.2399,-2.2571,-2.1936,-2.2109,-2.2158,-2.1831,-2.1812,-2.1812,-2.1812,-2.1739,-2.1693,-2.1693,-2.1557,-2.1255,-2.0731,-2.0634,-2.033,-1.9809,-1.988,-1.9953,-1.9993,-2.0115,-2.0482,-2.1023,-2.135,-2.2254,-2.361,-2.3956,-2.4178,-2.4332,-2.4678,-2.4812,-2.487,-2.5168,-2.5303,-2.5303,-2.5303,-2.5303,-2.5303,-2.5303,-2.5341,-2.5409,-2.5476,-2.5551,-2.5605,-2.5684,-2.5703,-2.5703,-2.5703,-2.5703,-2.5703,-2.5703,-2.5703,-2.5703,-2.5703,-2.5703,-2.5703,-2.5703,-2.5703,-2.5703,-2.5703,-2.5703,-2.5703,-2.5703,-2.5698,-2.5678,-2.5568,-2.5474,-2.539,-2.5303,-2.5303,-2.5303,-2.5303,-2.5303,-2.5303,-2.5303,-2.5303,-2.5264,-2.5192,-2.5077,-2.5041,-2.5103,-2.4981,-2.4836,-2.4685,-2.4559,-2.441,-2.419,-2.419,-2.419,-2.419,-2.419,-2.419,0.0,0.0,0.0,0.0,0.0,0.0,0.0,0.0,0.0,0.0,0.0,0.0,0.0,0.0,-2.1254,-2.1177,-2.1803,-2.1784,-2.0277,-2.1353,-2.1737,-2.0211,-2.0749,-2.096,-2.0222,-2.0203,-2.0241,-2.0241,-2.0088,-1.9974,-1.9974,-1.9858,-1.9748,-1.9684,-1.9642,-1.9604,-1.9548,-1.9635,-1.9733,-1.9859,-1.9964,-2.0106,-2.0331,-2.1062,-2.187,-2.2735,-2.361,-2.3533,-2.2851,-2.3648,-2.3975,-2.4072,-2.487,-2.5187,-2.5187,-2.5264,-2.5303,-2.5303,-2.5303,-2.5341,-2.5409,-2.5486,-2.5535,-2.5605,-2.5683,-2.5703,-2.5703,-2.5703,-2.5703,-2.5703,-2.5703,-2.5703,-2.5703,-2.5703,-2.5703,-2.5703,-2.5703,-2.5703,-2.5703,-2.5703,-2.5703,-2.5703,-2.5703,-2.5707,-2.5648,-2.5512,-2.5387,-2.5303,-2.5303,-2.5303,-2.5303,-2.5303,-2.5303,-2.5303,-2.5303,-2.5303,-2.5214,-2.5034,-2.4998,-2.493,-2.4804,-2.479,-2.4685,-2.4512,-2.4478,-2.4375,-2.419,-2.419,-2.419,-2.419,-2.419,-2.4153,0.0,0.0,0.0,0.0,0.0,0.0,0.0,0.0,0.0,0.0,0.0,0.0,0.0,-2.0119,-1.9319,-1.8619,-1.8624,-1.8595,-1.8231,-1.8401,-1.8431,-1.8061,-1.8726,-1.9152,-1.8971,-1.953,-1.9909,-1.9909,-1.9877,-1.9847,-1.9847,-1.972,-1.9363,-1.8721,-1.8544,-1.8167,-1.7538,-1.8323,-1.8768,-1.8911,-1.964,-2.0106,-2.0312,-2.0485,-2.1004,-2.1831,-2.2697,-2.2966,-2.2812,-2.3004,-2.309,-2.3158,-2.4033,-2.436,-2.4428,-2.5082,-2.5303,-2.5303,-2.5303,-2.5303,-2.5341,-2.5466,-2.5517,-2.5542,-2.5662,-2.5703,-2.5703,-2.5703,-2.5703,-2.5703,-2.5703,-2.5703,-2.5703,-2.5703,-2.5703,-2.5703,-2.5703,-2.5703,-2.5703,-2.5703,-2.5703,-2.5703,-2.5703,-2.5703,-2.5646,-2.553,-2.5418,-2.537,-2.5303,-2.5303,-2.5303,-2.5303,-2.5303,-2.5303,-2.5303,-2.5303,-2.5274,-2.5253,-2.4987,-2.4828,-2.4804,-2.4639,-2.4526,-2.4495,-2.4339,-2.4247,-2.419,-2.419,-2.419,-2.419,-2.419,-2.3859,0.0,0.0,0.0,0.0,0.0,0.0,0.0,0.0,0.0,0.0,0.0,0.0,-1.9153,-1.8584,-1.7947,-1.7079,-1.724,-1.7224,-1.6417,-1.6932,-1.7094,-1.63,-1.7283,-1.801,-1.7981,-1.8378,-1.8812,-1.9198,-1.8821,-1.8561,-1.8561,-1.8397,-1.812,-1.7694,-1.7582,-1.7312,-1.6908,-1.742,-1.8,-1.8604,-1.9094,-1.9678,-2.0312,-2.0696,-2.0889,-2.0966,-2.1812,-2.1966,-2.1639,-2.2023,-2.2177,-2.2254,-2.3148,-2.3475,-2.359,-2.4409,-2.4736,-2.4774,-2.5168,-2.5322,-2.537,-2.5466,-2.552,-2.5577,-2.5675,-2.5703,-2.5703,-2.5703,-2.5703,-2.5703,-2.5703,-2.5703,-2.5703,-2.5703,-2.5703,-2.5703,-2.5703,-2.5703,-2.5703,-2.5703,-2.5703,-2.5699,-2.5691,-2.5641,-2.5561,-2.5467,-2.5409,-2.5341,-2.5303,-2.5303,-2.5303,-2.5303,-2.5303,-2.5303,-2.5303,-2.5303,-2.5264,-2.5163,-2.4993,-2.4869,-2.4804,-2.4607,-2.4444,-2.4357,-2.4247,-2.419,-2.419,-2.419,-2.419,-2.419,-2.419,-2.3988,0.0,0.0,0.0,0.0,0.0,0.0,0.0,0.0,0.0,0.0,0.0,0.0,-1.7467,-1.7149,-1.6725,-1.6007,-1.6479,-1.6442,-1.5066,-1.6036,-1.6375,-1.4991,-1.6177,-1.7091,-1.7041,-1.7194,-1.7589,-1.8264,-1.7587,-1.7144,-1.7144,-1.6982,-1.6835,-1.6707,-1.6688,-1.6633,-1.6487,-1.6615,-1.7182,-1.8138,-1.8474,-1.9145,-2.01,-2.0927,-2.0927,-2.035,-2.1004,-2.0927,-2.035,-2.1023,-2.1293,-2.1389,-2.2235,-2.2581,-2.2697,-2.3725,-2.411,-2.4225,-2.5024,-2.5341,-2.539,-2.5475,-2.5532,-2.5608,-2.5689,-2.5703,-2.5703,-2.5703,-2.5703,-2.5703,-2.5703,-2.5703,-2.5703,-2.5703,-2.5703,-2.5703,-2.5703,-2.5703,-2.5703,-2.5703,-2.5699,-2.5675,-2.5676,-2.5573,-2.5467,-2.5418,-2.5341,-2.5303,-2.5303,-2.5303,-2.5303,-2.5303,-2.5303,-2.5303,-2.5303,-2.5303,-2.5224,-2.5057,-2.5022,-2.4949,-2.4842,-2.4654,-2.4461,-2.4266,-2.4209,-2.419,-2.419,-2.419,-2.4135,-2.3988,-2.3988,-2.3914,0.0,0.0,0.0,0.0,0.0,0.0,0.0,0.0,0.0,0.0,0.0,-1.6431,-1.6318,-1.5723,-1.5196,-1.5074,-1.5057,-1.499,-1.4755,-1.482,-1.4807,-1.4574,-1.536,-1.5925,-1.5913,-1.6546,-1.7006,-1.7117,-1.7017,-1.6948,-1.6948,-1.6903,-1.6578,-1.5876,-1.5857,-1.5527,-1.4818,-1.5509,-1.5986,-1.6271,-1.7976,-1.8909,-1.9203,-2.0062,-2.0408,-2.0312,-2.0408,-2.0408,-2.0312,-2.0427,-2.0465,-2.0542,-2.137,-2.1677,-2.187,-2.3494,-2.411,-2.4225,-2.5024,-2.5303,-2.5322,-2.5454,-2.5502,-2.5532,-2.5659,-2.5703,-2.5703,-2.5703,-2.5703,-2.5703,-2.5703,-2.5703,-2.5703,-2.5703,-2.5703,-2.5703,-2.5703,-2.5703,-2.5703,-2.5703,-2.5654,-2.5608,-2.5611,-2.5495,-2.5408,-2.539,-2.5341,-2.5303,-2.5303,-2.5303,-2.5303,-2.5303,-2.5303,-2.5303,-2.5303,-2.5303,-2.5303,-2.5264,-2.5099,-2.4998,-2.4974,-2.4842,-2.467,-2.4461,-2.4284,-2.419,-2.419,-2.419,-2.3841,-2.3162,-2.3162,-2.2795,0.0,0.0,0.0,0.0,0.0,0.0,0.0,0.0,0.0,0.0,-1.5017,-1.5239,-1.5301,-1.498,-1.4685,-1.4685,-1.4643,-1.46,-1.46,-1.4533,-1.4488,-1.4488,-1.4811,-1.5197,-1.5655,-1.5619,-1.5735,-1.6188,-1.5808,-1.5551,-1.5551,-1.5551,-1.5386,-1.505,-1.5031,-1.4866,-1.4488,-1.4848,-1.5328,-1.5921,-1.7871,-1.8824,-1.8923,-1.9865,-2.0312,-2.0312,-2.0312,-2.0312,-2.0312,-2.0312,-2.0312,-2.035,-2.0696,-2.0831,-2.1023,-2.2735,-2.3379,-2.3494,-2.4332,-2.4947,-2.5226,-2.437,-2.4754,-2.5475,-2.5097,-2.4961,-2.5078,-2.5566,-2.5352,-2.5078,-2.5566,-2.5703,-2.5703,-2.5703,-2.5703,-2.5703,-2.5703,-2.5703,-2.5698,-2.5649,-2.5627,-2.5582,-2.5505,-2.5447,-2.539,-2.5341,-2.5322,-2.5303,-2.5303,-2.5303,-2.5303,-2.5303,-2.5303,-2.5303,-2.5303,-2.5303,-2.5303,-2.5303,-2.5214,-2.5163,-2.5163,-2.5005,-2.4836,-2.467,-2.4461,-2.4321,-2.419,-2.419,-2.4025,-2.3657,-2.3217,-2.3052,0.0,0.0,0.0,0.0,0.0,0.0,0.0,0.0,0.0,0.0,-1.3972,-1.3992,-1.4313,-1.4441,-1.4488,-1.4488,-1.4488,-1.4488,-1.4488,-1.4488,-1.4488,-1.4488,-1.4488,-1.4738,-1.5343,-1.4848,-1.4756,-1.5343,-1.4848,-1.4488,-1.4488,-1.4488,-1.4488,-1.4488,-1.4488,-1.4488,-1.4488,-1.4488,-1.4873,-1.5623,-1.7302,-1.8143,-1.8198,-1.9172,-1.9607,-1.9646,-2.0104,-2.0312,-2.0312,-2.0312,-2.0312,-2.0312,-2.0312,-2.0312,-2.0504,-2.2177,-2.2658,-2.262,-2.3725,-2.437,-2.4534,-2.3352,-2.385,-2.4817,-2.4238,-2.4219,-2.4531,-2.5195,-2.5059,-2.4883,-2.5527,-2.5703,-2.5703,-2.5703,-2.5703,-2.5703,-2.5703,-2.5696,-2.566,-2.5618,-2.5582,-2.5543,-2.5428,-2.5409,-2.539,-2.5303,-2.5303,-2.5303,-2.5303,-2.5303,-2.5303,-2.5303,-2.5303,-2.5303,-2.5303,-2.5303,-2.5303,-2.5303,-2.5303,-2.5303,-2.5303,-2.5152,-2.5005,-2.4855,-2.467,-2.4444,-2.419,-2.419,-2.3988,-2.3566,-2.2978,-2.2905,0.0,0.0,0.0,0.0,0.0,0.0,0.0,0.0,0.0,0.0,-1.2271,-1.2473,-1.3308,-1.4032,-1.4488,-1.4488,-1.4488,-1.4488,-1.4488,-1.4488,-1.4488,-1.4488,-1.4488,-1.4506,-1.4561,-1.4524,-1.4524,-1.4561,-1.4524,-1.4488,-1.4488,-1.4488,-1.4488,-1.4488,-1.4488,-1.4488,-1.4488,-1.4488,-1.4596,-1.4763,-1.5763,-1.6315,-1.6464,-1.7339,-1.7748,-1.7844,-1.9542,-2.0312,-2.0312,-2.0312,-2.0312,-2.0312,-2.0312,-2.0312,-2.0504,-2.2177,-2.2274,-2.1812,-2.3514,-2.359,-2.2928,-2.2901,-2.296,-2.3057,-2.3139,-2.373,-2.4414,-2.4453,-2.5039,-2.5644,-2.5684,-2.5703,-2.5703,-2.5703,-2.5703,-2.5703,-2.5703,-2.5644,-2.5601,-2.5611,-2.5543,-2.5486,-2.5409,-2.5409,-2.539,-2.5303,-2.5303,-2.5303,-2.5303,-2.5303,-2.5303,-2.5303,-2.5303,-2.5303,-2.5303,-2.5303,-2.5303,-2.5303,-2.5303,-2.5303,-2.5303,-2.5284,-2.5192,-2.4998,-2.485,-2.4591,-2.419,-2.419,-2.3419,-2.1931,-2.1894,-2.1437,0.0,0.0,0.0,0.0,0.0,0.0,0.0,0.0,0.0,-1.1615,-1.1945,-1.2296,-1.2511,-1.3209,-1.3739,-1.3739,-1.3739,-1.3739,-1.3739,-1.3739,-1.3912,-1.4433,-1.4488,-1.4488,-1.4488,-1.4488,-1.4488,-1.4488,-1.4488,-1.4488,-1.4488,-1.4488,-1.4488,-1.4488,-1.4488,-1.4488,-1.4488,-1.4488,-1.4522,-1.4578,-1.5511,-1.5996,-1.6083,-1.7037,-1.7472,-1.7519,-1.8164,-1.8771,-1.9386,-1.9886,-2.0169,-2.0312,-2.0312,-2.0312,-2.0446,-2.1543,-2.1773,-2.16,-2.2216,-2.2581,-2.262,-2.1573,-2.1979,-2.2808,-2.2336,-2.2447,-2.2852,-2.3418,-2.3789,-2.4023,-2.4023,-2.4453,-2.4863,-2.4863,-2.5293,-2.5703,-2.5703,-2.5689,-2.5649,-2.5609,-2.5582,-2.5543,-2.5426,-2.5397,-2.539,-2.5303,-2.5303,-2.5253,-2.5111,-2.5214,-2.5253,-2.5111,-2.5099,-2.5099,-2.5099,-2.5037,-2.5012,-2.5099,-2.5099,-2.5163,-2.5284,-2.5192,-2.503,-2.4864,-2.4697,-2.4545,-2.4393,-2.4247,-2.3896,-2.3309,-2.228,-2.1914,0.0,0.0,0.0,0.0,0.0,0.0,0.0,0.0,0.0,-1.0889,-1.1158,-1.1501,-1.1733,-1.2161,-1.2582,-1.2858,-1.2894,-1.2894,-1.2894,-1.2863,-1.3125,-1.3888,-1.3962,-1.4035,-1.4277,-1.4362,-1.4399,-1.4399,-1.4464,-1.4488,-1.4488,-1.4488,-1.4488,-1.4488,-1.4488,-1.4488,-1.4488,-1.4488,-1.4488,-1.4517,-1.5184,-1.55,-1.553,-1.6185,-1.6498,-1.6517,-1.673,-1.7576,-1.8837,-1.9373,-1.9875,-2.0312,-2.0312,-2.0312,-2.0408,-2.1196,-2.1331,-2.1139,-2.1408,-2.1696,-2.1773,-2.0658,-2.1089,-2.1925,-2.1394,-2.1477,-2.185,-2.2499,-2.2871,-2.3105,-2.3105,-2.3535,-2.3965,-2.3965,-2.4629,-2.5254,-2.5254,-2.5488,-2.5657,-2.5613,-2.5595,-2.5562,-2.5427,-2.5412,-2.5409,-2.5303,-2.5303,-2.5253,-2.5111,-2.5214,-2.5224,-2.5022,-2.501,-2.501,-2.501,-2.4883,-2.4855,-2.4998,-2.4962,-2.4993,-2.5126,-2.4993,-2.4891,-2.4804,-2.4591,-2.4495,-2.4495,-2.4303,-2.4061,-2.3768,-2.2703,-2.2189,0.0,0.0,0.0,0.0,0.0,0.0,0.0,0.0,0.0,-0.9946,-0.985,-0.9987,-1.0901,-1.0952,-1.1122,-1.1911,-1.2058,-1.2058,-1.2058,-1.1951,-1.2159,-1.292,-1.2877,-1.3095,-1.3842,-1.4083,-1.4188,-1.4188,-1.4375,-1.4476,-1.4476,-1.4488,-1.4488,-1.4488,-1.4506,-1.4488,-1.4488,-1.4488,-1.4488,-1.4499,-1.4635,-1.4678,-1.4678,-1.4678,-1.4678,-1.4734,-1.5415,-1.6851,-1.8752,-1.8771,-1.9386,-2.0285,-2.0304,-2.0312,-2.0389,-2.1177,-2.0966,-2.0408,-2.1196,-2.0946,-2.0312,-2.0312,-2.0312,-2.0312,-2.0312,-2.0885,-2.1591,-2.1725,-2.2383,-2.3066,-2.3066,-2.3066,-2.3066,-2.3086,-2.3769,-2.4414,-2.4434,-2.5059,-2.5605,-2.5605,-2.5609,-2.5562,-2.5427,-2.5459,-2.5447,-2.5322,-2.5303,-2.5303,-2.5293,-2.5284,-2.5214,-2.501,-2.4998,-2.4998,-2.4998,-2.485,-2.4842,-2.4986,-2.485,-2.479,-2.4804,-2.479,-2.479,-2.479,-2.4591,-2.4495,-2.4495,-2.4303,-2.3804,-2.3015,-2.2997,-2.2116,-1.3779,0.0,0.0,0.0,0.0,0.0,0.0,0.0,0.0,-0.9789,-0.9844,-0.9951,-1.0079,-1.0152,-1.0179,-1.0159,-1.0758,-1.1223,-1.1223,-1.1113,-1.1523,-1.2848,-1.2877,-1.3095,-1.3842,-1.3955,-1.3983,0.0,-1.4024,-1.4083,-1.4083,-1.4201,-1.4282,-1.4282,-1.4411,-1.4488,-1.4488,-1.4488,-1.4488,-1.4488,-1.4533,-1.4556,-1.4556,-1.4556,-1.4556,-1.4593,-1.5368,-1.6434,-1.771,-1.839,-1.9211,-2.0106,-2.0241,-2.0312,-2.0331,-2.0562,-2.0485,-2.0331,-2.0562,-2.0485,-2.0312,-2.0312,-2.0312,-2.0312,-2.0312,-2.0465,-2.0689,-2.0752,-2.1441,-2.2168,-2.2227,-2.2227,-2.2383,-2.2969,-2.3769,-2.457,-2.5195,-2.5527,-2.5664,-2.5664,-2.5629,-2.558,-2.5485,-2.5453,-2.5409,-2.5303,-2.5303,-2.5222,-2.4981,-2.5149,-2.5138,-2.4697,-2.4771,-2.4799,-2.4651,-2.4459,-2.4444,-2.4636,-2.4607,-2.4639,-2.479,-2.4654,-2.4575,-2.4575,-2.4393,-2.4284,-2.4284,-2.4228,-2.408,-2.3859,-2.3272,-2.2446,0.0,0.0,0.0,0.0,0.0,0.0,-0.9547,-0.9721,-0.9757,0.0,-0.7629,-0.6221,-0.7532,-0.7775,-0.7709,-0.7509,-0.9006,-1.0195,-1.0232,-1.0177,-1.054,-1.1694,-1.1985,-1.2387,-1.3156,-1.3564,-1.3766,-1.3766,-1.3838,-1.3913,-1.3913,-1.3721,-1.3795,-1.4188,-1.4307,-1.4429,-1.4488,-1.4488,-1.4488,-1.4488,-1.4488,-1.4488,-1.4488,-1.4488,-1.4488,-1.4524,-1.4995,-1.5901,-1.7121,-1.7765,-1.8787,-2.0012,-2.0069,-2.019,-2.0285,-2.0205,-2.0233,-2.0312,-2.0312,-2.0312,-2.0312,-2.0312,-2.0312,-2.0312,-2.0312,-2.0312,-2.0312,-2.035,-2.0795,-2.1269,-2.1348,-2.1367,-2.1562,-2.2402,-2.3242,-2.4102,-2.4961,-2.5449,-2.5703,-2.5703,-2.5648,-2.5572,-2.551,-2.5443,-2.539,-2.5303,-2.5303,-2.5233,-2.5024,-2.5171,-2.5126,-2.467,-2.4731,-2.4716,-2.4528,-2.4321,-2.4284,-2.4495,-2.4428,-2.4445,-2.4526,-2.4445,-2.4375,-2.4375,-2.4266,-2.419,-2.419,-2.419,-2.4247,-2.4321,-2.349,-2.2912,0.0,0.0,0.0,0.0,0.0,0.0,-0.9712,-0.9791,-0.9743,-0.9388,-0.4698,-0.1529,-0.4444,-0.4819,-0.48,-0.5118,-0.7408,-0.9204,-0.9331,-0.9285,-0.9477,-1.0111,-1.0709,-1.1422,-1.23,-1.3117,-1.357,-1.357,-1.3684,-1.3718,-1.3718,-1.3108,-1.3147,-1.3974,-1.4121,-1.4282,-1.4464,-1.4488,-1.4488,-1.4488,-1.4488,-1.4488,-1.4488,-1.4488,-1.4499,-1.454,-1.4591,-1.5509,-1.693,-1.7096,-1.8275,-1.9953,-1.9836,-1.9991,-2.0241,-2.0069,-2.0115,-2.0277,-2.0285,-2.0285,-2.0277,-2.0285,-2.0312,-2.0312,-2.0312,-2.0312,-2.0312,-2.0312,-2.0402,-2.0527,-2.0586,-2.0605,-2.084,-2.1797,-2.2598,-2.3379,-2.4336,-2.5078,-2.5586,-2.566,-2.5638,-2.5582,-2.5505,-2.5447,-2.537,-2.5303,-2.5303,-2.5284,-2.5264,-2.5293,-2.516,-2.4785,-2.479,-2.4716,-2.4478,-2.4303,-2.4266,-2.4444,-2.4303,-2.419,-2.419,-2.419,-2.419,-2.419,-2.419,-2.419,-2.419,-2.4228,-2.4339,-2.4476,-2.3782,-2.3532,0.0,0.0,0.0,0.0,0.0,0.0,-0.9947,-1.0314,-1.0086,0.0,-0.5748,-0.4633,-0.42,-0.4102,-0.4843,-0.7168,-0.8299,-0.9054,-0.955,-0.9202,-0.9214,-1.0021,-1.0603,-1.1443,-1.2754,-1.321,-1.3446,-1.3446,-1.2933,-1.2607,-1.2607,-1.258,-1.2645,-1.283,-1.3716,-1.4232,-1.4257,-1.4411,-1.4488,-1.4488,-1.4488,-1.4488,-1.4488,-1.4488,-1.4567,-1.4693,-1.5238,-1.6079,-1.7053,-1.6982,-1.8029,-1.9682,-1.9774,-1.9901,-2.0041,-2.0022,-2.0022,-2.0078,-2.0241,-2.0197,-2.0097,-2.0241,-2.0312,-2.0312,-2.0312,-2.0312,-2.0312,-2.0369,-2.048,-2.0586,-2.0605,-2.0605,-2.0977,-2.25,-2.3027,-2.3594,-2.5117,-2.5039,-2.4853,-2.5492,-2.5576,-2.5525,-2.5505,-2.5409,-2.5322,-2.5303,-2.5303,-2.5234,-2.5088,-2.5203,-2.5115,-2.4607,-2.47,-2.4654,-2.4284,-2.4228,-2.4209,-2.4266,-2.4228,-2.419,-2.419,-2.419,-2.419,-2.419,-2.419,-2.419,-2.419,-2.4357,-2.4461,-2.4512,-2.452,-2.4515,0.0,0.0,0.0,-1.0328,0.0,0.0,0.0,-1.0641,-0.9937,-0.811,-0.7423,-0.6883,-0.6056,-0.5701,-0.6009,-0.7473,-0.8042,-0.7869,-0.6681,-0.6691,-0.7414,-0.9055,-1.0083,-1.1123,-1.234,-1.2889,-1.3006,-1.269,-1.2049,-1.1874,-1.228,-1.1977,-1.2181,-1.3028,-1.3687,-1.411,-1.4188,-1.4399,-1.4488,-1.4488,-1.4488,-1.4488,-1.4499,-1.4578,-1.4592,-1.4611,-1.5036,-1.5665,-1.6411,-1.6323,-1.7067,-1.8305,-1.8871,-1.9212,-1.9449,-1.9841,-1.9993,-2.0031,-2.0233,-2.0161,-2.0031,-2.0233,-2.0312,-2.0312,-2.0312,-2.0312,-2.0308,-2.0386,-2.0464,-2.0568,-2.0583,-2.0605,-2.0918,-2.2207,-2.2539,-2.2891,-2.418,-2.4102,-2.3929,-2.4317,-2.4345,-2.454,-2.5332,-2.537,-2.5303,-2.5303,-2.5303,-2.5264,-2.5163,-2.5243,-2.516,-2.4795,-2.4785,-2.467,-2.4375,-2.4339,-2.4339,-2.4339,-2.4444,-2.4495,-2.4495,-2.4495,-2.4444,-2.4339,-2.4339,-2.4339,-2.4339,-2.4543,-2.4654,-2.4654,-2.476,-2.4902,0.0,0.0,0.0,0.0,0.0,-1.0487,0.0,0.0,0.0,-0.9337,-0.8824,0.0,0.0,0.0,0.0,0.0,0.0,0.0,0.0,-0.4478,0.0,-0.8209,-0.8869,-0.9821,-1.1558,-1.2221,-1.2445,-1.2207,-1.1386,-1.1205,-1.1908,-1.1316,-1.1568,-1.2909,-1.3285,-1.3623,-1.3972,-1.4161,-1.4352,-1.4488,-1.4488,-1.4488,-1.4499,-1.4635,-1.4645,-1.4545,-1.4656,-1.5099,-1.5741,-1.5576,-1.5968,-1.6815,-1.7918,-1.8508,-1.8868,-1.9639,-1.9963,-2.0022,-2.0188,-2.0143,-2.0031,-2.0233,-2.0312,-2.0312,-2.0312,-2.0312,-2.033,-2.0376,-2.0454,-2.0535,-2.0599,-2.0605,-2.082,-2.1699,-2.1894,-2.2148,-2.3008,-2.3066,-2.3036,-2.3339,-2.3235,-2.3534,-2.4947,-2.513,-2.5149,-2.5303,-2.5322,-2.5303,-2.5303,-2.5303,-2.5224,-2.5022,-2.4904,-2.4756,-2.4559,-2.4561,-2.4561,-2.4561,-2.4716,-2.4804,-2.4804,-2.4804,-2.4731,-2.4559,-2.4561,-2.4561,-2.4561,-2.4716,-2.4799,-2.4842,-2.4888,-2.5043,0.0,0.0,0.0,0.0,-0.9962,0.0,0.0,0.0,-1.0302,-0.9253,0.0,0.0,0.0,0.0,0.0,0.0,0.0,0.0,-0.4827,-0.5648,-0.6991,-0.8556,-0.6318,-0.6342,-1.0684,-1.1173,-1.1785,-1.3143,-1.1373,-1.033,-1.0592,-1.0521,-1.0501,-1.0583,-1.1423,-1.2282,-1.3124,-1.3333,-1.3783,-1.4488,-1.4488,-1.4488,-1.4499,-1.4635,-1.4697,-1.4687,-1.4678,-1.5152,-1.5826,-1.5104,-1.528,-1.6137,-1.7578,-1.8329,-1.8709,-1.9395,-1.9809,-1.9993,-2.0022,-2.0022,-2.0031,-2.0233,-2.0312,-2.0312,-2.0312,-2.035,-2.0388,-2.0395,-2.0497,-2.0583,-2.0605,-2.0605,-2.082,-2.1699,-2.1894,-2.2129,-2.2949,-2.2559,-2.2461,-2.3902,-2.3597,-2.3381,-2.4274,-2.437,-2.4572,-2.5284,-2.539,-2.537,-2.5303,-2.5303,-2.5224,-2.5022,-2.4986,-2.4911,-2.479,-2.476,-2.476,-2.476,-2.479,-2.4804,-2.4804,-2.4804,-2.479,-2.4775,-2.476,-2.476,-2.476,-2.479,-2.4869,-2.4986,-2.5171,-2.5264,0.0,0.0,0.0,0.0,0.0,0.0,-0.9398,0.0,-0.9443,0.0,0.0,0.0,0.0,0.0,0.0,0.0,-0.6438,0.0,0.0,0.0,-0.6448,0.0,0.0,0.0,-1.0088,-0.9389,-0.9474,-1.1245,-1.0573,-0.9197,-0.7095,-0.8603,-0.981,-1.0417,-1.1194,-1.205,-1.298,-1.3205,-1.3702,-1.4488,-1.4488,-1.4488,-1.4499,-1.4635,-1.4656,-1.46,-1.4666,-1.486,-1.5069,-1.4815,-1.485,-1.5198,-1.6374,-1.7304,-1.8108,-1.8863,-1.9449,-1.9901,-1.9964,-1.9953,-1.9922,-2.0216,-2.0312,-2.0312,-2.0312,-2.035,-2.0404,-2.045,-2.0533,-2.0605,-2.0605,-2.0605,-2.0684,-2.1055,-2.1152,-2.123,-2.1582,-2.1387,-2.1484,-2.2676,-2.2632,-2.2829,-2.4129,-2.4684,-2.5071,-2.5408,-2.5423,-2.539,-2.537,-2.5322,-2.5264,-2.5173,-2.5077,-2.4974,-2.493,-2.4917,-2.4917,-2.4917,-2.5024,-2.5091,-2.5091,-2.5091,-2.5037,-2.493,-2.4917,-2.4917,-2.4917,-2.4917,-2.5005,-2.5163,-2.5141,-2.5192,-0.7651,0.0,0.0,0.0,0.0,0.0,0.0,0.0,0.0,0.0,0.0,0.0,0.0,0.0,0.0,0.0,0.0,-0.5633,0.0,-0.6093,0.0,0.0,0.0,0.0,0.0,-0.7555,-0.7816,-0.9233,-0.8759,-0.6909,-0.3454,-0.6138,-0.8529,-1.0158,-1.0952,-1.1804,-1.2742,-1.3117,-1.3702,-1.4488,-1.4488,-1.4488,-1.4499,-1.4635,-1.4624,-1.4499,-1.4645,-1.4624,-1.4499,-1.4645,-1.4645,-1.4633,-1.5357,-1.6262,-1.7299,-1.8249,-1.8963,-1.9511,-1.9827,-1.9933,-1.9981,-2.0216,-2.0312,-2.0312,-2.0312,-2.0349,-2.0417,-2.0481,-2.0542,-2.0605,-2.0605,-2.0605,-2.0605,-2.0605,-2.0605,-2.0605,-2.0605,-2.0605,-2.0859,-2.1738,-2.207,-2.2614,-2.3865,-2.4693,-2.5196,-2.5172,-2.5318,-2.5329,-2.5072,-2.5197,-2.5303,-2.5322,-2.5201,-2.5126,-2.5145,-2.5145,-2.5126,-2.5107,-2.5233,-2.5303,-2.5303,-2.5303,-2.5224,-2.5088,-2.5088,-2.5088,-2.5088,-2.5088,-2.5163,-2.5303,-2.5152,-2.5163,0.0,0.0,0.0,-0.8307,0.0,0.0,0.0,0.0,-0.8348,0.0,0.0,0.0,0.0,0.0,0.0,0.0,0.0,0.0,0.0,0.0,0.0,0.0,0.0,0.0,0.0,-0.5919,-0.762,-0.7945,-0.5571,-0.2934,-0.0287,-0.3186,-0.6263,-0.9159,-1.0208,-1.1184,-1.2122,-1.2913,-1.3702,-1.4488,-1.4488,-1.4488,-1.4499,-1.4635,-1.4624,-1.4499,-1.4645,-1.4624,-1.4499,-1.4645,-1.4707,-1.4717,-1.4869,-1.5422,-1.6319,-1.7638,-1.8335,-1.8755,-1.9537,-2.0011,-2.0296,-2.0304,-2.0312,-2.0312,-2.0312,-2.0359,-2.0419,-2.048,-2.0542,-2.0605,-2.0605,-2.0605,-2.0605,-2.0605,-2.0605,-2.0605,-2.0605,-2.0605,-2.0859,-2.1738,-2.2539,-2.3105,-2.3223,-2.3906,-2.4409,-2.4358,-2.4992,-2.5162,-2.4253,-2.4812,-2.5322,-2.539,-2.538,-2.5418,-2.5476,-2.5476,-2.5457,-2.5399,-2.5322,-2.5303,-2.5303,-2.5303,-2.5303,-2.5284,-2.5284,-2.5284,-2.5284,-2.5284,-2.5284,-2.5303,-2.5284,-2.5284,-0.7817,-0.8862,-0.9203,-0.927,0.0,0.0,0.0,0.0,0.0,0.0,0.0,0.0,0.0,0.0,0.0,0.0,0.0,0.0,0.0,0.0,0.0,0.0,0.0,0.0,0.0,0.0,-0.747,-0.787,-0.706,-0.4623,-0.0239,-0.1024,-0.4539,-1.0929,-1.0981,-1.1548,-1.2876,-1.3151,-1.3702,-1.4488,-1.4488,-1.4488,-1.4499,-1.4545,-1.4545,-1.4499,-1.4556,-1.4545,-1.4499,-1.4645,-1.4645,-1.4571,-1.4717,-1.5202,-1.597,-1.704,-1.7888,-1.8601,-1.9503,-1.9922,-2.0115,-2.0269,-2.0312,-2.0312,-2.0312,-2.034,-2.0414,-2.0483,-2.0557,-2.0605,-2.0605,-2.0605,-2.0605,-2.0605,-2.0605,-2.0605,-2.0605,-2.0605,-2.0859,-2.1738,-2.2129,-2.25,-2.3105,-2.338,-2.3537,-2.3508,-2.4631,-2.5174,-2.4282,-2.4832,-2.5322,-2.539,-2.5409,-2.5436,-2.5479,-2.5452,-2.5401,-2.5332,-2.5303,-2.5303,-2.5303,-2.5303,-2.5303,-2.5303,-2.5303,-2.5303,-2.5303,-2.5303,-2.5303,-2.5303,-2.5303,-2.5303,-0.7675,-0.902,-1.0084,-0.9935,-1.0054,-0.998,-0.91,0.0,-0.8289,0.0,0.0,0.0,0.0,0.0,0.0,0.0,0.0,0.0,0.0,-0.6483,0.0,0.0,0.0,0.0,0.0,-0.7583,-0.7757,-0.7451,-0.6831,-0.4578,0.0,-0.1656,-0.4721,-0.9353,-1.0722,-1.187,-1.2858,-1.3151,-1.3702,-1.4488,-1.4488,-1.4488,-1.4488,-1.4488,-1.4488,-1.4488,-1.4488,-1.4488,-1.4517,-1.4581,-1.4589,-1.4511,-1.4645,-1.4961,-1.5475,-1.6608,-1.7814,-1.8988,-1.9635,-1.9963,-2.0124,-2.0269,-2.0312,-2.0312,-2.0312,-2.034,-2.0381,-2.0464,-2.0527,-2.0566,-2.0586,-2.0605,-2.0605,-2.0605,-2.0605,-2.0605,-2.0605,-2.0605,-2.0762,-2.1328,-2.1699,-2.1971,-2.2199,-2.2724,-2.2987,-2.2649,-2.3721,-2.4358,-2.3783,-2.4409,-2.5043,-2.5409,-2.5466,-2.5493,-2.5538,-2.5464,-2.5421,-2.5332,-2.5303,-2.5303,-2.5303,-2.5303,-2.5303,-2.5303,-2.5303,-2.5303,-2.5303,-2.5303,-2.5303,-2.5303,-2.5303,-2.5303]}]]